[[{"header":{"parameterUnit":"m.s-1","parameterCategory":1,"la1":30.6,"la2":28.766,"lo1":-90.7593,"lo2":-88.6598,"dy":0.0162,"dx":0.0183,"nx":116,"ny":114,"refTime":"2024-04-05T12:00:00:Z","depth":0,"parameterNumber":2,"parameterNumberName":"U-component_of_WINDS"},"data":[0.0,0.0,0.0,0.0,0.0,0.0,0.0,0.0,0.0,0.0,0.0,0.0,0.0,0.0,0.0,0.0,0.0,0.0,0.0,0.0,0.0,0.0,0.0,0.0,0.0,0.0,0.0,0.0,0.0,0.0,0.0,0.0,0.0,0.0,0.0,0.0,0.0,0.0,0.0,0.0,0.0,0.0,0.0,0.0,0.0,0.0,0.0,0.0,0.0,0.0,0.0,0.0,0.0,0.0,0.0,0.0,0.0,0.0,0.0,0.0,0.0,0.0,0.0,0.0,0.0,0.0,0.0,0.0,0.0,0.0,0.0,0.0,0.0,0.0,0.0,0.0,0.0,0.0,0.0,0.0,0.0,0.0,0.0,0.0,0.0,0.0,0.0,0.0,0.0,0.0,0.0,0.0,0.0,0.0,0.0,0.0,0.0,0.0,0.0,0.0,0.0,0.0,0.0,0.0,0.0,0.0,0.0,0.0,0.0,0.0,0.0,0.0,0.0,0.0,0.0,0.0,0.0,0.0,0.0,0.0,0.0,0.0,0.0,0.0,0.0,0.0,0.0,0.0,0.0,0.0,0.0,0.0,0.0,0.0,0.0,0.0,0.0,0.0,0.0,0.0,0.0,0.0,0.0,0.0,0.0,0.0,0.0,0.0,0.0,0.0,0.0,0.0,0.0,0.0,0.0,0.0,0.0,0.0,0.0,0.0,0.0,0.0,0.0,0.0,0.0,0.0,0.0,0.0,0.0,0.0,0.0,0.0,0.0,0.0,0.0,0.0,0.0,0.0,0.0,0.0,0.0,0.0,0.0,0.0,0.0,0.0,0.0,0.0,0.0,0.0,0.0,0.0,0.0,0.0,0.0,0.0,0.0,0.0,0.0,0.0,0.0,0.0,0.0,0.0,0.0,0.0,0.0,0.0,0.0,0.0,0.0,0.0,0.0,0.0,0.0,0.0,0.0,0.0,0.0,0.0,0.0,0.0,0.0,0.0,0.0,0.0,0.0,0.0,0.0,0.0,0.0,0.0,0.0,0.0,0.0,0.0,0.0,0.0,0.0,0.0,0.0,0.0,0.0,0.0,0.0,0.0,0.0,0.0,0.0,0.0,0.0,0.0,0.0,0.0,0.0,0.0,0.0,0.0,0.0,0.0,0.0,0.0,0.0,0.0,0.0,0.0,0.0,0.0,0.0,0.0,0.0,0.0,0.0,0.0,0.0,0.0,0.0,0.0,0.0,0.0,0.0,0.0,0.0,0.0,0.0,0.0,0.0,0.0,0.0,0.0,0.0,0.0,0.0,0.0,0.0,0.0,0.0,0.0,0.0,0.0,0.0,0.0,0.0,0.0,0.0,0.0,0.0,0.0,0.0,0.0,0.0,0.0,0.0,0.0,0.0,0.0,0.0,0.0,0.0,0.0,0.0,0.0,0.0,0.0,0.0,0.0,0.0,0.0,0.0,0.0,0.0,0.0,0.0,0.0,0.0,0.0,0.0,0.0,0.0,0.0,0.0,0.0,0.0,0.0,0.0,0.0,0.0,0.0,0.0,0.0,0.0,0.0,0.0,0.0,0.0,0.0,0.0,0.0,0.0,0.0,0.0,0.0,0.0,0.0,0.0,0.0,0.0,0.0,0.0,0.0,0.0,0.0,0.0,0.0,0.0,0.0,0.0,0.0,0.0,0.0,0.0,0.0,0.0,0.0,0.0,0.0,0.0,0.0,0.0,0.0,0.0,0.0,0.0,0.0,0.0,0.0,0.0,0.0,0.0,0.0,0.0,0.0,0.0,0.0,0.0,0.0,0.0,0.0,0.0,0.0,0.0,0.0,0.0,0.0,0.0,0.0,0.0,0.0,0.0,0.0,0.0,0.0,0.0,0.0,0.0,0.0,0.0,0.0,0.0,0.0,0.0,0.0,0.0,0.0,0.0,0.0,0.0,0.0,0.0,0.0,0.0,0.0,0.0,0.0,0.0,0.0,0.0,0.0,0.0,0.0,0.0,0.0,0.0,0.0,0.0,0.0,0.0,0.0,0.0,0.0,0.0,0.0,0.0,0.0,0.0,0.0,0.0,0.0,0.0,0.0,0.0,0.0,0.0,0.0,0.0,0.0,0.0,0.0,0.0,0.0,0.0,0.0,0.0,0.0,0.0,0.0,0.0,0.0,0.0,0.0,0.0,0.0,0.0,0.0,0.0,0.0,0.0,0.0,0.0,0.0,0.0,0.0,0.0,0.0,0.0,0.0,0.0,0.0,0.0,0.0,0.0,0.0,0.0,0.0,0.0,0.0,0.0,0.0,0.0,0.0,0.0,0.0,0.0,0.0,0.0,0.0,0.0,0.0,0.0,0.0,0.0,0.0,0.0,0.0,0.0,0.0,0.0,0.0,0.0,0.0,0.0,0.0,0.0,0.0,0.0,0.0,0.0,0.0,0.0,0.0,0.0,0.0,0.0,0.0,0.0,0.0,0.0,0.0,0.0,0.0,0.0,0.0,0.0,0.0,0.0,0.0,0.0,0.0,0.0,0.0,0.0,0.0,0.0,0.0,0.0,0.0,0.0,0.0,0.0,0.0,0.0,0.0,0.0,0.0,0.0,0.0,0.0,0.0,0.0,0.0,0.0,0.0,0.0,0.0,0.0,0.0,0.0,0.0,0.0,0.0,0.0,0.0,0.0,0.0,0.0,0.0,0.0,0.0,0.0,0.0,0.0,0.0,0.0,0.0,0.0,0.0,0.0,0.0,0.0,0.0,0.0,0.0,0.0,0.0,0.0,0.0,0.0,0.0,0.0,0.0,0.0,0.0,0.0,0.0,0.0,0.0,0.0,0.0,0.0,0.0,0.0,0.0,0.0,0.0,0.0,0.0,0.0,0.0,0.0,0.0,0.0,0.0,0.0,0.0,0.0,0.0,0.0,0.0,0.0,0.0,0.0,0.0,0.0,0.0,0.0,0.0,0.0,0.0,0.0,0.0,0.0,0.0,0.0,0.0,0.0,0.0,0.0,0.0,0.0,0.0,0.0,0.0,0.0,0.0,0.0,0.0,0.0,0.0,0.0,0.0,0.0,0.0,0.0,0.0,0.0,0.0,0.0,0.0,0.0,0.0,0.0,0.0,0.0,0.0,0.0,0.0,0.0,0.0,0.0,0.0,0.0,0.0,0.0,0.0,0.0,0.0,0.0,0.0,0.0,0.0,0.0,0.0,0.0,0.0,0.0,0.0,0.0,0.0,0.0,0.0,0.0,0.0,0.0,0.0,0.0,0.0,0.0,0.0,0.0,0.0,0.0,0.0,0.0,0.0,0.0,0.0,0.0,0.0,0.0,0.0,0.0,0.0,0.0,0.0,0.0,0.0,0.0,0.0,0.0,0.0,0.0,0.0,0.0,0.0,0.0,0.0,0.0,0.0,0.0,0.0,0.0,0.0,0.0,0.0,0.0,0.0,0.0,0.0,0.0,0.0,0.0,0.0,0.0,0.0,0.0,0.0,0.0,0.0,0.0,0.0,0.0,0.0,0.0,0.0,0.0,0.0,0.0,0.0,0.0,0.0,0.0,0.0,0.0,0.0,0.0,0.0,0.0,0.0,0.0,0.0,0.0,0.0,0.0,0.0,0.0,0.0,0.0,0.0,0.0,0.0,0.0,0.0,0.0,0.0,0.0,0.0,0.0,0.0,0.0,0.0,0.0,0.0,0.0,0.0,0.0,0.0,0.0,0.0,0.0,0.0,0.0,0.0,0.0,0.0,0.0,0.0,0.0,0.0,0.0,0.0,0.0,0.0,0.0,0.0,0.0,0.0,0.0,0.0,0.0,0.0,0.0,0.0,0.0,0.0,0.0,0.0,0.0,0.0,0.0,0.0,0.0,0.0,0.0,0.0,0.0,0.0,0.0,0.0,0.0,0.0,0.0,0.0,0.0,0.0,0.0,0.0,0.0,0.0,0.0,0.0,0.0,0.0,0.0,0.0,0.0,0.0,0.0,0.0,0.0,0.0,0.0,0.0,0.0,0.0,0.0,0.0,0.0,0.0,0.0,0.0,0.0,0.0,0.0,0.0,0.0,0.0,0.0,0.0,0.0,0.0,0.0,0.0,0.0,0.0,0.0,0.0,0.0,0.0,0.0,0.0,0.0,0.0,0.0,0.0,0.0,0.0,0.0,0.0,0.0,0.0,0.0,0.0,0.0,0.0,0.0,0.0,0.0,0.0,0.0,0.0,0.0,0.0,0.0,0.0,0.0,0.0,0.0,0.0,0.0,0.0,0.0,0.0,0.0,0.0,0.0,0.0,0.0,0.0,0.0,0.0,0.0,0.0,0.0,0.0,0.0,0.0,0.0,0.0,0.0,0.0,0.0,0.0,0.0,0.0,0.0,0.0,0.0,0.0,0.0,0.0,0.0,0.0,0.0,0.0,0.0,0.0,0.0,0.0,0.0,0.0,0.0,0.0,0.0,0.0,0.0,0.0,0.0,0.0,0.0,0.0,0.0,0.0,0.0,0.0,0.0,0.0,0.0,0.0,0.0,0.0,0.0,0.0,0.0,0.0,0.0,0.0,0.0,0.0,0.0,0.0,0.0,0.0,0.0,0.0,0.0,0.0,0.0,0.0,0.0,0.0,0.0,0.0,0.0,0.0,0.0,0.0,0.0,0.0,0.0,0.0,0.0,0.0,0.0,0.0,0.0,0.0,0.0,0.0,0.0,0.0,0.0,0.0,0.0,0.0,0.0,0.0,0.0,0.0,0.0,0.0,0.0,0.0,0.0,0.0,0.0,0.0,0.0,0.0,0.0,0.0,0.0,0.0,0.0,0.0,0.0,0.0,0.0,0.0,0.0,0.0,0.0,0.0,0.0,0.0,0.0,0.0,0.0,0.0,0.0,0.0,0.0,0.0,0.0,0.0,0.0,0.0,0.0,0.0,0.0,0.0,0.0,0.0,0.0,0.0,0.0,0.0,0.0,0.0,0.0,0.0,0.0,0.0,0.0,0.0,0.0,0.0,0.0,0.0,0.0,0.0,0.0,0.0,0.0,0.0,0.0,0.0,0.0,0.0,0.0,0.0,0.0,0.0,0.0,0.0,0.0,0.0,0.0,0.0,0.0,0.0,0.0,0.0,0.0,0.0,0.0,0.0,0.0,0.0,0.0,0.0,0.0,0.0,0.0,0.0,0.0,0.0,0.0,0.0,0.0,0.0,0.0,0.0,0.0,0.0,0.0,0.0,0.0,0.0,0.0,0.0,0.0,0.0,0.0,0.0,0.0,0.0,0.0,0.0,0.0,0.0,0.0,0.0,0.0,0.0,0.0,0.0,0.0,0.0,0.0,0.0,0.0,0.0,0.0,0.0,0.0,0.0,0.0,0.0,0.0,0.0,0.0,0.0,0.0,0.0,0.0,0.0,0.0,0.0,0.0,0.0,0.0,0.0,0.0,0.0,0.0,0.0,0.0,0.0,0.0,0.0,0.0,0.0,0.0,0.0,0.0,0.0,0.0,0.0,0.0,0.0,0.0,0.0,0.0,0.0,0.0,0.0,0.0,0.0,0.0,0.0,0.0,0.0,0.0,0.0,0.0,0.0,0.0,0.0,0.0,0.0,0.0,0.0,0.0,0.0,0.0,0.0,0.0,0.0,0.0,0.0,0.0,0.0,0.0,0.0,0.0,0.0,0.0,0.0,0.0,0.0,0.0,0.0,0.0,0.0,0.0,0.0,0.0,0.0,0.0,0.0,0.0,0.0,0.0,0.0,0.0,0.0,0.0,0.0,0.0,0.0,0.0,0.0,0.0,0.0,0.0,0.0,0.0,0.0,0.0,0.0,0.0,0.0,0.0,0.0,0.0,0.0,0.0,0.0,0.0,0.0,0.0,0.0,0.0,0.0,0.0,0.0,0.0,0.0,0.0,0.0,0.0,0.0,0.0,0.0,0.0,0.0,0.0,0.0,0.0,0.0,0.0,0.0,0.0,0.0,0.0,0.0,0.0,0.0,0.0,0.0,0.0,0.0,0.0,0.0,0.0,0.0,0.0,0.0,0.0,0.0,0.0,0.0,0.0,0.0,0.0,0.0,0.0,0.0,0.0,0.0,0.0,0.0,0.0,0.0,0.0,0.0,0.0,0.0,0.0,0.0,-3.8266,0.0,0.0,0.0,0.0,0.0,0.0,0.0,0.0,0.0,0.0,0.0,0.0,0.0,0.0,0.0,0.0,0.0,0.0,0.0,0.0,0.0,0.0,0.0,0.0,-3.568,-3.5504,-3.5504,-3.5504,-3.5629,-3.5906,-3.5931,0.0,0.0,0.0,0.0,-3.6405,-3.6107,-3.6107,-3.6405,-3.643,-3.6935,-3.799,-3.7713,-3.7739,-3.799,0.0,0.0,0.0,0.0,0.0,0.0,0.0,0.0,0.0,0.0,0.0,0.0,0.0,0.0,0.0,0.0,0.0,0.0,0.0,0.0,0.0,0.0,0.0,0.0,0.0,0.0,0.0,0.0,0.0,0.0,0.0,0.0,0.0,0.0,0.0,0.0,0.0,0.0,0.0,0.0,0.0,0.0,0.0,0.0,0.0,0.0,0.0,0.0,0.0,0.0,0.0,0.0,0.0,0.0,0.0,0.0,0.0,0.0,0.0,0.0,0.0,0.0,0.0,0.0,0.0,0.0,0.0,0.0,0.0,0.0,0.0,-3.8718,0.0,0.0,0.0,0.0,0.0,0.0,0.0,0.0,0.0,0.0,0.0,0.0,0.0,0.0,0.0,0.0,0.0,0.0,0.0,0.0,0.0,-3.6581,-3.6985,-3.6681,-3.6405,-3.6405,-3.6405,-3.638,-3.6279,-3.6355,-3.6329,-3.6128,-3.6204,-3.6229,-3.6128,-3.573,-3.5805,-3.6405,-3.6784,-3.7437,-3.8291,-3.8291,-3.8291,-3.8266,-3.7613,0.0,0.0,0.0,0.0,0.0,0.0,0.0,0.0,0.0,0.0,0.0,0.0,0.0,0.0,0.0,0.0,0.0,0.0,0.0,0.0,0.0,0.0,0.0,0.0,0.0,0.0,0.0,0.0,0.0,0.0,0.0,0.0,0.0,0.0,0.0,0.0,0.0,0.0,0.0,0.0,0.0,0.0,0.0,0.0,0.0,0.0,0.0,0.0,0.0,0.0,0.0,0.0,0.0,0.0,0.0,0.0,0.0,0.0,0.0,0.0,0.0,0.0,0.0,-3.809,-3.8191,-3.8718,-3.8266,-3.8768,-3.9948,-3.9597,-3.9798,-4.0249,-3.8492,0.0,0.0,0.0,0.0,0.0,0.0,0.0,0.0,0.0,0.0,0.0,0.0,0.0,0.0,0.0,0.0,0.0,0.0,0.0,-3.643,-3.6505,-3.6455,-3.6405,-3.6405,-3.6405,-3.6157,-3.5633,-3.6107,-3.5931,-3.4977,-3.5357,-3.5382,-3.4951,-3.5282,-3.5805,-3.6405,-3.8316,-3.9346,-3.9471,-3.9471,-3.9471,-3.9421,-3.8366,-3.7889,-3.7864,0.0,0.0,0.0,0.0,0.0,0.0,0.0,0.0,0.0,0.0,0.0,0.0,0.0,0.0,0.0,0.0,0.0,0.0,0.0,0.0,0.0,0.0,0.0,0.0,0.0,0.0,0.0,0.0,0.0,0.0,0.0,0.0,0.0,0.0,0.0,0.0,0.0,0.0,0.0,0.0,0.0,-3.9295,-3.9346,0.0,0.0,0.0,0.0,0.0,0.0,0.0,0.0,0.0,0.0,0.0,0.0,0.0,-3.7889,-3.8115,-3.9019,-3.9722,-4.0199,-4.0601,-4.1078,-4.1659,-4.1584,-4.1354,-4.11,-4.1555,0.0,-3.9823,-3.9998,0.0,0.0,0.0,0.0,0.0,0.0,0.0,0.0,0.0,0.0,0.0,0.0,0.0,0.0,0.0,0.0,0.0,0.0,0.0,0.0,0.0,-3.6958,-3.7287,-3.7287,-3.7637,-3.7387,-3.6508,-3.6408,-3.5881,-3.4731,-3.4906,-3.4931,-3.4726,-3.5554,-3.6584,-3.7813,-3.9069,-3.9697,-3.9697,-3.9697,-3.9697,-3.9672,-3.917,-3.8592,-3.799,-3.7739,0.0,0.0,0.0,0.0,0.0,0.0,0.0,0.0,0.0,0.0,0.0,0.0,0.0,0.0,0.0,0.0,0.0,0.0,0.0,0.0,0.0,0.0,0.0,0.0,0.0,0.0,0.0,0.0,0.0,0.0,0.0,0.0,0.0,0.0,0.0,0.0,0.0,0.0,0.0,-3.7965,-3.8291,-3.8291,-3.7839,-3.7412,0.0,0.0,0.0,0.0,0.0,0.0,0.0,0.0,0.0,-3.9848,-3.9572,-3.9722,-4.0325,-4.0526,-4.0752,-4.0924,-4.1175,-4.1455,-4.1681,-4.1681,-4.1555,-4.13,-4.1605,-4.1279,-4.0601,-4.0551,-4.0124,-3.9471,0.0,0.0,0.0,0.0,-3.8944,-3.912,0.0,0.0,0.0,0.0,0.0,0.0,0.0,0.0,0.0,0.0,0.0,0.0,-3.6832,-3.7638,-3.8241,-3.8241,-3.8617,-3.8266,-3.686,-3.6634,-3.5881,-3.4374,-3.4424,-3.4449,-3.4299,-3.5701,-3.731,-3.9069,-3.9496,-3.9697,-3.9697,-3.9697,-3.9697,-3.9697,-3.9697,-3.922,-3.8442,-3.8291,-3.799,-3.7588,0.0,0.0,0.0,0.0,0.0,0.0,0.0,0.0,0.0,0.0,0.0,0.0,0.0,0.0,0.0,0.0,0.0,0.0,0.0,0.0,0.0,0.0,0.0,0.0,0.0,0.0,0.0,0.0,0.0,0.0,0.0,0.0,0.0,0.0,0.0,0.0,0.0,-3.7688,-3.7939,-3.7638,-3.7864,-3.7814,0.0,0.0,0.0,0.0,0.0,0.0,-3.927,-3.9295,-3.9923,-4.125,-4.0899,-4.1128,-4.1932,-4.1681,-4.1555,-4.1555,-4.1681,-4.1702,-4.1702,-4.1702,-4.1702,-4.1702,-4.1702,-4.1702,-4.1706,-4.1153,-4.1003,-4.1,-4.0375,-3.9948,-3.9722,-4.0023,-4.0124,-4.0275,0.0,0.0,0.0,0.0,0.0,0.0,0.0,0.0,0.0,0.0,0.0,-3.7914,-3.7914,-3.8467,-3.8818,-3.8818,-3.8894,-3.7939,-3.5734,-3.6584,-3.5956,-3.3312,-3.3671,-3.3696,-3.3212,-3.5324,-3.7486,-3.9647,-3.9672,-3.9697,-3.9697,-3.9697,-3.9697,-3.9697,-3.9697,-3.9672,-3.9572,-3.9044,-3.8869,-3.8743,-3.7613,0.0,0.0,0.0,0.0,0.0,0.0,0.0,0.0,0.0,0.0,0.0,0.0,0.0,0.0,0.0,0.0,0.0,0.0,0.0,0.0,0.0,0.0,0.0,0.0,0.0,0.0,0.0,0.0,0.0,0.0,0.0,0.0,0.0,0.0,0.0,0.0,0.0,0.0,-3.8969,-3.9697,0.0,0.0,0.0,0.0,-3.9572,-3.9622,-3.9873,-4.04,-4.0425,-4.0701,-4.1275,-4.125,-4.1275,-4.1326,-4.1856,-4.2162,-4.2162,-4.2635,-4.2886,-4.2886,-4.2886,-4.2886,-4.2886,-4.2886,-4.2886,-4.2861,-4.2363,-4.148,-4.0601,-4.1025,-4.0626,-3.9823,-4.0824,-4.12,-4.1351,0.0,0.0,0.0,0.0,0.0,-3.6405,-3.6405,-3.6405,-3.6279,-3.5881,-3.7111,-3.7739,-3.7036,-3.8743,-3.9798,-3.9421,-3.9722,-3.9295,-3.7789,-3.7061,-3.6081,-3.468,-3.4173,-3.465,-3.6207,-3.7739,-3.9069,-4.0224,-4.0224,-4.0049,-3.9697,-3.9697,-3.9697,-3.9697,-3.9697,-3.9697,-3.9672,-3.9471,-3.9195,-3.8894,-3.8492,-3.7839,0.0,0.0,0.0,0.0,0.0,0.0,0.0,0.0,0.0,0.0,0.0,0.0,0.0,0.0,0.0,0.0,0.0,0.0,0.0,0.0,0.0,0.0,0.0,0.0,0.0,0.0,0.0,0.0,0.0,0.0,0.0,0.0,0.0,0.0,0.0,0.0,0.0,-3.9045,-3.9848,0.0,-3.9747,-4.0325,-4.0601,-4.0249,-4.0877,-4.1408,-4.1555,-4.158,-4.1982,-4.2886,-4.2936,-4.3087,-4.3407,-4.3639,-4.374,-4.374,-4.394,-4.4041,-4.4041,-4.4041,-4.4041,-4.4016,-4.3664,-4.3514,-4.3463,-4.2911,-4.2459,-4.2133,-4.2308,-4.2158,-4.1856,-4.2258,-4.2384,-4.2459,0.0,0.0,0.0,0.0,-3.6405,-3.6405,-3.6405,-3.6405,-3.6358,-3.6335,-3.7663,-3.8366,-3.7814,-3.9572,-4.0576,-4.0023,-4.0475,-3.9998,-3.819,-3.7362,-3.6282,-3.4776,-3.4374,-3.5554,-3.8517,-3.8944,-3.9597,-4.0526,-4.0325,-4.0049,-3.9697,-3.9697,-3.9697,-3.9697,-3.9697,-3.9697,-3.9697,-3.9697,-3.9471,-3.9145,-3.9145,-3.8592,-3.7739,0.0,0.0,0.0,0.0,0.0,0.0,0.0,0.0,0.0,0.0,0.0,0.0,0.0,0.0,0.0,0.0,0.0,0.0,0.0,0.0,0.0,0.0,0.0,0.0,0.0,0.0,0.0,0.0,0.0,0.0,0.0,0.0,0.0,0.0,-3.9346,-4.0099,-3.9045,-4.0174,-4.0852,-4.03,-4.1254,-4.1756,-4.1379,-4.2183,-4.2766,-4.2766,-4.2886,-4.3313,-4.4066,-4.4091,-4.4242,-4.4618,-4.4618,-4.4618,-4.4618,-4.4618,-4.4618,-4.4618,-4.4618,-4.4618,-4.4593,-4.4242,-4.4091,-4.4041,-4.3689,-4.3413,-4.3237,-4.3062,-4.2986,-4.2986,-4.2986,-4.2986,-4.2986,0.0,0.0,0.0,-3.6405,-3.6405,-3.6405,-3.6405,-3.6405,-3.6807,-3.7839,-3.8969,-3.9873,-4.04,-4.0924,-4.105,-4.0551,-4.1003,-3.9923,-3.6681,-3.7387,-3.6533,-3.3338,-3.4274,-3.6408,-3.9597,-3.8642,-3.8894,-4.0526,-3.9973,-3.9722,-3.9747,-3.9747,-3.9747,-3.9747,-3.9747,-3.9747,-3.9722,-3.9722,-3.9722,-3.9697,-3.9697,-3.9371,-3.8869,0.0,0.0,0.0,0.0,0.0,0.0,0.0,0.0,0.0,0.0,0.0,0.0,0.0,0.0,0.0,0.0,0.0,0.0,0.0,0.0,0.0,0.0,0.0,0.0,0.0,0.0,0.0,0.0,0.0,0.0,0.0,0.0,0.0,-3.9296,-3.9898,-4.0174,-3.917,-4.093,-4.1957,-4.1401,-4.2384,-4.3011,-4.3037,-4.3514,-4.3815,-4.3815,-4.4342,-4.4644,-4.4644,-4.4644,-4.4669,-4.4669,-4.4669,-4.4669,-4.4669,-4.4669,-4.4669,-4.4669,-4.4669,-4.4669,-4.4669,-4.4669,-4.4644,-4.4644,-4.4644,-4.4317,-4.3765,-4.3212,-4.2986,-4.2986,-4.2986,-4.2986,-4.2986,0.0,0.0,-3.6405,-3.6405,-3.6405,-3.6405,-3.6405,-3.6405,-3.6656,-3.7312,-3.8391,-3.917,-3.9295,-4.0174,-4.0526,-3.9973,-4.0425,-3.9848,-3.7688,-3.7462,-3.6659,-3.4951,-3.7462,-3.8969,-3.9094,-3.9572,-4.0049,-4.0526,-4.0375,-4.0501,-4.0824,-4.0824,-4.0824,-4.0824,-4.0824,-4.0651,-4.03,-4.03,-4.0049,-3.9697,-3.9697,-3.9371,-3.8944,0.0,0.0,0.0,0.0,0.0,0.0,0.0,0.0,0.0,0.0,0.0,0.0,0.0,0.0,0.0,0.0,0.0,0.0,0.0,0.0,0.0,0.0,0.0,0.0,0.0,0.0,0.0,0.0,0.0,0.0,0.0,-4.0902,-4.1354,-4.0752,-4.1254,-4.1785,-4.1831,-4.2087,-4.2464,-4.3062,-4.3388,-4.374,-4.4141,-4.4317,-4.4392,-4.4392,-4.4543,-4.4819,-4.5246,-4.5246,-4.5447,-4.5849,-4.5849,-4.5849,-4.5849,-4.5849,-4.5849,-4.5849,-4.5849,-4.5849,-4.5824,-4.5422,-4.5246,-4.5221,-4.4794,-4.4543,-4.4342,-4.379,-4.3338,-4.2986,-4.2986,-4.2986,-4.2986,0.0,-3.6405,-3.6405,-3.6405,-3.6405,-3.6405,-3.6405,-3.6405,-3.6857,-3.8065,-3.8617,-3.9145,-3.9823,-4.0275,-4.0375,-4.0074,-3.9898,-3.922,-3.7764,-3.6709,-3.6483,-3.7262,-3.8693,-3.9496,-3.9572,-4.0199,-4.0526,-4.0526,-4.0752,-4.0974,-4.1275,-4.1275,-4.1275,-4.1275,-4.1275,-4.11,-4.0852,-4.0626,-4.0325,-4.0023,-3.9798,-3.9496,-3.9245,-3.9572,-3.9346,-3.8919,-3.8969,-3.9145,-3.9245,-3.8592,0.0,0.0,0.0,0.0,0.0,0.0,0.0,0.0,0.0,0.0,0.0,0.0,0.0,0.0,0.0,0.0,0.0,0.0,0.0,0.0,0.0,0.0,0.0,0.0,-4.1505,-4.2032,-4.2032,-4.2308,-4.271,-4.3263,-4.3037,-4.3187,-4.4066,-4.4141,-4.4267,-4.4593,-4.4844,-4.4995,-4.4995,-4.5422,-4.5824,-4.6175,-4.6376,-4.6652,-4.6979,-4.6979,-4.6878,-4.6652,-4.6652,-4.6527,-4.6301,-4.6301,-4.6301,-4.6301,-4.5974,-4.5824,-4.5799,-4.5472,-4.5196,0.0,0.0,0.0,0.0,0.0,-4.3313,-4.3288,0.0,-3.6405,-3.6405,-3.6405,-3.6405,-3.6405,-3.6405,-3.6405,-3.7209,-3.9396,-3.922,-3.9521,-4.1254,-4.0953,-4.0576,-4.0526,-3.9572,-3.8467,-3.7262,-3.5981,-3.6533,-3.9371,-3.8718,-3.8994,-4.0475,-4.0526,-4.0576,-4.0701,-4.1204,-4.1401,-4.1476,-4.1476,-4.1476,-4.1476,-4.1476,-4.1426,-4.1351,-4.0902,-4.0651,-4.0551,-3.9998,-3.9747,-3.9697,-3.9772,-3.9471,-3.8994,-3.8542,-3.8718,-3.9145,-3.9069,0.0,0.0,0.0,0.0,0.0,0.0,0.0,0.0,0.0,0.0,0.0,0.0,0.0,0.0,0.0,0.0,0.0,0.0,0.0,0.0,0.0,0.0,0.0,0.0,-4.2258,-4.3011,-4.3062,-4.3062,-4.3263,-4.374,-4.379,-4.4041,-4.4669,-4.4719,-4.4769,-4.4895,-4.5372,-4.5698,-4.5748,-4.6702,0.0,0.0,0.0,-4.7908,-4.7908,-4.7908,-4.7682,-4.723,-4.723,-4.6954,-4.6476,-4.6426,-4.6401,-4.6401,-4.6326,-4.6301,-4.6301,-4.6301,-4.6024,-4.5522,-4.4869,-4.4618,-4.4568,-4.4066,-4.389,-4.3815,0.0,-3.6405,-3.6405,-3.6405,-3.6405,-3.6405,-3.6405,-3.6405,-3.7209,-3.9396,-3.922,-3.9724,-4.181,-4.1505,-4.0949,-4.0551,-3.9923,-3.8868,-3.7287,-3.8165,-3.8617,-3.8341,-3.9421,-4.0174,-4.0501,-4.0526,-4.0953,-4.1886,-4.2011,-4.2233,-4.266,-4.266,-4.266,-4.266,-4.266,-4.2409,-4.2037,-4.1936,-4.158,-4.1075,-4.0576,-4.0099,-3.9747,-4.0199,-4.03,-4.0249,-4.0523,-4.0724,-4.0802,-4.035,-4.0275,-4.0275,-3.9848,-3.9546,0.0,0.0,0.0,0.0,0.0,0.0,0.0,0.0,0.0,0.0,0.0,0.0,0.0,0.0,0.0,0.0,0.0,0.0,0.0,-4.125,-4.2258,-4.3137,-4.3589,-4.3639,-4.3689,-4.379,-4.379,-4.4192,-4.5221,-4.5321,-4.5698,-4.6516,-4.6753,-4.7004,-4.7405,-4.7631,-4.7757,-4.7757,-4.7857,-4.7908,-4.7908,-4.7908,-4.7857,-4.7757,-4.7757,0.0,-4.7581,-4.7154,-4.6979,-4.6892,-4.6502,-4.6301,-4.6301,-4.6301,-4.625,-4.605,-4.502,-4.4618,-4.4618,-4.4493,-4.4468,-4.4443,0.0,-3.6405,-3.6405,-3.6405,-3.6405,-3.6405,-3.6405,-3.6405,-3.7008,-3.8642,-3.8366,-3.8718,-4.0377,-3.9772,-3.927,-3.927,-3.8768,-3.809,-3.7236,-3.8241,-3.8969,-3.9245,-4.0074,-4.0526,-4.0526,-4.1053,-4.1605,-4.2213,-4.2489,-4.2766,-4.2986,-4.2986,-4.2986,-4.2986,-4.2986,-4.2866,-4.2615,-4.2313,-4.2062,-4.1681,-4.0852,-4.035,-4.0099,-4.0099,-4.0099,-4.0149,-4.0425,-4.0824,-4.125,-4.0974,-4.1304,-4.1706,-4.143,-4.0953,-4.03,0.0,0.0,0.0,0.0,0.0,0.0,0.0,0.0,0.0,0.0,0.0,0.0,0.0,0.0,-3.9873,-4.0425,0.0,-4.1551,-4.2434,-4.3037,-4.3589,-4.4141,-4.4468,-4.4644,-4.4644,-4.4644,-4.497,-4.5824,-4.615,-4.6552,-4.7043,-4.738,-4.7631,-4.7883,-4.8184,-4.8335,-4.8335,-4.8611,-4.8761,-4.8761,-4.8761,-4.8611,-4.8335,-4.8335,-4.8184,-4.7908,-4.7631,-4.7531,-4.7481,-4.6954,-4.6728,-4.6702,-4.6426,-4.6301,-4.625,-4.5698,-4.5472,-4.5447,-4.5146,-4.5045,-4.502,0.0,-3.6405,-3.6405,-3.6405,-3.6405,-3.6405,-3.6405,-3.6405,-3.6807,-3.7864,-3.7613,-3.7764,-3.8919,-3.8115,-3.7513,-3.7538,-3.7513,-3.7362,-3.7036,-3.7939,-3.9044,-4.03,-4.045,-4.0576,-4.0676,-4.1656,-4.2263,-4.2363,-4.276,-4.2986,-4.2986,-4.2986,-4.2986,-4.2986,-4.2986,-4.2986,-4.2936,-4.2564,-4.2363,-4.2263,-4.1128,-4.0676,-4.0601,-3.9948,-3.9697,-3.9697,-3.9697,-4.0325,-4.115,-4.125,-4.2007,-4.2836,-4.2936,-4.2384,-4.1404,-4.0074,-3.9697,0.0,0.0,0.0,0.0,0.0,0.0,0.0,0.0,0.0,-3.8969,-4.0099,-4.0325,-4.0601,-4.1505,-4.1702,-4.2258,-4.3589,-4.389,-4.4166,-4.4719,-4.5196,-4.5522,-4.5623,-4.5648,-4.5824,-4.6276,-4.6803,-4.7118,-4.728,-4.7782,-4.8134,-4.8234,-4.8686,-4.8937,-4.8937,-4.9364,-4.959,-4.959,-4.959,-4.9364,-4.8937,-4.8937,-4.8686,-4.8234,-4.8134,-4.8083,-4.8033,-4.7506,-4.723,-4.7043,-4.6652,-4.6401,-4.6301,-4.6301,-4.6301,-4.625,-4.5799,-4.5648,-4.5573,0.0,-3.6405,-3.6405,-3.6405,-3.6405,-3.6405,-3.6405,-3.6405,-3.6807,-3.7864,-3.7939,-3.8341,-3.9471,-3.9044,-3.7914,-3.5934,-3.7588,-3.8089,-3.6606,-3.8818,-4.0099,-3.9798,-4.0249,-4.0752,-4.1175,-4.1831,-4.2439,-4.2886,-4.2936,-4.2986,-4.2986,-4.2986,-4.2986,-4.2986,-4.2986,-4.2986,-4.2986,-4.2911,-4.2886,-4.2785,-4.1681,-4.12,-4.1075,-4.0099,-3.9697,-3.9697,-3.9697,-4.0099,-4.0676,-4.1125,-4.1731,-4.2389,-4.2866,-4.2886,-4.2384,-4.03,-3.9697,-3.9195,-3.7008,-3.7262,-3.8391,-3.9295,-3.9496,-4.0023,0.0,0.0,-4.1225,-4.2384,-4.261,-4.266,-4.276,-4.3187,-4.3589,-4.3765,-4.4217,-4.4744,-4.5321,-4.5447,-4.5673,-4.615,-4.6225,-4.625,-4.6301,-4.6803,-4.733,-4.7782,-4.836,-4.8887,-4.9364,-4.9464,-4.9515,-4.9515,-4.9565,-4.959,-4.959,-4.959,-4.9565,-4.9515,-4.9515,-4.9464,-4.9389,-4.8912,-4.8686,-4.8636,-4.8083,-4.7556,-4.7129,-4.7079,-4.6753,-4.6301,-4.6301,-4.6301,-4.6301,-4.625,-4.6225,-4.62,0.0,0.0,-3.6405,-3.6405,-3.6405,-3.6405,-3.6405,-3.6405,-3.6581,-3.6985,-3.7061,-3.7236,-3.7762,-3.6985,-3.5956,-3.47,-3.6332,-3.7262,-3.6908,-3.8843,-3.9923,-3.9697,-4.0224,-4.0777,-4.1275,-4.1882,-4.2489,-4.2986,-4.2986,-4.2986,-4.2986,-4.2986,-4.2986,-4.2986,-4.2986,-4.2986,-4.2986,-4.2986,-4.2986,-4.2886,-4.1781,-4.1275,-4.1175,-4.0124,-3.9898,-4.0099,-3.9446,-3.9371,0.0,-4.0576,-4.1003,-4.1404,-4.261,-4.2308,-4.1304,-4.0049,-3.9471,0.0,-3.9245,-3.912,-3.9245,0.0,-4.0651,-4.0902,-4.1806,-4.1601,-4.1601,-4.276,-4.2986,-4.3087,-4.3388,-4.3639,-4.4016,0.0,-4.497,-4.5321,-4.5899,-4.5974,-4.605,-4.6276,-4.6301,-4.6426,-4.6753,-4.728,-4.7807,-4.836,-4.8937,-4.9339,-4.959,-4.959,-4.959,-4.959,-4.959,-4.959,-4.959,-4.959,-4.959,-4.959,-4.959,-4.959,-4.959,-4.9364,-4.9088,-4.8825,-4.851,-4.8109,-4.7581,-4.7581,-4.728,-4.6803,-4.6803,-4.6602,-4.6301,-4.6301,-4.6301,-4.6301,0.0,0.0,0.0,-3.6405,-3.6405,-3.6405,-3.6405,-3.6405,-3.6405,-3.6405,-3.6405,-3.6355,-3.6157,-3.5429,-3.468,-3.4173,-3.5529,-3.6634,-3.7136,-3.8617,-3.9546,-3.9697,-4.0224,-4.0701,-4.105,-4.1656,-4.2133,-4.2534,-4.2534,-4.261,-4.2816,-4.2816,-4.2891,-4.2986,-4.2986,-4.2886,-4.2816,-4.2816,-4.266,-4.2434,-4.1505,-4.105,-4.0974,-4.0224,-3.9873,-3.9722,-3.8919,-3.8818,-3.9145,-3.9496,-3.9697,-4.0023,-4.1229,-4.0777,-3.9722,-3.917,-3.8492,-3.8291,-3.9798,0.0,0.0,-4.0974,-4.1555,-4.1781,-4.1781,-4.1781,-4.2007,-4.2811,-4.3112,-4.3313,-4.374,-4.4066,-4.4543,-4.5347,-4.5623,-4.5849,-4.625,-4.6301,-4.6301,-4.6301,-4.6451,-4.6753,-4.728,-4.7682,-4.8159,-4.8736,-4.9289,-4.959,-4.959,-4.959,-4.959,-4.959,-4.959,-4.959,-4.959,-4.959,-4.959,-4.959,-4.959,-4.959,-4.959,-4.959,-4.9389,-4.9012,-4.9012,-4.8686,-4.8159,-4.8159,-4.7832,-4.7355,-4.7355,-4.7104,-4.6753,-4.6753,-4.6552,-4.6301,0.0,0.0,0.0,0.0,-3.6405,-3.6405,-3.6405,-3.6405,-3.6405,-3.6405,-3.6405,-3.6157,-3.5583,-3.5483,-3.5257,-3.4705,-3.5705,-3.6656,-3.7136,-3.8266,-3.9145,-3.9672,-4.0224,-4.0526,-4.0551,-4.1025,-4.1326,-4.1326,-4.1326,-4.1656,-4.2238,-4.2238,-4.2514,-4.2986,-4.2986,-4.274,-4.2238,-4.2238,-4.1882,-4.1275,-4.0777,-4.0551,-4.0551,-4.0501,-3.9496,-3.809,-3.804,-3.8743,-3.9421,-3.7839,-3.7638,-3.809,-3.814,-3.8115,0.0,-3.7412,-3.6483,-3.5834,-3.701,0.0,-3.9295,-4.0874,-4.2133,-4.2936,-4.2936,-4.2936,-4.2936,-4.2961,-4.3413,-4.379,-4.379,-4.4694,-4.5447,-4.5472,-4.5949,-4.6301,-4.6301,-4.6301,-4.6301,-4.6301,-4.6778,-4.7305,0.0,-4.7908,-4.8159,-4.8736,-4.9289,-4.959,-4.959,-4.959,-4.959,-4.959,-4.959,-4.959,-4.959,-4.959,-4.959,-4.959,-4.959,-4.959,-4.959,-4.959,-4.959,-4.9565,-4.9565,-4.9264,-4.8736,-4.8736,-4.841,-4.7883,-4.7883,-4.7883,-4.7857,-4.7857,-4.7205,-4.6301,0.0,0.0,0.0,0.0,0.0,-3.6405,-3.6405,-3.6405,-3.6405,-3.6405,-3.6405,0.0,0.0,0.0,0.0,0.0,-3.5931,-3.6631,-3.7136,-3.8241,-3.8994,-3.9145,-3.9672,-4.0149,-4.0501,-4.0701,-4.0924,-4.1275,-4.1275,-4.1376,-4.1605,-4.1605,-4.1706,-4.1882,-4.1882,-4.1781,-4.1605,-4.1605,-4.1505,-4.1275,-4.1075,-4.0852,-4.0425,-3.9697,-3.9069,-3.8341,0.0,-3.6081,-3.6408,-3.6584,-3.6508,-3.6511,-3.7663,-3.7262,-3.616,-3.5278,-3.578,-3.6885,-3.799,0.0,-4.0827,-4.2108,-4.271,-4.2986,-4.2986,-4.2986,-4.3087,-4.3438,-4.2811,-4.261,-4.4066,-4.4066,-4.4192,-4.5296,-4.5949,-4.6301,-4.6301,-4.6627,-4.6853,-4.6853,-4.733,0.0,0.0,0.0,0.0,-4.9264,-4.949,-4.959,-4.959,-4.959,-4.959,-4.959,-4.959,-4.959,-4.959,-4.959,-4.959,-4.959,-4.959,-4.959,-4.959,-4.959,-4.959,-4.959,-4.959,-4.949,-4.9314,-4.9314,-4.8987,-4.8485,-4.8485,-4.8234,-4.7908,-4.7908,-4.7682,-4.733,0.0,0.0,0.0,0.0,0.0,0.0,0.0,0.0,0.0,0.0,0.0,0.0,0.0,0.0,0.0,0.0,0.0,-3.6631,-3.7136,-3.7864,-3.8366,-3.8542,-3.8718,-3.8969,-3.932,-3.9145,-3.9195,-3.9572,-3.9896,-4.0249,-4.0475,-4.0799,-4.11,-4.1275,-4.1275,-4.1175,-4.1,-4.1,-4.0648,-4.0097,-4.0097,-3.9697,-3.8969,-3.8467,-3.7889,0.0,-3.5579,-3.465,-3.4248,-3.4951,-3.4951,-3.4851,-3.5906,-3.5655,-3.4856,-3.4575,-3.5629,-3.731,-3.8994,-4.0249,-4.13,-4.266,-4.2986,-4.2986,-4.2986,-4.2986,-4.3087,-4.3438,-4.266,-4.2359,-4.379,-4.379,-4.3865,-4.4744,-4.5522,-4.6024,-4.6024,-4.6502,-4.6903,-4.7043,-4.7782,-4.836,0.0,0.0,0.0,-4.9565,-4.959,-4.959,-4.959,-4.959,-4.959,-4.959,-4.959,-4.959,-4.959,-4.959,-4.959,-4.959,-4.959,-4.959,-4.959,-4.959,-4.959,-4.959,-4.959,-4.959,-4.959,-4.959,-4.9389,-4.9063,-4.9063,-4.8837,-4.851,-4.851,-4.8385,-4.8134,0.0,0.0,0.0,0.0,0.0,0.0,0.0,0.0,0.0,0.0,0.0,0.0,0.0,0.0,0.0,0.0,0.0,0.0,-3.7111,-3.7161,-3.7412,-3.7939,-3.7487,-3.7236,-3.7236,-3.6757,-3.648,-3.648,-3.7487,-3.8291,-3.8894,-3.9898,-4.0623,-4.1125,-4.1125,-4.0824,-4.04,-4.04,-3.9446,-3.7965,-3.799,-3.7362,-3.6505,-3.7008,-3.6157,-3.4781,-3.5282,-3.4474,-3.3162,-3.3162,-3.3212,-3.3287,-3.3319,-3.3696,-3.4324,-3.5332,-3.6107,-3.7209,-3.9798,-4.0601,-4.1053,-4.2635,-4.3037,-4.3062,-4.3037,-4.3011,-4.3011,-4.2986,-4.2911,-4.2861,0.0,0.0,-4.4342,-4.3865,-4.4769,-4.5547,-4.5573,-4.605,-4.6602,0.0,0.0,0.0,0.0,0.0,0.0,-4.959,0.0,-4.959,-4.959,-4.959,-4.959,-4.959,-4.959,-4.959,-4.959,-4.959,-4.959,-4.959,-4.959,-4.959,-4.959,-4.959,-4.959,-4.959,-4.959,-4.959,-4.959,-4.9615,-4.9615,-4.959,-4.9615,-4.9615,-4.959,-4.959,-4.9264,-4.8736,0.0,0.0,0.0,0.0,0.0,0.0,0.0,0.0,0.0,0.0,0.0,0.0,0.0,0.0,0.0,0.0,0.0,0.0,-3.6606,-3.7008,-3.7236,-3.7387,-3.7663,-3.7789,-3.7789,-3.7663,-3.7588,-3.7588,-3.7864,-3.809,-3.8241,-3.8517,-3.8718,-3.8843,-3.8843,-3.8768,-3.8642,-3.8642,-3.8165,-3.7437,-3.7839,-3.7588,-3.6983,-3.6732,-3.6056,-3.5257,-3.4981,-3.4399,-3.3696,-3.3696,0.0,0.0,0.0,-3.6835,-3.701,-3.7287,-3.8366,-3.9622,-4.0325,-4.1706,-4.3062,-4.3489,-4.389,-4.4091,-4.3689,-4.3589,-4.3463,-4.3062,-4.2007,-4.1404,0.0,0.0,0.0,-4.3689,-4.5095,0.0,-4.6652,-4.7154,0.0,-4.8284,0.0,-4.9389,-4.9389,-4.9515,0.0,0.0,-4.959,-4.959,-4.959,-4.959,-4.959,-4.959,-4.959,-4.959,-4.959,-4.959,-4.959,-4.959,-4.959,-4.959,-4.959,-4.959,-4.959,-4.959,-4.959,-4.959,-4.9615,-5.0042,-4.9967,-4.964,-5.0042,-4.9967,-4.959,-4.959,-4.9515,-4.9364,0.0,0.0,0.0,0.0,0.0,0.0,0.0,0.0,0.0,0.0,0.0,0.0,0.0,0.0,0.0,0.0,0.0,0.0,0.0,-3.6707,-3.6883,-3.6883,-3.6885,-3.6887,-3.6887,-3.6779,-3.6726,-3.6726,-3.718,-3.7407,-3.7432,-3.7936,-3.8163,-3.8163,-3.8163,-3.8163,-3.8163,-3.8064,-3.7538,0.0,0.0,-3.681,-3.6081,-3.5755,-3.55,-3.5289,-3.4826,-3.5047,0.0,0.0,0.0,-3.7235,-3.7961,-3.8114,-3.814,-3.9045,0.0,-4.0727,-4.1706,-4.2861,-4.3865,-4.4091,-4.4217,-4.4066,-4.3263,-4.3087,-4.2861,-4.2057,-4.1153,0.0,-4.1329,-4.2087,0.0,0.0,0.0,0.0,-4.6702,-4.723,-4.7857,0.0,-4.9264,0.0,-4.959,-4.959,-4.959,0.0,-4.959,-4.959,-4.959,-4.959,-4.959,-4.959,-4.959,-4.959,-4.959,-4.959,-4.959,-4.959,-4.959,-4.959,-4.959,-4.959,-4.959,-4.959,-4.959,-4.9741,-4.9967,-5.0293,-5.0393,-5.0368,-5.067,-5.0444,-4.9967,-4.9967,-4.9791,-4.959,0.0,0.0,0.0,0.0,0.0,0.0,0.0,0.0,0.0,0.0,-3.6405,0.0,0.0,0.0,0.0,0.0,0.0,0.0,0.0,0.0,-3.6405,-3.6405,-3.5906,-3.5608,-3.5655,-3.5431,-3.5314,-3.5359,-3.6299,-3.6709,-3.6734,-3.7724,-3.818,-3.8206,-3.8157,-3.8206,-3.8206,-3.7936,-3.7235,-3.6351,-3.6398,-3.5772,-3.4871,0.0,-3.5052,-3.5257,-3.5007,-3.6092,0.0,0.0,-3.9244,-3.8567,-3.9093,-3.8968,-3.8994,-4.0767,-4.1142,-4.1433,-4.3344,-4.4029,-4.4256,-4.4676,-4.4425,-4.3828,-4.27,-4.2372,-4.1994,-4.0757,0.0,-4.0505,-4.0453,-4.1735,-4.269,-4.2363,0.0,-4.5648,-4.6426,-4.6928,-4.7657,-4.8761,-4.9314,-4.959,-4.959,-4.959,-4.959,-4.959,-4.959,-4.959,-4.959,-4.959,-4.959,-4.959,-4.959,-4.959,-4.959,-4.959,-4.959,-4.959,-4.959,-4.959,-4.959,-4.959,-4.959,-4.959,-4.959,-4.9916,-5.0419,-5.0494,-5.082,-5.1297,-5.1373,-5.1046,-5.0585,-5.0509,-5.0182,-4.9819,0.0,0.0,0.0,0.0,0.0,0.0,0.0,0.0,0.0,0.0,-3.6405,-3.6405,0.0,0.0,0.0,0.0,0.0,0.0,0.0,0.0,0.0,-3.6405,-3.6329,-3.6301,-3.6489,-3.6434,-3.6523,-3.6734,-3.6913,-3.6922,-3.6709,-3.6912,-3.7013,-3.7013,-3.6824,-3.6991,-3.7322,-3.7061,-3.6586,-3.5978,-3.6233,-3.606,-3.5699,-3.5927,0.0,0.0,-3.6044,0.0,0.0,-3.9828,-4.0721,-4.1351,-4.256,-4.2569,-4.2292,-4.3143,-4.3496,-4.3706,-4.4111,-4.5069,-4.5897,-4.5707,-4.5832,-4.5521,-4.3913,-4.3198,0.0,0.0,-4.0492,-4.044,-4.0235,-4.1094,-4.2153,-4.2766,-4.394,-4.5447,0.0,0.0,-4.8184,0.0,0.0,0.0,0.0,-4.959,0.0,0.0,-4.959,-4.959,-4.959,-4.959,-4.959,-4.959,-4.959,-4.959,-4.959,-4.959,-4.959,-4.959,-4.959,-4.959,-4.959,-4.959,-4.959,-4.959,-4.959,0.0,-5.0444,-5.0946,-5.1197,-5.1322,-5.1774,-5.1825,-5.1509,-5.0988,-5.0955,-5.1126,0.0,0.0,0.0,0.0,0.0,0.0,0.0,-3.6028,-3.6304,-3.5981,-3.568,-3.573,-3.6355,-3.6405,-3.6405,0.0,0.0,0.0,0.0,0.0,0.0,0.0,-3.6405,-3.6452,-3.6546,-3.6781,-3.6968,-3.7108,0.0,-3.7015,-3.6922,-3.6922,-3.6922,-3.6922,-3.6922,-3.7108,-3.732,-3.7015,-3.6769,-3.656,-3.6652,-3.6652,-3.656,0.0,0.0,0.0,0.0,0.0,0.0,0.0,-4.0771,-4.2056,-4.3601,-4.3819,-4.3543,-4.3984,-4.4079,-4.4189,-4.4832,-4.5451,-4.5994,-4.6159,-4.6064,-4.5386,-4.3025,0.0,0.0,0.0,-3.9645,-4.0005,-3.9828,-4.1001,0.0,-4.2468,-4.3796,0.0,0.0,0.0,0.0,0.0,0.0,0.0,0.0,-4.959,-4.959,-4.959,-4.959,-4.959,-4.959,-4.959,-4.959,-4.959,-4.959,-4.959,-4.959,-4.959,-4.959,-4.959,-4.959,-4.959,-4.959,-4.959,-4.959,-4.959,-4.959,-5.0197,-5.1135,-5.1412,-5.2,-5.2759,-5.3013,-5.2851,-5.2517,-5.217,-5.202,-5.1818,0.0,0.0,0.0,0.0,0.0,0.0,-3.5052,-3.5629,-3.5981,-3.5408,-3.4956,-3.5102,-3.6081,-3.6081,-3.6153,0.0,0.0,0.0,0.0,0.0,0.0,0.0,0.0,0.0,0.0,0.0,0.0,-3.7248,-3.7201,0.0,0.0,0.0,0.0,0.0,-3.7366,-3.7459,-3.7551,-3.7273,-3.7108,0.0,0.0,-3.7201,0.0,0.0,0.0,0.0,0.0,0.0,0.0,0.0,-4.0005,-4.1258,-4.2812,-4.3478,-4.3724,-4.3847,-4.3919,-4.4215,-4.5217,-4.5634,-4.5897,-4.6219,-4.5968,-4.4918,-4.211,-4.1415,0.0,0.0,-3.8791,-3.9486,-3.9618,-4.0773,-4.1772,0.0,-4.3471,-4.5113,0.0,0.0,0.0,0.0,0.0,0.0,0.0,-4.959,0.0,-4.959,-4.959,-4.959,-4.959,-4.959,-4.959,-4.959,-4.959,-4.959,-4.959,-4.959,-4.959,-4.959,-4.959,-4.959,-4.959,-4.9654,-4.9719,-4.9719,-4.9783,-5.0608,-5.191,-5.191,-5.2705,-5.3997,-5.3997,-5.3782,-5.3438,-5.3336,-5.3068,-5.2645,0.0,0.0,0.0,0.0,0.0,0.0,0.0,-3.5508,-3.5382,-3.4831,-3.4705,-3.4906,-3.5508,-3.5132,-3.5278,0.0,0.0,0.0,0.0,0.0,0.0,0.0,0.0,0.0,0.0,0.0,0.0,-3.7808,-3.7551,0.0,0.0,0.0,0.0,0.0,0.0,0.0,-3.7854,-3.732,0.0,0.0,0.0,0.0,0.0,0.0,0.0,0.0,0.0,0.0,0.0,0.0,0.0,-3.8869,-3.9764,-4.1465,-4.3008,-4.2554,0.0,0.0,-4.4952,-4.5801,-4.6386,-4.6073,-4.5827,-4.4978,-4.2657,0.0,0.0,-3.8981,-3.8694,-3.9038,-3.9811,-4.0072,-4.0591,-4.1874,0.0,-4.4126,0.0,0.0,0.0,0.0,0.0,0.0,0.0,-4.959,-4.959,-4.959,-4.959,-4.959,-4.959,-4.959,-4.959,-4.959,-4.959,-4.959,-4.959,-4.959,-4.959,-4.959,-4.959,-4.959,-4.959,-4.9937,-5.0065,-5.0065,-5.0359,-5.119,0.0,-5.224,-5.2905,-5.3997,-5.3997,-5.4148,-5.4288,-5.3823,-5.3789,-5.3988,0.0,0.0,0.0,0.0,0.0,0.0,-3.5132,-3.5604,-3.573,-3.4851,-3.4424,-3.4424,-3.4931,-3.455,-3.4801,-3.6279,0.0,0.0,0.0,0.0,0.0,0.0,0.0,0.0,0.0,0.0,-3.7366,-3.7413,-3.7459,0.0,0.0,0.0,0.0,0.0,0.0,0.0,0.0,-3.7644,0.0,0.0,0.0,0.0,0.0,0.0,0.0,0.0,0.0,0.0,0.0,0.0,0.0,0.0,-3.7332,-3.9064,0.0,0.0,-4.284,-4.3776,-4.5051,-4.5682,-4.5921,-4.5783,-4.5135,-4.4068,-4.2108,0.0,-3.9886,-3.8501,-3.8475,-3.8794,-3.9168,-3.9771,-4.0398,-4.0998,0.0,0.0,-4.4738,0.0,0.0,0.0,0.0,0.0,0.0,0.0,-4.9976,-5.0232,-5.0232,-5.0104,-4.9912,-4.9719,-4.959,-4.959,-4.959,-4.959,-4.959,-4.959,-4.9719,-4.9912,-4.9912,-4.9976,-5.0232,-5.0359,-5.0423,-5.0423,-5.0525,-5.1177,0.0,-5.2117,-5.2918,-5.4152,-5.4152,-5.4426,-5.4846,-5.4638,-5.4626,-5.4654,0.0,0.0,0.0,0.0,0.0,-3.6056,-3.5102,-3.5629,-3.578,-3.4851,-3.4374,-3.4223,-3.4449,-3.4424,-3.4776,-3.578,-3.6229,0.0,0.0,0.0,0.0,0.0,0.0,0.0,0.0,0.0,-3.7459,-3.7366,-3.7459,-3.7459,0.0,0.0,0.0,0.0,0.0,0.0,0.0,0.0,0.0,0.0,0.0,0.0,0.0,0.0,0.0,0.0,0.0,0.0,0.0,0.0,0.0,0.0,0.0,0.0,0.0,0.0,-4.1794,-4.3075,-4.4487,-4.5114,-4.5294,-4.5294,-4.4487,-4.3206,0.0,0.0,-3.9285,-3.8135,-3.8214,-3.8527,-3.8684,-3.9364,-4.0017,-4.0357,0.0,-4.2528,-4.3436,0.0,0.0,0.0,0.0,-5.0003,0.0,-5.0054,-5.0359,-5.0588,-5.0588,-5.0487,-5.0232,-5.004,-4.9847,-4.9719,-4.9847,-4.9912,-4.9912,-4.9912,-5.004,-5.0232,-5.0232,-5.0359,-5.0588,-5.0715,-5.0715,-5.0715,-5.0842,-5.1367,0.0,-5.2166,-5.2867,-5.3949,-5.3949,-5.421,-5.4628,-5.4785,-5.4837,-5.4811,0.0,0.0,0.0,0.0,0.0,0.0,-3.5583,-3.5508,-3.5307,-3.4756,-3.4726,-3.45,-3.3972,-3.4831,-3.5282,-3.4731,-3.573,0.0,0.0,0.0,0.0,0.0,0.0,0.0,0.0,0.0,-3.7598,-3.79,-3.7598,-3.7598,-3.79,-3.7598,-3.7644,-3.79,0.0,0.0,0.0,0.0,0.0,0.0,0.0,0.0,-3.79,0.0,0.0,0.0,0.0,0.0,0.0,0.0,0.0,0.0,0.0,-3.4842,-3.5678,-3.7429,-3.9965,-4.2342,-4.2892,-4.3885,-4.4694,-4.4694,-4.3885,-4.2735,0.0,0.0,-3.9285,-3.8135,-3.79,-3.8083,-3.8606,-3.871,-3.9102,-4.0226,-4.0932,0.0,-4.3624,0.0,0.0,0.0,0.0,-4.8272,-4.8835,-4.9948,-5.0588,-5.0588,-5.0588,0.0,-5.0588,-5.0588,-5.0423,-5.0129,-5.0423,-5.0588,-5.0588,-5.0588,-5.0588,-5.0588,-5.0588,-5.0588,-5.0588,-5.0931,-5.112,-5.112,-5.1471,-5.1936,0.0,-5.2485,-5.2851,-5.34,-5.34,-5.34,-5.3478,-5.4001,-5.421,-5.4288,0.0,0.0,0.0,0.0,0.0,0.0,0.0,-3.6107,-3.5906,-3.5307,-3.5232,-3.5031,-3.4525,-3.5056,-3.5433,-3.5257,-3.6071,0.0,0.0,0.0,0.0,0.0,0.0,0.0,0.0,-3.767,-3.7716,-3.7624,-3.7716,-3.7716,-3.7598,-3.7716,-3.7808,-3.79,-3.79,0.0,0.0,0.0,0.0,0.0,0.0,-3.79,-3.7848,0.0,0.0,0.0,0.0,0.0,0.0,0.0,0.0,0.0,0.0,0.0,0.0,-3.607,-3.7874,-4.0095,-4.1481,-4.2134,-4.2396,-4.2396,-4.1533,-4.0592,-4.0226,0.0,-3.8344,-3.7978,-3.79,-3.7952,-3.8135,-3.8449,-3.8972,-3.973,-4.0331,0.0,0.0,0.0,0.0,-4.7111,-4.8894,-5.0209,0.0,0.0,-5.1057,-5.1283,-5.1283,-5.1157,-5.0931,-5.1157,-5.1031,-5.0487,-5.0525,-5.0588,-5.0588,-5.0588,-5.0715,-5.0931,-5.0931,-5.1057,-5.1283,-5.1408,-5.1408,-5.1471,-5.1534,-5.1701,-5.1884,-5.1884,-5.2223,-5.2772,-5.2772,-5.3034,-5.3426,-5.3583,-5.3635,-5.3687,0.0,0.0,0.0,0.0,0.0,0.0,0.0,-3.6405,-3.6279,-3.5906,-3.5855,-3.5554,-3.4756,-3.5403,-3.568,-3.5232,-3.6185,0.0,0.0,0.0,0.0,0.0,0.0,0.0,-3.767,-3.7808,-3.7704,-3.7306,-3.7234,-3.7234,-3.7306,-3.7234,-3.7456,-3.79,-3.79,-3.79,0.0,0.0,0.0,0.0,-3.79,-3.7769,-3.7534,0.0,0.0,0.0,0.0,0.0,0.0,0.0,0.0,0.0,0.0,0.0,0.0,0.0,-3.6305,-3.7795,-3.9547,-4.0357,-4.0723,-4.0932,-4.0122,-3.9337,0.0,0.0,-3.79,-3.79,-3.79,-3.79,-3.79,-3.8187,-3.8658,-3.9468,-3.9886,-4.0749,0.0,0.0,0.0,-4.7858,0.0,0.0,0.0,-5.1179,-5.1346,-5.1596,-5.1596,-5.1534,-5.1309,-5.1471,-5.1408,-5.0968,-5.0968,-5.0968,-5.0968,-5.0968,-5.1094,-5.1309,-5.1309,-5.1408,-5.1596,-5.1596,-5.1596,-5.1596,-5.1596,-5.1596,0.0,-5.1596,-5.1831,-5.2145,-5.2145,-5.238,-5.2746,-5.2981,-5.306,-5.3086,0.0,0.0,0.0,0.0,0.0,0.0,0.0,-3.6405,-3.6405,-3.6405,-3.6405,-3.6028,-3.4951,-3.5755,-3.5956,-3.4926,-3.6197,0.0,0.0,0.0,0.0,0.0,0.0,0.0,-3.79,-3.79,-3.7639,-3.7063,-3.6515,-3.6515,-3.7063,-3.6488,-3.6828,-3.79,-3.79,-3.79,-3.79,-3.79,-3.79,-3.79,-3.7848,-3.7508,0.0,0.0,0.0,0.0,0.0,0.0,0.0,0.0,0.0,0.0,0.0,0.0,0.0,0.0,0.0,0.0,0.0,-3.8475,-3.9494,-4.0043,-3.9364,-3.8736,-3.9337,0.0,0.0,-3.79,-3.79,-3.79,-3.79,-3.7926,-3.8318,-3.9442,-3.9677,-4.0723,0.0,-4.4591,0.0,0.0,-4.9688,0.0,-5.0734,-5.1282,-5.1596,-5.1596,-5.1596,-5.1596,-5.1596,-5.1596,-5.1596,-5.1596,-5.1596,-5.1596,-5.1596,-5.1596,-5.1596,-5.1596,-5.1596,-5.1596,-5.1596,-5.1596,-5.1596,0.0,-5.1596,-5.1596,-5.1596,-5.1596,-5.1596,-5.1596,-5.1596,-5.1596,-5.1675,-5.2223,-5.2433,-5.2511,0.0,0.0,0.0,0.0,0.0,0.0,0.0,0.0,0.0,0.0,-3.6405,-3.6304,-3.6053,-3.6254,-3.6304,0.0,0.0,0.0,0.0,0.0,0.0,0.0,0.0,0.0,-3.79,-3.79,-3.7821,-3.7691,-3.756,-3.756,-3.7691,-3.7534,-3.7639,-3.79,-3.79,-3.79,-3.79,-3.79,-3.79,-3.7874,-3.7403,-3.7142,0.0,0.0,0.0,0.0,-3.4763,-3.4528,0.0,0.0,0.0,0.0,0.0,0.0,0.0,0.0,-3.4607,-3.4685,-3.5103,0.0,-3.7063,-3.7665,-3.7612,-3.756,0.0,-3.8083,-3.79,-3.79,-3.79,-3.79,-3.79,-3.824,-3.8762,-3.9494,-4.0357,-4.1768,-4.4199,0.0,0.0,-5.0263,-5.0864,-5.1073,-5.0812,-5.1282,-5.1596,-5.1596,-5.1596,-5.1596,-5.1596,-5.1596,-5.1596,-5.1596,-5.1596,-5.1596,-5.1596,-5.1596,-5.1596,-5.1596,-5.1596,-5.1596,-5.1596,-5.1596,-5.1596,-5.1596,-5.1596,-5.1596,-5.1596,-5.1596,-5.1596,-5.1596,-5.1596,-5.1596,-5.1622,-5.1753,-5.1805,-5.1831,0.0,0.0,0.0,0.0,0.0,0.0,0.0,0.0,0.0,0.0,-3.6405,-3.6405,-3.6405,-3.6405,-3.6405,0.0,0.0,0.0,0.0,0.0,0.0,0.0,0.0,-3.79,-3.79,-3.79,-3.7769,-3.7482,-3.722,-3.722,-3.7482,-3.722,-3.7377,-3.79,-3.79,-3.79,-3.7874,-3.7612,-3.7482,-3.7429,-3.6828,0.0,0.0,0.0,0.0,0.0,-3.4528,-3.4397,0.0,-3.4397,-3.4397,-3.4397,0.0,0.0,0.0,0.0,-3.4397,-3.4397,-3.4397,-3.4842,-3.5469,-3.607,-3.641,-3.675,-3.7351,-3.7717,-3.79,0.0,-3.79,0.0,-3.8214,-3.8945,-3.9599,-3.9913,-4.1611,0.0,0.0,0.0,-5.0106,-5.0707,-5.1047,-5.1204,0.0,-5.1413,-5.1596,-5.1596,-5.1596,-5.1596,-5.1596,-5.1596,-5.1596,-5.1596,-5.1596,-5.1596,-5.1596,-5.1596,-5.1596,-5.1596,-5.1596,-5.1596,-5.1596,-5.1596,-5.1596,-5.1596,-5.1596,-5.1596,-5.1596,-5.1596,-5.1596,-5.1596,-5.1596,-5.1596,-5.1596,-5.1596,-5.1596,-5.1596,0.0,0.0,0.0,0.0,0.0,0.0,0.0,0.0,0.0,0.0,0.0,0.0,0.0,0.0,0.0,0.0,0.0,0.0,0.0,0.0,0.0,0.0,-3.79,-3.79,-3.79,-3.7821,-3.7508,-3.7011,-3.641,-3.6358,-3.6854,-3.6436,-3.6828,-3.79,-3.79,-3.7848,-3.7743,-3.722,-3.6959,-3.6802,-3.6227,0.0,0.0,0.0,0.0,0.0,0.0,0.0,0.0,-3.4397,-3.4397,-3.4397,-3.4397,0.0,0.0,0.0,0.0,0.0,-3.4502,-3.4659,-3.4868,-3.5208,-3.5704,-3.6253,-3.6854,-3.7482,0.0,0.0,0.0,0.0,0.0,-3.9703,0.0,0.0,0.0,0.0,-4.8146,-4.9427,-5.0315,-5.0734,-5.0864,0.0,-5.1439,-5.1544,-5.1596,-5.1596,-5.1596,-5.1596,-5.1596,-5.1596,-5.1596,-5.1596,-5.1596,-5.1596,-5.1596,-5.1596,-5.1596,-5.1596,-5.1596,-5.1596,-5.1596,-5.1596,-5.1596,-5.1596,0.0,0.0,-5.1596,-5.1596,-5.1596,-5.1596,-5.1596,-5.1596,-5.1596,-5.1596,-5.1596,-5.1596,0.0,0.0,0.0,0.0,0.0,0.0,0.0,0.0,0.0,0.0,0.0,0.0,0.0,0.0,0.0,0.0,0.0,0.0,0.0,0.0,0.0,-3.79,-3.79,-3.79,-3.79,-3.7403,-3.709,-3.7011,-3.641,-3.6149,-3.6253,-3.6671,-3.7246,-3.79,-3.79,-3.7612,-3.7142,-3.7037,-3.6698,-3.6201,-3.5652,0.0,0.0,0.0,0.0,0.0,0.0,0.0,0.0,-3.4397,-3.4397,-3.4397,-3.4397,0.0,0.0,0.0,0.0,0.0,-3.5025,-3.5861,-3.6384,-3.5521,-3.5704,-3.6253,-3.6854,-3.7482,-3.79,0.0,0.0,0.0,0.0,-3.9913,-4.0357,0.0,0.0,-4.7571,0.0,0.0,-5.1204,-5.0838,0.0,-5.1335,-5.0943,-5.1335,-5.1596,-5.1596,-5.1596,-5.1596,-5.1596,-5.1596,-5.1596,-5.1596,-5.1596,-5.1596,-5.1596,-5.1596,-5.1596,-5.1596,-5.1596,-5.1596,-5.1596,-5.1596,-5.1596,-5.1596,0.0,-5.1596,-5.1596,-5.1596,-5.1596,-5.1596,-5.1596,-5.1596,-5.1596,-5.1596,-5.1596,-5.1596,0.0,0.0,0.0,0.0,0.0,0.0,0.0,0.0,0.0,0.0,0.0,0.0,0.0,0.0,0.0,0.0,0.0,0.0,0.0,0.0,-3.7762,-3.79,-3.79,-3.79,-3.79,-3.7639,-3.7325,-3.7011,-3.6724,-3.641,-3.6123,-3.6724,-3.7142,-3.7403,-3.7403,-3.709,-3.6488,-3.6201,-3.5913,-3.5626,0.0,0.0,0.0,0.0,0.0,0.0,0.0,0.0,0.0,0.0,-3.4397,-3.4397,-3.4397,0.0,0.0,0.0,0.0,0.0,-3.4737,-3.5208,-3.5783,-3.6515,-3.7821,-3.8998,-3.9259,-4.0017,-4.0409,-3.9468,0.0,0.0,0.0,0.0,-4.3467,-4.6682,0.0,-4.8407,-5.0132,-5.0551,-5.0707,0.0,0.0,-5.1178,-5.123,-5.1465,-5.1596,-5.1596,-5.1596,-5.1596,-5.1596,-5.1596,-5.1596,-5.1596,-5.1596,-5.1596,-5.1596,-5.1596,-5.1596,-5.1596,-5.1596,-5.1596,-5.1596,-5.1596,-5.1596,-5.1596,0.0,-5.1596,-5.1596,-5.1596,-5.1596,-5.1596,-5.1596,-5.1596,-5.1596,-5.1596,-5.1596,-5.1596,0.0,0.0,0.0,0.0,0.0,0.0,0.0,0.0,0.0,0.0,0.0,0.0,0.0,0.0,0.0,0.0,0.0,0.0,0.0,-3.7551,-3.7854,-3.79,-3.79,-3.79,-3.79,-3.7612,-3.7246,-3.6802,-3.6515,-3.6305,-3.6123,-3.6567,-3.6854,-3.6985,-3.6854,-3.6462,-3.5887,-3.5469,-3.5208,-3.5051,0.0,0.0,0.0,0.0,0.0,0.0,0.0,0.0,0.0,0.0,0.0,0.0,0.0,0.0,0.0,-3.4397,-3.4397,-3.4424,-3.458,-3.4816,-3.5469,-3.7429,-3.8998,-4.0305,-4.1115,-4.1873,-4.2108,-4.1036,-4.1402,0.0,0.0,-4.4043,0.0,-4.927,-4.9113,-4.9139,-5.076,-5.0577,-5.0472,-5.0917,-5.0969,-5.1152,-5.157,-5.1596,-5.1596,-5.1596,-5.1596,-5.1596,-5.1596,-5.1596,-5.1596,-5.1596,-5.1596,-5.1596,-5.1596,-5.1596,-5.1596,-5.1596,-5.1596,-5.1596,-5.1596,-5.1596,-5.1596,-5.1596,-5.1596,-5.1596,-5.1596,-5.1596,-5.1596,-5.1596,-5.1596,-5.1596,-5.1596,-5.1596,-5.1596,-5.1596,0.0,0.0,0.0,0.0,0.0,0.0,0.0,0.0,0.0,0.0,0.0,0.0,0.0,0.0,0.0,0.0,0.0,0.0,0.0,-3.7505,-3.767,-3.79,-3.79,-3.79,-3.79,-3.6802,-3.6201,-3.6175,-3.5103,-3.5103,-3.6096,-3.6149,-3.6462,-3.6985,-3.641,-3.5861,-3.5365,-3.5312,-3.4972,-3.445,-3.4424,0.0,0.0,0.0,0.0,0.0,0.0,0.0,0.0,0.0,0.0,0.0,0.0,0.0,-3.4397,-3.4397,-3.4397,-3.4528,-3.5077,-3.6018,-3.6985,-3.7717,-3.7194,-3.7325,-4.0566,-4.0958,-4.088,-4.1897,-4.297,-4.3755,0.0,-4.5166,-4.6447,-4.6734,-4.846,-5.0185,-5.1361,0.0,-5.1492,-5.1544,-5.1544,-5.1544,-5.1596,-5.1596,-5.1596,-5.1596,-5.1596,-5.1596,-5.1596,-5.1596,-5.1596,-5.1596,-5.1596,-5.1596,-5.1596,-5.1596,-5.1596,-5.1596,-5.1596,-5.1596,-5.1596,-5.1596,-5.1596,-5.1596,-5.1596,-5.1596,-5.1596,-5.1596,-5.1596,-5.1596,-5.1596,-5.1596,-5.1596,-5.1596,-5.1596,-5.1596,0.0,0.0,0.0,0.0,0.0,0.0,0.0,0.0,0.0,0.0,0.0,0.0,0.0,0.0,0.0,0.0,0.0,0.0,0.0,-3.7551,-3.7808,-3.79,-3.79,-3.7717,-3.7351,-3.6907,-3.6305,-3.56,-3.5182,-3.5338,-3.6096,-3.6096,-3.6227,-3.641,-3.5861,-3.5495,-3.5286,-3.4894,-3.4816,-3.492,-3.4554,-3.4397,0.0,0.0,0.0,0.0,0.0,0.0,0.0,0.0,-3.4397,-3.4476,-3.4842,-3.4711,-3.4528,-3.526,-3.5234,-3.5077,-3.5652,-3.6671,-3.7795,-3.8736,-3.8632,-3.9102,-4.2213,-4.3572,-4.4016,-4.3415,-4.5009,-4.6342,0.0,0.0,-4.9322,-4.8277,-4.9688,-5.11,-5.1544,-5.1596,-5.1596,-5.1596,-5.1596,-5.1596,-5.1596,-5.1596,-5.1596,-5.1596,-5.1596,-5.1596,-5.1596,-5.1596,-5.1596,-5.1596,-5.1596,-5.1596,-5.1596,-5.1596,-5.1596,-5.1596,-5.1596,-5.1596,-5.1596,-5.1596,-5.1596,-5.1596,-5.1596,-5.1596,-5.1596,-5.1596,-5.1596,-5.1596,-5.1596,-5.1596,-5.1596,-5.1596,-5.1596,-5.1596,0.0,0.0,0.0,0.0,0.0,0.0,0.0,0.0,0.0,0.0,0.0,0.0,0.0,0.0,0.0,0.0,0.0,0.0,-3.7201,-3.7505,-3.7612,-3.7639,-3.7612,-3.7325,-3.6724,-3.6724,-3.6253,-3.5286,-3.5286,-3.5574,-3.6096,-3.6096,-3.6096,-3.6096,-3.573,-3.5469,-3.526,-3.4868,-3.4816,-3.4972,-3.4554,-3.4397,0.0,0.0,0.0,0.0,0.0,0.0,0.0,0.0,-3.4685,-3.4711,-3.4946,-3.4737,-3.458,-3.5574,-3.5992,-3.6253,-3.6776,-3.7534,-3.8475,-3.9808,-3.9991,-4.0671,-4.3729,-4.5218,-4.5846,-4.5584,-4.6944,-4.7937,-4.7153,0.0,0.0,0.0,-5.0498,-5.1596,-5.1596,-5.1596,-5.1596,-5.1596,-5.1596,-5.1596,-5.1596,-5.1596,-5.1596,-5.1596,-5.1596,-5.1596,-5.1596,-5.1596,-5.1596,-5.1596,-5.1596,-5.1596,-5.1596,-5.1596,-5.1596,-5.1596,-5.1596,-5.1596,-5.1596,-5.1596,-5.1596,-5.1596,-5.1596,-5.1596,-5.1596,-5.1596,-5.1596,-5.1596,-5.1596,-5.1596,-5.1596,-5.1596,-5.1596,-5.1596,0.0,0.0,0.0,0.0,0.0,0.0,0.0,0.0,-3.6405,-3.6405,0.0,0.0,0.0,0.0,0.0,0.0,0.0,0.0,-3.7459,-3.7248,-3.7083,-3.6992,-3.7011,-3.6724,-3.6123,-3.6096,-3.5835,-3.5286,-3.5286,-3.5574,-3.6096,-3.6096,-3.6096,-3.6096,-3.6096,-3.5809,-3.5286,-3.5286,-3.4946,-3.4397,-3.4397,-3.4397,-3.4397,0.0,0.0,0.0,0.0,0.0,0.0,0.0,-3.5286,-3.5182,-3.4607,-3.4397,-3.4528,-3.5129,-3.6541,-3.8004,-3.8553,-3.871,-3.9155,-4.088,-4.0906,-4.1376,-4.4853,-4.5218,-4.5637,-4.8512,-4.8616,-4.8172,-4.8172,-4.8695,0.0,-4.9087,-5.0498,-5.1596,-5.1596,-5.1596,-5.1596,-5.1596,-5.1596,-5.1596,-5.1596,-5.1596,-5.1596,-5.1596,-5.1596,-5.1596,-5.1596,-5.1596,-5.1596,-5.1596,-5.1596,-5.1596,-5.1596,-5.1596,-5.1596,-5.1596,-5.1596,-5.1596,-5.1596,-5.1596,-5.1596,-5.1596,-5.1596,-5.1596,-5.1596,-5.1596,-5.1596,-5.1596,-5.1596,-5.1596,-5.1596,-5.1596,-5.1596,-5.1596,0.0,0.0,0.0,0.0,0.0,0.0,0.0,0.0,-3.6405,-3.6405,-3.6405,0.0,0.0,0.0,0.0,0.0,0.0,0.0,-3.7201,-3.7505,-3.7638,-3.7639,-3.722,-3.6724,-3.6123,-3.5312,-3.5025,-3.5286,-3.5286,-3.5391,-3.5547,-3.5913,-3.5887,-3.5547,-3.5547,-3.5443,-3.526,-3.4842,-3.4816,-3.4999,-3.458,-3.4397,-3.4397,0.0,0.0,0.0,0.0,0.0,0.0,0.0,0.0,0.0,-3.4946,-3.4737,-3.4685,-3.6096,-3.6567,-3.6854,-3.7874,-3.9599,-4.1167,-4.1298,-4.3023,-4.5166,-4.6996,-4.731,-4.7754,-4.9845,-4.9165,-4.8172,-4.8172,-4.9636,0.0,-4.927,-5.0498,-5.1596,-5.1596,-5.1596,-5.1596,-5.1596,-5.1596,-5.1596,-5.1596,-5.1596,-5.1596,-5.1596,-5.1596,-5.1596,-5.1596,-5.1596,-5.1596,-5.1596,-5.1596,-5.1596,-5.1596,-5.1596,-5.1596,-5.1596,-5.1596,-5.1596,-5.1596,-5.1596,-5.1596,-5.1596,-5.1596,-5.1596,-5.1596,-5.1596,-5.1596,-5.1596,-5.1596,-5.1596,-5.1596,-5.1596,-5.1596,-5.1596,0.0,0.0,0.0,0.0,0.0,0.0,0.0,0.0,-3.7059,-3.7059,-3.7059,-3.7059,0.0,0.0,0.0,0.0,0.0,0.0,-3.7775,-3.8084,-3.8262,-3.824,-3.7665,-3.6959,-3.6123,-3.5443,-3.5155,-3.5286,-3.5051,-3.5077,-3.5312,-3.5861,-3.594,-3.5626,-3.6123,-3.607,-3.56,-3.5234,-3.5025,-3.492,-3.4554,-3.4397,-3.4397,0.0,0.0,0.0,0.0,0.0,0.0,0.0,0.0,0.0,-3.4894,-3.4685,-3.4789,-3.6776,-3.7116,-3.7377,-3.9939,-4.1559,-4.2814,-4.4095,-4.5794,-4.7519,-4.8904,-4.9218,-4.9453,0.0,-4.9793,-4.9218,-4.9218,-5.0524,0.0,-5.0263,-5.0943,-5.1596,-5.1596,-5.1596,-5.1596,-5.1596,-5.1596,-5.1596,-5.1596,-5.1596,-5.1596,-5.1596,-5.1596,-5.1596,-5.1596,-5.1596,-5.1596,-5.1596,-5.1596,-5.1596,-5.1596,-5.1596,-5.1596,-5.1596,-5.1596,-5.1596,-5.1596,-5.1596,-5.1596,-5.1596,-5.1596,-5.1596,-5.1596,-5.1596,-5.1596,-5.1596,-5.1596,-5.1596,-5.1596,-5.1596,-5.1596,-5.1596,0.0,0.0,-3.6556,-3.6556,0.0,0.0,0.0,0.0,0.0,0.0,-3.8015,-3.8015,0.0,0.0,0.0,0.0,0.0,0.0,0.0,-3.8823,-3.8859,-3.8768,-3.8266,-3.7456,-3.6305,-3.6201,-3.594,-3.5443,-3.4737,-3.4685,-3.5234,-3.5835,-3.607,-3.607,-3.722,-3.7142,-3.6096,-3.6044,-3.5469,-3.4554,-3.4554,-3.4528,-3.4476,-3.4476,0.0,0.0,0.0,0.0,0.0,0.0,0.0,0.0,-3.458,-3.4397,-3.4816,-3.7011,-3.7821,-3.8893,-4.3075,-4.3781,-4.4225,-4.7937,-4.8669,-4.8878,-5.0315,-5.0707,-5.0629,-5.0002,0.0,-5.0786,-5.0786,-5.123,-5.1596,-5.1596,-5.1596,-5.1596,-5.1596,-5.1596,-5.1596,-5.1596,-5.1596,-5.1596,-5.1596,-5.1596,-5.1596,-5.1596,-5.1596,-5.1596,-5.1596,-5.1596,-5.1596,-5.1596,-5.1648,-5.1675,-5.1675,-5.1727,-5.1753,-5.1753,-5.1753,-5.1753,-5.1753,-5.1648,-5.1596,-5.1596,-5.1596,-5.1596,-5.1596,-5.1596,-5.1622,-5.1675,-5.1675,-5.1727,-5.1753,-5.1753,-5.1753,-5.1753,0.0,0.0,-3.7663,-3.7663,0.0,0.0,0.0,0.0,0.0,0.0,0.0,0.0,0.0,0.0,0.0,0.0,0.0,0.0,0.0,-3.9068,-3.9355,-3.9103,-3.8747,-3.8214,-3.7534,-3.7063,-3.675,-3.6645,-3.5129,-3.4476,-3.4607,-3.5626,-3.5887,-3.5495,-3.6175,-3.6358,-3.607,-3.5652,-3.5574,-3.573,-3.573,-3.5495,-3.5103,-3.5103,-3.4816,0.0,0.0,0.0,0.0,0.0,0.0,0.0,-3.445,-3.4397,-3.458,-3.5574,-3.7142,-3.8762,-3.973,-4.2814,-4.595,-4.6813,-4.8956,-5.0603,-4.9662,-5.0159,-5.0629,-5.0002,-5.0368,-5.0786,-5.0786,-5.123,-5.1596,-5.1596,-5.1596,-5.1596,-5.1596,-5.1596,-5.1596,-5.1596,-5.1596,-5.1596,-5.1596,-5.1596,-5.1596,-5.1596,-5.1596,-5.1596,-5.1596,-5.1596,-5.1596,-5.1596,-5.2067,-5.2302,-5.2302,-5.2772,-5.3008,-5.3008,-5.3008,-5.3008,-5.2981,-5.2014,-5.1596,-5.1596,-5.1596,-5.1596,-5.1596,-5.1596,-5.1884,-5.2302,-5.2302,-5.2589,-5.3008,-5.3008,-5.3008,-5.2929,0.0,0.0,0.0,0.0,0.0,0.0,0.0,0.0,0.0,0.0,0.0,0.0,0.0,0.0,0.0,0.0,0.0,0.0,0.0,0.0,-3.9417,-3.8873,-3.8726,-3.8318,-3.7482,-3.7168,-3.6854,-3.6567,-3.5652,-3.5208,-3.5234,-3.6123,-3.6384,-3.6149,-3.6698,-3.6802,-3.6515,-3.6227,-3.6123,-3.6096,-3.6096,-3.594,-3.5678,-3.5678,-3.5495,-3.5208,-3.5208,0.0,0.0,0.0,0.0,0.0,0.0,0.0,-3.4633,-3.5783,-3.6358,-3.7299,-4.0357,-4.2971,-4.5428,-4.7911,0.0,-5.0472,-4.9348,-4.974,-5.0263,-4.9949,-5.0368,-5.0864,-5.1126,-5.1413,-5.1596,-5.1596,-5.1596,-5.1596,-5.1596,-5.1596,-5.1596,-5.1596,-5.1596,-5.1596,-5.1596,-5.1596,-5.1596,-5.1596,-5.1596,-5.1596,-5.1596,-5.1858,-5.2014,-5.2014,-5.2616,-5.2929,-5.2929,-5.3243,-5.34,-5.34,-5.34,-5.34,-5.3373,-5.2746,-5.2459,-5.2459,-5.2459,-5.2459,-5.2459,-5.2459,-5.2642,-5.2929,-5.2929,-5.3112,-5.34,-5.34,-5.34,-5.3347,0.0,0.0,0.0,0.0,0.0,0.0,0.0,0.0,0.0,0.0,0.0,0.0,0.0,0.0,0.0,0.0,0.0,0.0,0.0,0.0,0.0,-3.8636,-3.8773,-3.8423,-3.7482,-3.7351,-3.7063,-3.6541,-3.6462,-3.6462,-3.6567,-3.6854,-3.7011,-3.7011,-3.7534,-3.7534,-3.7168,-3.7037,-3.6776,-3.641,-3.641,-3.6358,-3.6253,-3.6253,-3.6201,-3.6096,-3.6096,-3.5809,-3.5417,-3.5338,0.0,0.0,0.0,0.0,-3.4685,-3.6123,-3.5809,-3.6149,-4.1402,-4.3154,-4.4617,-4.9427,-5.0263,0.0,-4.9087,-4.9505,-5.0028,-4.9897,-5.0446,-5.1073,-5.1518,-5.1596,-5.1596,-5.1596,-5.1596,-5.1596,-5.1596,-5.1596,-5.1596,-5.1596,-5.1596,-5.1596,-5.1596,-5.1596,-5.1596,-5.1596,-5.1701,-5.1753,-5.1753,-5.2328,-5.2642,-5.2642,-5.3217,-5.353,-5.353,-5.3635,-5.3687,-5.3687,-5.3687,-5.3687,-5.3687,-5.3687,-5.3583,-5.34,-5.34,-5.34,-5.34,-5.34,-5.3452,-5.353,-5.353,-5.3609,-5.3687,-5.3687,-5.3687,-5.3687,0.0,0.0,0.0,0.0,0.0,0.0,0.0,0.0,0.0,0.0,-3.9697,-3.9697,0.0,0.0,0.0,0.0,0.0,0.0,-3.9698,0.0,0.0,-3.9446,-3.9494,-3.9416,-3.9259,-3.8736,-3.8449,-3.837,-3.79,-3.79,-3.8344,-3.7429,-3.7011,-3.7011,-3.709,-3.7377,-3.7743,-3.722,-3.7246,-3.7665,-3.7665,-3.7351,-3.6881,-3.6881,-3.6567,-3.6096,-3.6096,-3.6044,-3.5913,-3.5469,-3.5234,0.0,0.0,0.0,-3.445,-3.4685,-3.6018,-3.7612,-3.8475,-4.1925,-4.6029,0.0,-4.9949,-4.961,0.0,0.0,-5.0524,0.0,-5.0734,-5.1518,-5.1596,-5.1596,-5.1596,-5.1596,-5.1596,-5.1596,-5.1596,-5.1596,-5.1596,-5.1596,-5.1596,-5.1596,-5.1596,-5.1596,-5.1596,-5.1596,-5.2067,-5.238,-5.238,-5.2955,-5.3269,-5.3269,-5.3818,-5.4105,-5.4105,-5.4602,-5.4863,-5.4863,-5.4863,-5.4863,-5.4863,-5.4863,-5.4341,-5.34,-5.34,-5.34,-5.34,-5.34,-5.3661,-5.4105,-5.4105,-5.4419,-5.4863,-5.4863,-5.4863,-5.4811,0.0,0.0,0.0,0.0,0.0,0.0,0.0,0.0,0.0,0.0,0.0,-3.9697,0.0,0.0,0.0,-3.9449,-3.9599,-3.9488,-3.8991,-3.8803,-3.8592,-3.8209,-3.8517,-3.8564,-3.8444,-3.8303,-3.8266,-3.8266,-3.8031,-3.8187,-3.871,-3.8187,-3.7952,-3.7952,-3.7952,-3.7926,-3.7874,-3.7612,-3.7665,-3.7926,-3.824,-3.8579,-3.8893,-3.8579,-3.8475,-3.8449,-3.7795,-3.7168,-3.6567,-3.6332,-3.6018,-3.5652,-3.5077,0.0,0.0,0.0,-3.5365,-3.7142,-4.0383,-4.3624,-4.6708,0.0,-4.9662,-4.9218,-4.8381,-4.927,-5.0211,-4.9949,-5.0812,-5.1596,-5.1596,-5.1596,-5.1596,-5.1596,-5.1596,-5.1596,-5.1596,-5.1596,-5.1596,-5.1596,-5.1596,-5.1596,-5.1596,-5.1596,-5.1727,-5.2067,-5.2354,-5.2642,-5.2981,-5.353,-5.3844,-5.3844,-5.4419,-5.4707,-5.4707,-5.4968,-5.5099,-5.5099,-5.5099,-5.5099,-5.5099,-5.5099,-5.4837,-5.4341,-5.4341,-5.4341,-5.4341,-5.4341,-5.4497,-5.4707,-5.4707,-5.4863,-5.5099,-5.5099,-5.5099,-5.5072,0.0,0.0,0.0,0.0,0.0,0.0,0.0,0.0,0.0,0.0,0.0,0.0,0.0,0.0,0.0,0.0,-3.9241,-3.8994,-3.8157,-3.8173,-3.7945,-3.7227,-3.767,-3.7808,-3.7598,-3.7808,-3.79,-3.79,-3.79,-3.8187,-3.871,-3.871,-3.871,-3.871,-3.871,-3.8397,-3.79,-3.79,-3.79,-3.7978,-3.8815,-3.9651,-4.0409,-4.0461,-4.0723,-4.0932,-3.9782,-3.8736,-3.7795,-3.7377,-3.6828,-3.6227,-3.5678,-3.5495,0.0,0.0,0.0,-3.6567,-4.1455,0.0,-4.5584,-4.8329,-4.8616,-4.8198,0.0,0.0,-4.9688,0.0,-5.0603,-5.1387,-5.1387,-5.1518,-5.1596,-5.1596,-5.1596,-5.1596,-5.1596,-5.1596,-5.1596,-5.1596,-5.1596,-5.1596,-5.1596,-5.1727,-5.2014,-5.2459,-5.2772,-5.3138,-5.3583,-5.4131,-5.4419,-5.4419,-5.4863,-5.5099,-5.5099,-5.5099,-5.5099,-5.5099,-5.5099,-5.5099,-5.5099,-5.5099,-5.5099,-5.5099,-5.5099,-5.5099,-5.5099,-5.5099,-5.5099,-5.5099,-5.5099,-5.5099,-5.5099,-5.5099,-5.5099,-5.5099,0.0,0.0,0.0,0.0,0.0,0.0,0.0,0.0,0.0,0.0,0.0,0.0,-3.9647,-3.8743,-3.8416,-3.9196,-3.8356,-3.7562,-3.7185,-3.765,-3.7788,-3.7505,-3.7762,0.0,-3.7854,-3.79,-3.79,-3.79,-3.79,-3.8187,-3.871,-3.871,-3.871,-3.871,-3.871,-3.8397,-3.79,-3.79,-3.79,-3.8057,-3.9677,-4.0357,-4.0592,-4.2213,-4.2866,-4.2735,-4.1585,-4.0775,-3.9991,-3.8397,0.0,0.0,0.0,0.0,-3.594,0.0,0.0,0.0,0.0,-4.0278,0.0,-4.5663,-4.6238,-4.6212,0.0,0.0,-4.9139,-4.9139,-5.0028,-5.0838,-5.0838,-5.1256,-5.1596,-5.1596,-5.1596,-5.1596,-5.1596,-5.1596,-5.1596,-5.1596,-5.1596,-5.1596,-5.1596,-5.2119,-5.2459,-5.2485,-5.3504,-5.4131,-5.4158,-5.4733,-5.5046,-5.5046,-5.5072,-5.5099,-5.5099,-5.5099,-5.5099,-5.5099,-5.5099,-5.5099,-5.5099,-5.5099,-5.5099,-5.5099,-5.5099,-5.5099,-5.5099,-5.5099,-5.5099,-5.5099,-5.5099,-5.5099,-5.5099,-5.5099,-5.5099,-5.5099,0.0,0.0,0.0,0.0,0.0,0.0,0.0,0.0,0.0,0.0,0.0,0.0,0.0,-3.8793,-3.8391,-3.7986,-3.7255,-3.6915,-3.7087,-3.7273,-3.7366,-3.7248,-3.767,-3.7808,-3.767,-3.7808,-3.79,-3.79,-3.79,-3.8187,-3.871,-3.871,-3.871,-3.871,-3.871,-3.8397,-3.79,-3.79,-3.79,-3.8083,-4.0148,-4.1428,-4.2108,-4.2369,-4.3624,-4.4931,-4.2683,0.0,0.0,0.0,0.0,0.0,0.0,0.0,0.0,0.0,0.0,0.0,0.0,0.0,0.0,-4.4068,-4.5218,-4.5872,-4.6865,-4.812,-4.9191,-4.9531,-5.0237,-5.0786,-5.0786,-5.123,-5.1596,-5.1596,-5.1596,-5.1596,-5.1596,-5.1596,-5.1596,-5.1596,-5.1596,-5.1753,-5.2145,-5.238,-5.2798,-5.353,-5.3975,-5.4367,-5.4759,-5.4994,-5.5099,-5.5099,-5.5099,-5.5099,-5.5099,-5.5099,-5.5099,-5.5099,-5.5099,-5.5099,-5.5099,-5.5099,-5.5099,-5.5099,-5.5099,-5.5099,-5.5099,-5.5099,-5.5099,-5.5099,-5.5099,-5.5099,-5.5099,-5.5099,-5.5099,-5.5099,0.0,0.0,0.0,-3.9025,0.0,-3.9258,-3.9645,-3.9697,-3.9697,-3.9697,0.0,0.0,0.0,0.0,-3.7762,-3.7104,-3.6701,-3.6687,-3.7062,-3.7155,-3.7201,-3.7201,-3.7644,-3.7808,-3.767,-3.7599,-3.7795,-3.8161,-3.7795,-3.7978,-3.871,-3.8527,-3.8449,-3.8449,-3.8449,-3.824,-3.79,-3.79,-3.79,-3.8161,-4.101,-4.216,-4.2291,-4.3676,-4.4774,-4.5428,0.0,0.0,0.0,0.0,0.0,0.0,0.0,0.0,0.0,0.0,0.0,0.0,-3.9337,0.0,0.0,0.0,-4.3441,-4.4591,-4.6133,0.0,-4.8486,-4.9427,-4.9949,-5.0263,-5.0446,-5.0943,-5.1387,-5.157,-5.1596,-5.1596,-5.1596,-5.1596,-5.1596,-5.1596,-5.1779,-5.2067,-5.2459,-5.2851,-5.3373,-5.4158,-5.4393,0.0,-5.5072,-5.5099,-5.5099,-5.5099,-5.5099,-5.5099,-5.5099,-5.5099,-5.5099,-5.5099,-5.5099,-5.5099,-5.5099,-5.5099,-5.5099,-5.5099,-5.5099,-5.5099,-5.5099,-5.5099,-5.5099,-5.5099,-5.5099,-5.5099,-5.5099,-5.5099,-5.5099,-5.5099,-3.7873,-3.7049,-3.6619,-3.7791,-3.795,-3.8319,-3.9517,-3.9672,-3.9672,-3.9672,0.0,0.0,0.0,0.0,0.0,-3.6662,-3.6734,-3.6854,-3.7087,-3.7392,-3.7557,-3.7531,-3.7788,-3.7926,-3.79,-3.7325,-3.7586,-3.871,-3.7586,-3.7612,-3.871,-3.8161,-3.7926,-3.79,-3.79,-3.79,-3.79,-3.79,-3.7926,-3.8266,-4.2265,-4.2526,-4.1115,-4.6212,-4.6447,0.0,-4.595,-4.5794,0.0,-4.4826,0.0,0.0,0.0,0.0,0.0,0.0,0.0,0.0,0.0,0.0,0.0,0.0,0.0,0.0,-4.5584,0.0,-4.697,-4.8669,-4.9087,-4.927,-4.9766,-5.0368,-5.0943,-5.1492,-5.1596,-5.1596,-5.1596,-5.1596,-5.1596,-5.1596,-5.2119,-5.2511,-5.2511,-5.353,-5.421,-5.4236,-5.4759,-5.5099,-5.5099,-5.5099,-5.5099,-5.5099,-5.5099,-5.5099,-5.5099,-5.5099,-5.5099,-5.5099,-5.5099,-5.5099,-5.5099,-5.5099,-5.5099,-5.5099,-5.5099,-5.5099,-5.5099,-5.5099,-5.5099,-5.5099,-5.5099,-5.5099,-5.5099,-5.5099,-5.5099,-5.5099,-3.7449,-3.8129,-3.8816,-3.9154,-3.9206,-3.931,-3.9645,-3.9346,-3.9094,0.0,0.0,0.0,-3.7688,-3.6933,-3.6405,-3.6499,-3.702,-3.7391,-3.7438,-3.8251,-3.8445,-3.7869,-3.8267,-3.8199,-3.7624,-3.7652,-3.8004,-3.871,-3.8397,-3.8397,-3.871,-3.8553,-3.8266,-3.79,-3.79,-3.79,-3.79,-3.79,-3.8135,-3.8815,-4.2422,-4.3729,-4.3833,-4.6552,0.0,0.0,0.0,-4.7257,-4.6682,0.0,-4.4722,-4.1272,0.0,0.0,0.0,0.0,0.0,0.0,-3.7665,0.0,0.0,0.0,0.0,0.0,-4.2944,-4.4983,-4.6734,-4.7623,-4.8799,-4.9584,-4.9348,-4.9766,-5.0342,-5.0917,-5.1335,-5.1596,-5.1596,-5.1596,-5.1596,-5.1596,-5.2119,-5.2668,-5.3112,-5.3792,-5.4393,0.0,-5.502,-5.5099,-5.5099,-5.5099,-5.5099,-5.5099,-5.5099,-5.5099,-5.5099,-5.5099,-5.5099,-5.5099,-5.5099,-5.5099,-5.5099,-5.5099,-5.5099,-5.5099,-5.5099,-5.5099,-5.5099,-5.5099,-5.5099,-5.5099,-5.5099,-5.5099,-5.5099,-5.5099,-5.5099,-5.5099,-3.5626,-3.6279,-3.7016,-3.7536,-3.7782,-3.8139,-3.8867,-3.8488,-3.8237,0.0,0.0,0.0,-3.691,-3.6807,-3.6656,-3.643,-3.7003,-3.7523,-3.7741,-3.8444,-3.8714,-3.8338,-3.8428,-3.8262,-3.767,-3.7573,-3.7926,-3.871,-3.824,-3.824,-3.871,-3.8475,-3.8214,-3.79,-3.79,-3.8031,-3.824,-3.824,-3.8423,-3.905,-4.3023,-4.4225,-4.4016,-4.7179,-4.8486,0.0,0.0,0.0,-4.8198,-4.9008,-4.6133,0.0,0.0,0.0,0.0,0.0,0.0,0.0,0.0,0.0,0.0,0.0,0.0,0.0,-4.2762,-4.4748,-4.663,0.0,-4.9374,-4.9793,-4.9479,-4.9688,-5.0002,-5.0368,-5.0681,-5.1047,-5.1518,-5.1596,-5.1596,-5.1596,-5.2354,-5.3008,-5.3373,-5.4105,-5.4733,-5.5072,-5.5099,-5.5099,-5.5099,-5.5099,-5.5099,-5.5099,-5.5099,-5.5099,-5.5099,-5.5099,-5.5099,-5.5099,-5.5099,-5.5099,-5.5125,-5.5334,-5.5438,-5.5465,-5.57,-5.5804,-5.5804,-5.5804,-5.5543,-5.5099,-5.5099,-5.5099,-5.5099,-5.5099,-5.5099,-5.5099,0.0,-3.3068,-3.3462,-3.467,-3.5317,-3.6185,-3.7867,-3.7586,-3.7453,0.0,-3.7613,-3.7086,-3.6656,-3.6935,-3.6985,-3.6531,-3.7008,-3.7528,-3.8082,-3.8452,-3.8723,-3.8747,-3.8532,-3.8246,-3.7854,-3.7377,-3.7639,-3.871,-3.7691,-3.7717,-3.871,-3.8214,-3.8004,-3.8004,-3.8004,-3.8292,-3.8815,-3.8867,-3.9024,-3.9547,-4.3755,-4.4304,-4.3232,0.0,-4.8381,-4.663,-4.9165,-4.9688,-4.9296,-5.0054,-4.7989,0.0,0.0,0.0,0.0,0.0,-3.824,0.0,0.0,0.0,0.0,0.0,0.0,0.0,-4.3363,-4.4617,-4.6029,-4.9191,-4.9557,-4.9322,-4.9322,-4.927,-4.927,-4.9401,-4.9479,-4.9976,-5.1309,-5.1518,-5.1518,-5.1596,-5.2668,-5.34,-5.34,-5.4419,-5.5099,-5.5099,-5.5099,-5.5099,-5.5099,-5.5099,-5.5099,-5.5099,-5.5099,-5.5099,-5.5099,-5.5099,-5.5125,-5.5203,-5.5203,-5.5229,-5.5308,-5.5778,-5.6013,-5.604,-5.6588,-5.6798,-5.6798,-5.6798,-5.6196,-5.5282,-5.5282,-5.5282,-5.5282,-5.5282,-5.5255,-5.5203,-3.2595,-3.3563,-3.4774,-3.588,-3.6538,-3.7339,-3.8567,-3.8191,-3.8042,-3.8642,-3.8191,-3.7814,-3.7688,-3.7387,-3.7136,-3.7036,-3.7733,-3.8305,-3.862,-3.9743,-3.9995,-3.9106,-3.9225,-3.8804,-3.7577,-3.7678,-3.8057,-3.871,-3.8475,-3.8501,-3.871,-3.8606,-3.8553,-3.8553,-3.8553,-3.8893,-3.9468,-3.9886,-4.0906,-4.2291,-4.3676,-4.4774,-4.595,-4.8799,-5.0106,-5.0498,-5.1073,-5.0603,-4.9479,-4.7858,-4.7414,-4.6944,0.0,0.0,0.0,-4.0122,0.0,0.0,0.0,0.0,0.0,0.0,0.0,0.0,-3.9625,-4.1063,-4.2474,0.0,-4.4853,-4.5741,-4.5741,-4.5349,-4.5349,-4.6316,-4.6839,-4.8041,-5.0603,-5.0943,-5.1126,-5.1544,-5.2668,-5.34,-5.34,-5.4419,-5.5099,-5.5099,-5.5099,-5.5099,-5.5099,-5.5099,-5.5099,-5.5099,-5.5099,-5.5099,-5.5099,-5.5099,-5.5308,-5.5752,-5.5752,-5.6013,-5.6484,-5.6588,-5.6641,-5.6641,-5.6745,-5.6798,-5.6798,-5.6798,-5.6667,-5.6484,-5.6484,-5.6484,-5.6484,-5.6484,-5.617,-5.5752,-3.2193,-3.309,-3.419,-3.4718,-3.5243,-3.5884,-3.675,-3.68,-3.6874,-3.7219,-3.7942,-3.8442,-3.8442,-3.8191,-3.7964,-3.7834,-3.8412,-3.9038,-3.9406,-4.0205,-4.0408,-3.9849,-3.9537,-3.899,-3.8132,-3.7938,-3.8031,-3.8318,-3.8318,-3.8449,-3.871,-3.871,-3.9337,-4.0383,-3.9547,-3.9965,-4.1272,-4.0671,-4.1089,-4.2343,-4.4356,-4.6369,-4.8407,-5.042,-5.1727,-5.2485,-5.2485,-5.2119,-5.1465,-5.0315,-4.8956,0.0,0.0,-4.4826,-4.3493,0.0,-4.1531,-4.1716,0.0,0.0,0.0,-3.8815,0.0,0.0,0.0,-4.1768,-4.2918,-4.4068,-4.4774,-4.5033,0.0,0.0,-4.3964,-4.4278,-4.5297,-4.6369,-4.7231,-4.9348,-5.089,-5.1178,-5.2485,-5.34,-5.34,-5.4419,-5.5099,-5.5099,-5.5099,-5.5099,-5.5099,-5.5099,-5.5099,-5.5099,-5.5099,-5.5099,-5.5099,-5.536,-5.5647,-5.5909,-5.6223,-5.651,-5.6824,-5.7111,-5.7242,-5.7242,-5.7529,-5.766,-5.766,-5.766,-5.766,-5.7608,-5.7033,-5.6798,-5.6798,-5.6798,-5.6615,-5.6353,-3.1761,-3.1993,-3.265,-3.2851,-3.3462,-3.4124,-3.4845,-3.5549,-3.601,-3.6207,-3.8189,-3.9599,-3.9599,-3.9852,-3.993,-3.9677,-4.0084,-4.0466,-4.0609,-4.0874,-4.1027,-4.0908,-3.9979,-3.9433,-3.939,-3.8632,-3.8161,-3.8057,-3.8161,-3.8397,-3.871,-3.8841,-3.9939,-4.1845,-4.0723,-4.1167,-4.2631,-4.1664,-4.1716,-4.2735,-4.5637,-4.7649,-4.9113,-5.11,-5.2276,-5.2929,-5.3269,-5.34,-5.3347,-5.3008,-5.0707,-4.8041,-4.8198,-4.6525,0.0,0.0,0.0,0.0,0.0,0.0,0.0,0.0,0.0,-4.0618,0.0,0.0,0.0,0.0,0.0,0.0,0.0,0.0,0.0,0.0,0.0,0.0,0.0,0.0,0.0,-4.9766,-5.1727,-5.3008,-5.2903,-5.3922,-5.4733,-5.5072,-5.4785,-5.4759,-5.5072,-5.5099,-5.5099,-5.5099,-5.5099,-5.5151,-5.5255,-5.57,-5.6013,-5.6249,-5.6745,-5.7033,-5.7137,-5.7608,-5.7817,-5.7843,-5.8314,-5.8523,-5.8523,-5.8523,-5.8523,-5.8418,-5.7503,-5.7137,-5.7137,-5.7137,-5.7059,-5.6981,-3.0747,-3.0308,-3.0651,-3.1637,-3.3005,-3.4342,-3.5324,-3.6751,-3.7892,-3.8442,-4.0711,-4.2268,-4.2268,-4.3351,-4.4079,-4.4083,-4.4134,-4.3653,-4.2475,-4.2863,-4.3021,-4.271,-4.1143,-4.0726,-4.1793,-4.0226,-3.9155,-3.8632,-3.9155,-3.9181,-3.871,-3.9259,-3.9913,-4.0671,-4.203,-4.2213,-4.1638,-4.3493,-4.5192,-4.6734,-4.7623,-4.6917,0.0,-4.8433,-5.0159,-5.1282,-5.2851,-5.34,-5.3164,0.0,-5.0786,-4.9793,0.0,-4.7388,-4.8799,0.0,0.0,0.0,0.0,0.0,0.0,0.0,-3.9651,0.0,0.0,0.0,-4.0278,-4.0958,0.0,0.0,0.0,0.0,0.0,0.0,0.0,0.0,0.0,0.0,0.0,-4.6081,-4.9505,-5.1622,-5.1126,-5.2119,-5.3426,-5.4994,-5.3661,-5.3478,-5.502,-5.5099,-5.5099,-5.5099,-5.5099,-5.5334,-5.5804,-5.5883,-5.6432,-5.7547,-5.7599,-5.7843,-5.8314,-5.8392,-5.8418,-5.8418,-5.8497,-5.8523,-5.8523,-5.8523,-5.8523,-5.8497,-5.8366,-5.8314,-5.8314,-5.8314,-5.8,-5.7625,-3.2361,-3.2281,-3.2619,-3.3715,-3.422,-3.4516,-3.4621,-3.6149,-3.7816,-3.9193,-4.0844,-4.1917,-4.1872,-4.2455,0.0,0.0,0.0,-4.4209,0.0,0.0,-4.3231,-4.2082,-4.0984,-4.0644,-4.1141,-4.0148,-3.9494,-3.9233,-3.9494,-3.9651,-3.9703,-3.9965,-4.0906,-4.2448,-4.318,-4.399,-4.4879,-4.5846,-4.629,-4.6417,0.0,-4.7728,0.0,-5.0577,-5.2772,-5.3896,-5.4994,-5.536,-5.5255,0.0,-5.272,0.0,0.0,0.0,0.0,0.0,0.0,0.0,0.0,0.0,0.0,0.0,0.0,0.0,-4.0827,0.0,-4.0671,0.0,0.0,0.0,0.0,0.0,0.0,0.0,-4.0566,0.0,0.0,0.0,0.0,0.0,0.0,0.0,-5.1073,-5.2616,-5.3949,-5.502,-5.4105,-5.3949,-5.5046,-5.5099,-5.5099,-5.5099,-5.5099,-5.536,-5.5909,-5.6249,-5.685,-5.773,-5.8,-5.8287,-5.8523,-5.8523,-5.8523,-5.8523,-5.8523,-5.8523,-5.8523,-5.8523,-5.8523,-5.8523,-5.8523,-5.8523,-5.8523,-5.8523,-5.8366,-5.8157,-3.3458,-3.3588,-3.3652,-3.4139,-3.4688,-3.5084,-3.525,-3.6237,-3.7681,-3.9544,-4.1052,-4.1952,-4.1907,-4.2874,0.0,0.0,-4.5892,-4.6013,0.0,0.0,-4.4251,0.0,0.0,0.0,0.0,-4.0749,-3.9991,-3.9834,-3.9991,-4.02,-4.0409,-4.0592,-4.1559,-4.3206,-4.3833,-4.5062,-4.6626,0.0,-4.7597,-4.744,-4.9453,-5.0132,-5.0237,-5.3112,-5.502,-5.6223,-5.6641,-5.6798,-5.6745,-5.6249,-5.4158,0.0,-5.3452,0.0,0.0,0.0,0.0,0.0,-4.3833,0.0,0.0,0.0,0.0,0.0,0.0,0.0,0.0,0.0,0.0,0.0,0.0,0.0,0.0,0.0,0.0,-4.0671,0.0,0.0,0.0,0.0,0.0,0.0,0.0,-5.1962,-5.3243,-5.4314,-5.3818,-5.3949,-5.5046,-5.5099,-5.5099,-5.5099,-5.5255,-5.5595,-5.6144,-5.6745,-5.732,-5.7895,-5.8314,-5.8523,-5.8523,-5.8523,-5.8523,-5.8523,-5.8523,-5.8523,-5.8523,-5.8523,-5.8523,-5.8523,-5.8523,-5.8523,-5.8523,-5.8523,-5.8523,-5.8523,-3.2899,-3.274,-3.2066,-3.1051,-3.3475,-3.6305,-3.8441,-3.8032,-3.8126,-3.9828,-4.2057,-4.3407,0.0,0.0,0.0,0.0,0.0,-5.0681,-4.9035,0.0,-4.7127,0.0,0.0,-4.2866,0.0,0.0,-4.0984,-4.0383,-4.0984,-4.0984,-4.0435,-4.101,-4.1324,-4.1507,-4.3755,-4.4774,-4.4955,-4.7832,-4.9949,-5.1518,-5.2746,-5.455,-5.6327,0.0,-5.5282,-5.6771,-5.6798,0.0,0.0,-5.4863,-5.421,0.0,0.0,0.0,0.0,0.0,0.0,0.0,0.0,0.0,0.0,-4.3389,0.0,0.0,0.0,0.0,-4.1324,0.0,0.0,0.0,0.0,0.0,0.0,0.0,0.0,0.0,0.0,0.0,0.0,0.0,0.0,0.0,0.0,-4.8878,-5.0185,-5.2406,-5.2014,-5.2694,-5.4968,-5.5099,-5.5099,-5.5099,-5.5621,-5.617,-5.6771,-5.7346,-5.7921,-5.8497,-5.8497,-5.8523,-5.8523,-5.8523,-5.8523,-5.8523,-5.8523,-5.8523,-5.8523,-5.8523,-5.8523,-5.8523,-5.8523,-5.8523,-5.8523,-5.8523,-5.8523,-5.8523,-3.1885,-3.2362,-3.2818,-3.3293,-3.4625,-3.6329,-3.8542,-3.9061,-3.978,-4.1552,-4.3325,-4.4762,0.0,-4.749,-4.9053,0.0,0.0,-5.1204,-5.0289,-4.859,0.0,0.0,0.0,-4.2788,0.0,0.0,0.0,0.0,-4.1219,-4.1219,-4.1036,-4.1611,-4.1873,-4.1977,-4.4304,-4.6186,0.0,0.0,0.0,0.0,0.0,-5.5203,-5.6223,0.0,-5.685,-5.7425,-5.7791,-5.7948,0.0,-5.7242,-5.6275,-5.5334,-5.5334,-5.4576,-5.3478,-5.2485,-5.2197,-5.1727,0.0,0.0,-4.9479,-4.6604,0.0,0.0,0.0,0.0,0.0,0.0,0.0,0.0,0.0,0.0,0.0,0.0,0.0,0.0,0.0,0.0,0.0,0.0,0.0,0.0,0.0,0.0,0.0,-5.1805,-5.2772,-5.3844,-5.5046,-5.5099,-5.5099,-5.5099,-5.5621,-5.6196,-5.6798,-5.7373,-5.7948,-5.8523,-5.8523,-5.8523,-5.8523,-5.8523,-5.8523,-5.8523,-5.8523,-5.8523,-5.8523,-5.8523,-5.8523,-5.8523,-5.8523,-5.8523,-5.8523,-5.8523,-5.8523,-5.8523,-3.1657,-3.235,-3.3219,-3.399,-3.4917,-3.6411,-3.8943,-3.9665,-4.0689,-4.2994,-4.4315,0.0,-4.7438,0.0,-4.9654,0.0,-5.1758,-5.1831,-5.0864,-4.974,0.0,-4.859,-4.582,0.0,0.0,0.0,0.0,0.0,0.0,-4.1925,-4.1925,-4.2291,-4.2474,-4.2552,-4.4251,-4.663,-4.9453,-5.076,-5.2589,0.0,0.0,-5.6353,0.0,0.0,-5.7712,-5.7451,0.0,-5.8523,-5.8523,-5.8523,-5.7765,-5.6954,-5.7739,-5.6693,-5.5229,-5.5229,-5.4654,-5.3766,-5.2406,-5.2563,0.0,-4.9557,-4.9113,0.0,-4.5297,0.0,0.0,0.0,0.0,0.0,0.0,0.0,0.0,0.0,0.0,0.0,0.0,-4.1324,0.0,0.0,0.0,0.0,0.0,0.0,-4.9557,-5.1753,-5.2589,-5.3609,0.0,-5.5099,-5.5203,-5.5386,-5.5935,-5.651,-5.7111,-5.7686,-5.8157,-5.8523,-5.8523,-5.8523,-5.8523,-5.8523,-5.8523,-5.8523,-5.8523,-5.8523,-5.8523,-5.8523,-5.8523,-5.8523,-5.8523,-5.8523,-5.8523,-5.8523,-5.8523,-5.8523,-3.2148,-3.2781,-3.3316,-3.3391,-3.4676,-3.6696,-3.9699,-4.0017,-4.0993,-4.4071,-4.5259,-4.6552,-4.8277,-4.9976,-5.0969,-5.0995,-5.2537,-5.2772,-5.1126,-5.0917,0.0,0.0,-4.9218,-4.9035,-5.076,0.0,0.0,0.0,0.0,-4.3023,-4.3023,-4.3049,-4.3049,-4.3075,-4.3676,0.0,-4.9976,-5.0577,-5.3164,-5.6902,-5.7477,-5.8,-5.8444,-5.8497,-5.7791,-5.6954,-5.8104,-5.8523,-5.8523,-5.8523,-5.8523,-5.8523,-5.8523,-5.8523,-5.8523,-5.8523,-5.8523,-5.8157,-5.6484,-5.5255,-5.4001,-5.225,-5.0969,0.0,0.0,0.0,-4.7435,0.0,0.0,0.0,0.0,0.0,0.0,0.0,0.0,0.0,0.0,0.0,0.0,0.0,0.0,0.0,0.0,-4.5033,-4.6917,-5.191,-5.1361,-5.204,0.0,-5.4994,-5.5229,-5.5883,-5.6484,-5.7085,-5.773,-5.8235,-5.8523,-5.8523,-5.8523,-5.8523,-5.8523,-5.8523,-5.8523,-5.8523,-5.8523,-5.8523,-5.8523,-5.8523,-5.8523,-5.8523,-5.8523,-5.8523,-5.8523,-5.8523,-5.8523,-5.8523,-3.3936,-3.5375,-3.6673,-3.7264,-3.7694,-3.8666,-4.0771,-4.2417,-4.4307,-4.6564,-4.8387,-5.0289,-5.2433,-5.306,-5.3504,-5.3949,-5.4393,0.0,0.0,0.0,0.0,-5.3295,-5.0446,-4.9453,-5.076,-4.7388,0.0,-4.5581,0.0,0.0,-4.3023,-4.3467,-4.365,-4.3702,0.0,-4.7179,-5.0603,-5.1152,-5.3739,-5.7503,-5.8052,-5.7869,-5.7346,0.0,-5.7791,-5.6954,-5.8104,-5.8523,-5.8523,-5.8523,-5.8523,-5.8523,-5.8523,-5.8523,-5.8523,-5.8523,-5.8523,-5.8418,-5.7974,-5.7634,-5.6981,-5.5229,-5.4288,-5.3191,0.0,0.0,0.0,0.0,0.0,0.0,0.0,0.0,0.0,0.0,0.0,0.0,0.0,0.0,0.0,-4.1324,0.0,0.0,-4.2474,-4.4955,-4.7388,-4.9165,-5.0211,-5.204,-5.4942,0.0,-5.3556,-5.583,-5.6484,-5.7085,-5.773,-5.8235,-5.8523,-5.8523,-5.8523,-5.8523,-5.8523,-5.8523,-5.8523,-5.8523,-5.8523,-5.8523,-5.8523,-5.8523,-5.8523,-5.8523,-5.8523,-5.8523,-5.8523,-5.8523,-5.8523,-5.8523,-3.5502,-3.7183,-3.8871,-3.9923,-4.0936,-4.1831,-4.2598,-4.3538,-4.5236,-4.799,-4.9576,0.0,-5.3609,-5.4497,-5.5203,-5.5804,-5.5857,0.0,-5.4759,0.0,0.0,-5.387,-5.2694,-5.225,-5.2668,-5.0028,0.0,-4.7492,0.0,0.0,-4.3781,-4.4095,-4.4251,-4.4278,0.0,-4.7022,-5.0211,-5.2511,-5.4968,-5.7373,-5.8183,-5.8131,0.0,-5.8549,-5.8497,-5.8052,-5.8941,-5.9098,-5.8915,-5.9176,-5.9255,-5.9255,-5.9255,-5.9255,-5.9255,-5.9255,-5.9255,-5.9202,-5.8967,-5.8889,-5.8601,-5.7346,-5.6824,-5.604,-5.3949,-5.3243,-5.2929,0.0,-5.1727,-5.1126,0.0,0.0,0.0,0.0,0.0,0.0,0.0,0.0,0.0,0.0,-4.216,0.0,-4.1036,-4.4591,-4.731,-4.812,-4.9087,-5.0472,0.0,0.0,-5.3243,-5.5099,-5.6484,-5.7451,-5.8026,-5.834,-5.8523,-5.8523,-5.8523,-5.8523,-5.8523,-5.8523,-5.8523,-5.8523,-5.8523,-5.8523,-5.8523,-5.8523,-5.8523,-5.8523,-5.8523,-5.8523,-5.8523,-5.8523,-5.8523,-5.8523,-3.7263,-3.8703,-4.037,-4.1802,-4.3929,-4.5304,-4.5067,-4.473,-4.5775,-4.9244,0.0,-5.1492,-5.3609,-5.5151,-5.6249,-5.6771,0.0,-5.617,-5.4654,-5.5961,-5.5935,-5.3922,-5.5255,-5.5804,-5.5334,-5.3556,0.0,0.0,0.0,-4.6391,-4.4668,-4.4668,-4.4668,0.0,0.0,0.0,0.0,-5.421,-5.6405,-5.7137,-5.8209,-5.8627,-5.8679,-5.9255,-5.9464,-5.9542,-6.0117,-5.996,-5.9542,-6.0039,-6.0222,-6.0222,-6.0222,-6.0222,-6.0222,-6.0222,-6.0222,-6.0117,-5.962,-5.9464,-5.9359,-5.8862,-5.8679,-5.8235,-5.6693,-5.6301,-5.6249,-5.6249,-5.4654,-5.3975,0.0,0.0,0.0,0.0,0.0,0.0,0.0,0.0,0.0,0.0,0.0,0.0,-4.0514,-4.3885,-4.6552,-4.7545,-4.7623,0.0,0.0,0.0,-5.3347,-5.4497,-5.6562,-5.7921,-5.8497,-5.8523,-5.8523,-5.8523,-5.8523,-5.8523,-5.8523,-5.8523,-5.8523,-5.8523,-5.8523,-5.8523,-5.8523,-5.8523,-5.8523,-5.8523,-5.8523,-5.8523,-5.8523,-5.8523,-5.8523,-5.8523,-4.0589,-4.1156,-4.1827,-4.331,-4.5033,-4.6861,-4.8662,-4.9654,-5.075,-5.2433,-5.3922,-5.5203,-5.6118,-5.6484,-5.6693,-5.6798,-5.6798,0.0,0.0,0.0,0.0,-5.6223,-5.6484,-5.6615,-5.651,-5.4367,-5.238,0.0,-4.8407,-4.6391,-4.4668,-4.4668,0.0,0.0,0.0,0.0,-5.2825,-5.5517,0.0,-5.8261,-5.8941,-5.9202,-5.9281,-5.9856,-6.0065,-6.0143,-6.0744,-6.0588,-6.0091,-6.0195,-6.0222,-6.0222,-6.0222,-6.0222,-6.0222,-6.0222,-6.0222,-6.0195,-6.0091,-6.0065,-6.0039,-5.9934,-5.9568,-5.9124,-5.8836,-5.8392,-5.8052,-5.8052,-5.7739,-5.7163,-5.6249,0.0,0.0,0.0,0.0,0.0,0.0,0.0,0.0,0.0,0.0,0.0,0.0,-4.2788,-4.4462,0.0,0.0,0.0,0.0,0.0,-5.1831,0.0,-5.7216,-5.7921,0.0,0.0,-5.8523,-5.8523,-5.8523,-5.8523,-5.8523,-5.8523,-5.8523,-5.8523,-5.8523,-5.8523,-5.8523,-5.8523,-5.8523,-5.8523,-5.8523,-5.8523,-5.8523,-5.8523,-5.8523,-5.8523,-4.2422,0.0,0.0,0.0,-4.7362,-4.9401,-5.1413,-5.2929,-5.3739,-5.3426,-5.4341,-5.5255,-5.5857,-5.6719,-5.7373,-5.766,-5.7686,-5.7686,-5.7686,-5.7686,-5.7556,-5.7268,-5.7242,0.0,-5.6824,-5.5726,-5.4027,-5.1675,-5.0237,-4.8355,-4.6025,-4.5767,0.0,-4.5715,0.0,-5.0106,0.0,0.0,0.0,-5.8131,-5.9019,-5.9542,-5.9882,-6.0457,-6.0692,-6.0771,-6.1346,-6.1372,-6.1136,-6.1136,-6.1136,-6.1136,-6.1136,-6.1136,-6.1136,-6.1136,-6.1136,-6.1058,-6.0771,-6.0692,-6.0614,-6.03,-6.0013,-5.9803,-5.9803,-5.9594,-5.9307,-5.9019,-5.8967,-5.8235,-5.5935,-5.3609,0.0,0.0,0.0,0.0,0.0,0.0,0.0,0.0,0.0,0.0,0.0,0.0,0.0,0.0,0.0,0.0,0.0,0.0,-5.2093,0.0,0.0,0.0,-5.8523,0.0,-5.8523,-5.8523,-5.8523,-5.8523,-5.8523,-5.8523,-5.8523,-5.8523,-5.8523,-5.8523,-5.8523,-5.8523,-5.8523,-5.8523,-5.8523,-5.8523,-5.8523,-5.8523,-5.8523,-5.8523,-4.4136,-4.482,0.0,0.0,-4.9897,-5.1858,-5.3347,-5.5125,-5.5804,-5.4471,-5.468,-5.5151,-5.5752,-5.7033,-5.8026,-5.847,-5.8523,-5.8523,-5.8523,-5.8523,-5.8314,-5.7869,-5.7843,-5.7634,-5.719,-5.7059,-5.57,0.0,-5.2197,-5.0394,-4.7702,0.0,0.0,0.0,0.0,0.0,0.0,0.0,-5.7399,-5.8201,-5.9281,-6.0013,-6.0483,-6.1084,-6.1293,-6.1346,-6.1816,-6.1973,-6.1973,-6.1973,-6.1973,-6.1973,-6.1973,-6.1973,-6.1973,-6.1973,-6.1973,-6.1868,-6.1424,-6.1293,-6.1189,-6.0718,-6.0509,-6.0405,-6.0405,-6.03,-6.0091,-5.9647,-5.9437,-5.8575,-5.5935,-5.455,0.0,0.0,0.0,0.0,0.0,0.0,0.0,0.0,0.0,0.0,0.0,0.0,0.0,0.0,0.0,0.0,-4.8956,0.0,0.0,0.0,0.0,-5.7895,-5.7791,0.0,-5.8523,-5.8523,-5.8523,-5.8523,-5.8523,-5.8523,-5.8523,-5.8523,-5.8523,-5.8523,-5.8523,-5.8653,-5.8627,-5.8523,-5.8523,-5.8601,-5.8706,-5.8706,-5.8758,-5.8862,0.0,0.0,-4.7806,0.0,0.0,-5.3373,-5.4027,-5.604,-5.7521,-5.7337,-5.7364,-5.7556,-5.8131,-5.834,-5.8444,-5.8497,-5.8523,-5.8523,-5.8523,-5.8523,-5.8497,-5.8444,-5.8444,-5.8418,-5.8366,-5.7843,-5.6693,0.0,-5.3217,-5.1204,0.0,0.0,0.0,0.0,0.0,0.0,0.0,-5.7216,-5.8279,-5.9307,-6.0483,-6.098,-6.1084,-6.1685,-6.1894,-6.1894,-6.1947,-6.1973,-6.1973,-6.1973,-6.1973,-6.1973,-6.1973,-6.1973,-6.1973,-6.1973,-6.1973,-6.1973,-6.1894,-6.1894,-6.1868,-6.1816,-6.1424,-6.1032,-6.1032,-6.0614,-6.0195,-6.0143,-5.9725,-5.881,-5.6981,-5.7373,-5.7399,0.0,0.0,0.0,0.0,0.0,0.0,0.0,0.0,0.0,0.0,-4.6656,0.0,0.0,-4.4539,0.0,0.0,0.0,0.0,-5.421,-5.5491,-5.5909,-5.5412,-5.7477,-5.8523,-5.8523,-5.8523,-5.8523,-5.8523,-5.8523,-5.8523,-5.8523,-5.8523,-5.8523,-5.8549,-5.9072,-5.8967,-5.8523,-5.8523,-5.8836,-5.9281,-5.9281,-5.962,-5.9986,0.0,-4.9401,-5.0132,-5.2433,-5.3426,-5.4419,-5.604,-5.7059,-5.7861,-5.8131,-5.8183,-5.8261,-5.8497,-5.8523,-5.8523,-5.8523,-5.8523,-5.8523,-5.8523,-5.8523,-5.8523,-5.8523,-5.8523,-5.8523,-5.8523,-5.8287,-5.7503,0.0,0.0,0.0,0.0,0.0,0.0,0.0,0.0,-5.5909,-5.7399,-5.8653,-5.9673,-6.0457,-6.0927,-6.1319,-6.1659,-6.1894,-6.1973,-6.1973,-6.1973,-6.1973,-6.1973,-6.1973,-6.1973,-6.1973,-6.1973,-6.1973,-6.1973,-6.1973,-6.1973,-6.1973,-6.1973,-6.1973,-6.1973,-6.1973,-6.179,-6.1633,-6.1633,-6.145,-6.1189,-6.0823,-6.03,-5.9673,-5.8993,-5.8104,-5.7582,-5.7921,0.0,0.0,0.0,0.0,0.0,0.0,0.0,0.0,0.0,0.0,0.0,0.0,0.0,0.0,0.0,0.0,0.0,-5.468,0.0,-5.719,-5.6641,-5.7895,-5.8523,-5.8523,-5.8523,-5.8523,-5.8523,-5.8862,-5.9202,-5.9542,-5.9542,-5.9542,-5.9568,-5.9777,-5.9542,-5.9019,-5.9019,-5.8967,-5.8862,-5.8862,-5.9202,-5.962,-5.1413,-5.1675,-5.2406,-5.4367,-5.4994,-5.5778,-5.7494,-5.7791,-5.8052,-5.847,-5.8523,-5.8523,-5.8523,-5.8523,-5.8523,-5.8523,-5.8523,-5.8523,-5.8523,-5.8523,-5.8523,-5.8523,-5.8523,0.0,-5.8523,-5.8523,-5.8131,-5.732,-5.5726,0.0,0.0,0.0,0.0,0.0,-5.6954,-5.7817,-5.8758,-5.996,-6.0744,-6.1136,-6.1293,-6.1607,-6.1973,-6.1973,-6.1973,-6.1973,-6.1973,-6.1973,-6.1973,-6.1973,-6.1973,-6.1973,-6.1973,-6.1973,-6.1973,-6.1973,-6.1973,-6.1973,-6.1973,-6.1973,-6.1973,-6.1973,-6.1973,-6.1973,-6.1973,-6.1973,-6.1868,-6.145,-6.0901,-6.0483,-6.0483,-5.9019,-5.8209,-5.9411,0.0,0.0,0.0,0.0,0.0,0.0,-5.5072,-5.3478,-5.3034,-4.9949,0.0,0.0,0.0,0.0,0.0,0.0,0.0,0.0,0.0,0.0,-5.6902,-5.7974,-5.8523,-5.8523,-5.8679,-5.8758,-5.8784,-5.9359,-5.983,-6.0222,-6.0405,-6.0378,-6.0248,-6.0405,-6.0143,-5.962,-5.962,-5.9464,-5.9255,-5.9072,-5.9385,-5.9777,-5.3138,-5.3792,-5.4524,-5.5674,-5.685,-5.7704,-5.773,-5.8131,-5.8497,-5.8523,-5.8523,-5.8523,-5.8523,-5.8523,-5.8523,-5.8523,-5.8523,-5.8523,-5.8523,-5.8523,-5.8523,0.0,0.0,-5.8523,-5.8523,-5.8523,-5.8497,-5.8497,0.0,0.0,-5.5857,0.0,-5.6275,-5.847,-5.8497,-5.9464,-6.1084,-6.111,-6.111,-6.1163,-6.1738,-6.1973,-6.1973,-6.1973,-6.1973,-6.1973,-6.1973,-6.1973,-6.1973,-6.1973,-6.1973,-6.1973,-6.1973,-6.1973,-6.1973,-6.1973,-6.1973,-6.1973,-6.1973,-6.1973,-6.1973,-6.1973,-6.1973,-6.1973,-6.1973,-6.1973,-6.1973,-6.1973,-6.1502,-6.111,-6.111,-6.0588,-6.0195,-6.0195,0.0,0.0,0.0,0.0,0.0,0.0,-5.4916,-5.4184,-5.4184,-5.2589,0.0,0.0,0.0,0.0,0.0,0.0,0.0,-5.5072,-5.5647,0.0,-5.5151,-5.7373,-5.8523,-5.8523,-5.9072,-5.9359,-5.9385,-5.996,-6.0222,-6.0248,-6.0849,-6.0771,-6.0274,-6.0849,-6.0744,-6.0222,-6.0222,-6.0561,-6.1006,-6.0431,-6.0588,-6.0927,-5.5046,-5.5569,-5.6223,-5.6981,-5.7399,-5.7791,-5.8183,-5.8392,-5.8523,-5.8523,-5.8523,-5.8523,-5.8523,-5.8523,-5.8523,0.0,-5.8523,-5.8523,0.0,-5.8523,-5.8523,-5.8523,-5.8523,-5.8523,-5.8523,-5.8523,-5.8523,-5.8523,0.0,0.0,0.0,-5.7111,-5.8078,-6.0274,-5.9856,-6.0222,-6.111,-6.111,-6.1346,-6.1711,-6.1894,-6.1973,-6.1973,-6.1973,-6.1973,-6.1973,-6.1973,-6.1973,-6.1973,-6.1973,-6.1973,-6.1973,-6.1973,-6.1973,-6.1973,-6.1973,-6.1973,-6.1973,-6.1973,-6.1973,-6.1973,-6.1973,-6.1973,-6.1973,-6.1973,-6.1973,-6.1973,-6.1973,-6.1842,-6.1685,-6.1685,-6.1215,-6.0823,-6.0823,-6.0326,0.0,0.0,0.0,0.0,0.0,-5.7373,-5.6667,-5.5465,-5.4863,0.0,0.0,0.0,0.0,0.0,0.0,0.0,0.0,-5.6771,0.0,-5.685,-5.834,-5.9098,-5.9098,-5.9673,-6.0169,-6.0561,-6.0744,-6.1058,-6.1424,-6.1607,-6.1581,-6.1424,-6.1633,-6.1372,-6.0823,-6.0823,-6.0692,-6.0483,-6.03,-6.0588,-6.1006,-5.6249,-5.6719,-5.7242,-5.7651,-5.7843,-5.8104,-5.847,-5.8523,-5.8523,-5.8523,-5.8523,-5.8523,-5.8523,-5.8523,0.0,-5.8523,-5.8523,-5.8523,-5.8523,-5.8523,-5.8601,-5.8836,-5.8836,-5.8941,-5.915,-5.915,0.0,-5.915,-5.8444,-5.8444,-5.915,-5.8784,-5.9516,-6.111,-6.0718,-6.0875,-6.145,-6.145,-6.1659,-6.1973,-6.1973,-6.1973,-6.1973,-6.1973,-6.1973,-6.1973,-6.1973,-6.1973,-6.1973,-6.1973,-6.1973,-6.1973,-6.1973,-6.1973,-6.1973,-6.1973,-6.1973,-6.1973,-6.1973,-6.1973,-6.1973,-6.1973,-6.1973,-6.1973,-6.1973,-6.1973,-6.1973,-6.1973,-6.1973,-6.1973,-6.1973,-6.1685,-6.145,-6.145,-6.0953,-6.0561,-6.0561,0.0,0.0,0.0,0.0,0.0,0.0,-5.6249,-5.5987,0.0,0.0,0.0,0.0,0.0,-5.5987,-5.6379,-5.7974,-5.8653,-5.8384,-5.9228,-5.9699,-5.9699,-6.0274,-6.0875,-6.145,-6.145,-6.1633,-6.1973,-6.1973,-6.1973,-6.1973,-6.1973,-6.1764,-6.145,-6.145,-6.1215,-6.0849,-6.064,-6.0797,-6.1032,-5.6876,-5.732,-5.7782,-5.7782,-5.8157,-5.8523,-5.8523,-5.8523,-5.8523,-5.8523,-5.8523,-5.8523,-5.8523,-5.8523,-5.8523,-5.8575,0.0,0.0,-5.8575,-5.8575,-5.8836,-5.9385,-5.9437,-5.9673,-6.0222,-6.0222,-6.0222,-6.0222,-6.0222,-6.0248,-6.0274,-6.0274,-6.0588,-6.1189,-6.1189,-6.1476,-6.1973,-6.1973,-6.1973,-6.1973,-6.1973,-6.1973,-6.1973,-6.1973,-6.1973,-6.1973,-6.1973,-6.1973,-6.1973,-6.1973,-6.1973,-6.1973,-6.1973,-6.1973,-6.1973,-6.1973,-6.1973,-6.1973,-6.1973,-6.1973,-6.1973,-6.1973,-6.1973,-6.1973,-6.1973,-6.1973,-6.1973,-6.1973,-6.1973,-6.1973,-6.1973,-6.1973,-6.1973,-6.1973,-6.1529,-6.1189,-6.1189,0.0,0.0,0.0,0.0,0.0,-5.6981,-5.7007,-5.7425,0.0,0.0,0.0,0.0,0.0,-5.5726,-5.8549,-5.915,-5.9437,-5.9437,-5.9986,-6.03,-6.0352,-6.0901,-6.145,-6.1973,-6.1973,-6.1973,-6.1973,-6.1973,-6.1973,-6.1973,-6.1973,-6.1973,-6.1973,-6.1973,-6.1973,-6.1894,-6.1372,-6.1189,-6.1084,-5.7451,-5.7921,-5.8314,-5.8314,-5.8418,-5.8523,-5.8523,-5.8523,-5.8523,-5.8523,-5.8523,-5.8523,-5.8523,-5.8523,-5.8706,-5.9124,-5.8758,-5.8706,-5.915,-5.9176,-5.9411,-5.9986,-6.0013,-6.0091,-6.0222,-6.0222,-6.0222,-6.0222,-6.0222,-6.0457,-6.0901,-6.0901,-6.1215,-6.1764,-6.1764,-6.1842,-6.1973,-6.1973,-6.1973,-6.1973,-6.1973,-6.1973,-6.1973,-6.1973,-6.1973,-6.1973,-6.1973,-6.1973,-6.1973,-6.1973,-6.1973,-6.1973,-6.1973,-6.1973,-6.1973,-6.1973,-6.1973,-6.1973,-6.1973,-6.1973,-6.1973,-6.1973,-6.1973,-6.1973,-6.1973,-6.1973,-6.1973,-6.1973,-6.1973,-6.1973,-6.1973,-6.1973,-6.1973,-6.1973,-6.1868,-6.1764,-6.1764,-6.1633,0.0,0.0,-6.0013,-5.9725,-5.8261,-5.8889,-5.881,0.0,0.0,-5.8122,-5.8122,-5.7364,-5.7765,-5.9751,-5.996,-6.0013,-6.0013,-6.0614,-6.1136,-6.1555,-6.1711,-6.1842,-6.1973,-6.1973,-6.1973,-6.1973,-6.1973,-6.1973,-6.1973,-6.1973,-6.1973,-6.1973,-6.1973,-6.1973,-6.1947,-6.1816,-6.1764,-6.1738,-5.8052,-5.8314,-5.8523,-5.8523,-5.8523,-5.8523,-5.8523,-5.8523,-5.8523,-5.8523,-5.8523,-5.8523,-5.8523,-5.8758,-5.9019,-5.9333,-5.9072,-5.915,-5.9725,-5.9751,-6.0013,-6.0614,-6.064,-6.0744,-6.1006,-6.1032,-6.1032,-6.1032,-6.1032,-6.1189,-6.1502,-6.1502,-6.1685,-6.1973,-6.1973,-6.1973,-6.1973,-6.1973,-6.1973,-6.1973,-6.1973,-6.1973,-6.1973,-6.1973,-6.1973,-6.1973,-6.1973,-6.1973,-6.1973,-6.1973,-6.1973,-6.1973,-6.1973,-6.1973,-6.1973,-6.1973,-6.1973,-6.1973,-6.1973,-6.1973,-6.1973,-6.1973,-6.1973,-6.1973,-6.1973,-6.1973,-6.1973,-6.1973,-6.1973,-6.1973,-6.1973,-6.1973,-6.1973,-6.1973,-6.1529,-6.1346,-6.1894,-6.1502,-6.1136,-6.1032,-6.1319,-6.1136,-6.0195,-6.0666,-6.0405,-5.8889,-5.9307,0.0,-5.9255,-5.949,-5.9803,-6.0222,-6.0483,-6.064,-6.064,-6.1215,-6.1659,-6.1973,-6.1973,-6.1973,-6.1973,-6.1973,-6.1973,-6.1973,-6.1973,-6.1973,-6.1973,-6.1973,-6.1973,-6.1973,-6.1973,-6.1973,-6.1973,-6.1973,-6.1973,-6.1973,-5.8523,-5.8523,-5.8523,-5.8523,-5.8523,-5.8523,-5.8523,-5.8523,-5.8523,-5.8523,-5.8523,-5.8549,-5.8627,-5.9072,-5.9437,-5.962,-5.962,-5.983,-6.0326,-6.0352,-6.064,-6.1215,-6.1241,-6.1476,-6.1973,-6.1973,-6.1973,-6.1973,-6.1973,-6.1973,-6.1973,-6.1973,-6.1973,-6.1973,-6.1973,-6.1973,-6.1973,-6.1973,-6.1973,-6.1973,-6.1973,-6.1973,-6.1973,-6.1973,-6.1973,-6.1973,-6.1973,-6.1973,-6.1973,-6.1973,-6.1973,-6.1973,-6.1973,-6.1973,-6.1973,-6.1973,-6.1973,-6.1973,-6.1973,-6.1973,-6.1973,-6.1973,-6.1973,-6.1973,-6.1973,-6.1973,-6.1973,-6.1973,-6.1973,-6.1973,-6.1973,-6.1973,-6.1921,-6.1738,-6.1032,-6.0771,-6.1581,0.0,-6.0849,-6.1842,-6.1973,-6.1973,-6.1973,-6.1973,-6.1764,-6.1293,-6.1685,-6.1764,-6.1267,-6.1711,-6.1502,-6.0509,-6.098,-6.1241,-6.1241,-6.1738,-6.1973,-6.1973,-6.1973,-6.1973,-6.1973,-6.1973,-6.1973,-6.1973,-6.1973,-6.1973,-6.1973,-6.1973,-6.1973,-6.1973,-6.1973,-6.1973,-6.1973,-6.1973,-6.1973,-6.1973,-5.8523,-5.8523,-5.8523,-5.8523,-5.8523,-5.8523,-5.8523,-5.8523,-5.8523,-5.8523,-5.8523,-5.8706,-5.9176,-5.9307,-5.9777,-6.0771,-6.0849,-6.0875,-6.098,-6.098,-6.1241,-6.1816,-6.1842,-6.1868,-6.1973,-6.1973,-6.1973,-6.1973,-6.1973,-6.1973,-6.1973,-6.1973,-6.1973,-6.1973,-6.1973,-6.1973,-6.1973,-6.1973,-6.1973,-6.1973,-6.1973,-6.1973,-6.1973,-6.1973,-6.1973,-6.1973,-6.1973,-6.1973,-6.1973,-6.1973,-6.1973,-6.1973,-6.1973,-6.1973,-6.1973,-6.1973,-6.1973,-6.1973,-6.1973,-6.1973,-6.1973,-6.1973,-6.1973,-6.1973,-6.1973,-6.1973,-6.1973,-6.1973,-6.1973,-6.1973,-6.1973,-6.1973,-6.1659,-6.0666,-6.1163,-6.1424,-6.0614,0.0,-6.1764,-6.1947,-6.1973,-6.1973,-6.1973,-6.1973,-6.1921,-6.1842,-6.1921,-6.1921,-6.1842,-6.1921,-6.1894,-6.1711,-6.179,-6.1842,-6.1842,-6.1921,-6.1973,-6.1973,-6.1973,-6.1973,-6.1973,-6.1973,-6.1973,-6.1973,-6.1973,-6.1973,-6.1973,-6.1973,-6.1973,-6.1973,-6.1973,-6.1973,-6.1973,-6.1973,-6.1973,-6.1973,-5.8523,-5.8523,-5.8523,-5.8523,-5.8523,-5.8523,-5.8523,-5.8523,-5.8523,-5.8523,-5.8784,-5.9072,-5.9333,-5.9934,-6.0535,-6.1084,-6.1398,-6.1581,-6.1581,-6.1581,-6.1685,-6.1973,-6.1973,-6.1973,-6.1973,-6.1973,-6.1973,-6.1973,-6.1973,-6.1973,-6.1973,-6.1973,-6.1973,-6.1973,-6.1973,-6.1973,-6.1973,-6.1973,-6.1973,-6.1973,-6.1973,-6.1973,-6.1973,-6.1973,-6.1973,-6.1973,-6.1973,-6.1973,-6.1973,-6.1973,-6.1973,-6.1973,-6.1973,-6.1973,-6.1973,-6.1973,-6.1973,-6.1973,-6.1973,-6.1973,-6.1973,-6.1973,-6.1973,-6.1973,-6.1973,-6.1973,-6.1973,-6.1973,-6.1973,-6.1973,-6.1973,-6.1973,-6.179,-6.1241,-6.1084,-6.1058,-6.1163,-6.1084,-6.1267,-6.1894,-6.1973,-6.1973,-6.1973,-6.1973,-6.1973,-6.1973,-6.1973,-6.1973,-6.1973,-6.1973,-6.1973,-6.1973,-6.1973,-6.1973,-6.1973,-6.1973,-6.1973,-6.1973,-6.1973,-6.1973,-6.1973,-6.1973,-6.1973,-6.1973,-6.1973,-6.1973,-6.1973,-6.1973,-6.1973,-6.1973,-6.1973,-6.1973,-6.1973,-6.1973,-6.1973,-6.1973,-5.8523,-5.8523,-5.8523,-5.8523,-5.8523,-5.8523,-5.8523,-5.8523,-5.8549,-5.8706,-5.9098,-5.9464,-5.9751,-6.0588,-6.1189,-6.1319,-6.1711,-6.1973,-6.1973,-6.1973,-6.1973,-6.1973,-6.1973,-6.1973,-6.1973,-6.1973,-6.1973,-6.1973,-6.1973,-6.1973,-6.1973,-6.1973,-6.1973,-6.1973,-6.1973,-6.1973,-6.1973,-6.1973,-6.1973,-6.1973,-6.1973,-6.1973,-6.1973,-6.1973,-6.1973,-6.1973,-6.1973,-6.1973,-6.1973,-6.1973,-6.1973,-6.1973,-6.1973,-6.1973,-6.1973,-6.1973,-6.1973,-6.1973,-6.1973,-6.1973,-6.1973,-6.1973,-6.1973,-6.1973,-6.1973,-6.1973,-6.1973,-6.1973,-6.1973,-6.1973,-6.1973,-6.1973,-6.1868,-6.1607,0.0,-6.0849,-6.1476,-6.1032,-6.0953,-6.1868,-6.1973,-6.1973,-6.1973,-6.1973,-6.1973,-6.1973,-6.1973,-6.1973,-6.1973,-6.1973,-6.1973,-6.1973,-6.1973,-6.1973,-6.1973,-6.1973,-6.1973,-6.1973,-6.1973,-6.1973,-6.1973,-6.1973,-6.1973,-6.1973,-6.1973,-6.1973,-6.1973,-6.1973,-6.1973,-6.1973,-6.1973,-6.1973,-6.1973,-6.1973,-6.1973,-6.1973,-5.8523,-5.8523,-5.8523,-5.8523,-5.8523,-5.8523,-5.8523,-5.8523,-5.8706,-5.9228,-5.9333,-5.9777,-6.0875,-6.1058,-6.1346,-6.1868,-6.1947,-6.1973,-6.1973,-6.1973,-6.1973,-6.1973,-6.1973,-6.1973,-6.1973,-6.1973,-6.1973,-6.1973,-6.1973,-6.1973,-6.1973,-6.1973,-6.1973,-6.1973,-6.1973,-6.1973,-6.1973,-6.1973,-6.1973,-6.1973,-6.1973,-6.1973,-6.1973,-6.1973,-6.1973,-6.1973,-6.1973,-6.1973,-6.1973,-6.1973,-6.1973,-6.1973,-6.1973,-6.1973,-6.1973,-6.1973,-6.1973,-6.1973,-6.1973,-6.1973,-6.1973,-6.1973,-6.1973,-6.1973,-6.1973,-6.1973,-6.1973,-6.1973,-6.1973,-6.1973,-6.1973,-6.1973,-6.1607,-6.0535,0.0,0.0,-6.0483,-6.1215,-6.1868,-6.1973,-6.1973,-6.1973,-6.1973,-6.1973,-6.1973,-6.1973,-6.1973,-6.1973,-6.1973,-6.1973,-6.1973,-6.1973,-6.1973,-6.1973,-6.1973,-6.1973,-6.1973,-6.1973,-6.1973,-6.1973,-6.1973,-6.1973,-6.1973,-6.1973,-6.1973,-6.1973,-6.1973,-6.1973,-6.1973,-6.1973,-6.1973,-6.1973,-6.1973,-6.1973,-6.1973,-6.1973,-5.8523,-5.8523,-5.8523,-5.8523,-5.8523,-5.8523,-5.8523,-5.8523,-5.8732,-5.9281,-5.9673,-6.0195,-6.1032,-6.1424,-6.1738,-6.1947,-6.1973,-6.1973,-6.1973,-6.1973,-6.1973,-6.1973,-6.1973,-6.1973,-6.1973,-6.1973,-6.1973,-6.1973,-6.1973,-6.1973,-6.1973,-6.1973,-6.1973,-6.1973,-6.1973,-6.1973,-6.1973,-6.1973,-6.1973,-6.1973,-6.1973,-6.1973,-6.1973,-6.1973,-6.1973,-6.1973,-6.1973,-6.1973,-6.1973,-6.1973,-6.1973,-6.1973,-6.1973,-6.1973,-6.1973,-6.1973,-6.1973,-6.1973,-6.1973,-6.1973,-6.1973,-6.1973,-6.1973,-6.1973,-6.1973,-6.1973,-6.1973,-6.1973,-6.1973,-6.1973,-6.1973,-6.1973,-6.1816,-6.1372,0.0,-6.1816,-6.1372,-6.1685,-6.1973,-6.1973,-6.1973,-6.1973,-6.1973,-6.1973,-6.1973,-6.1973,-6.1973,-6.1973,-6.1973,-6.1973,-6.1973,-6.1973,-6.1973,-6.1973,-6.1973,-6.1973,-6.1973,-6.1973,-6.1973,-6.1973,-6.1973,-6.1973,-6.1973,-6.1973,-6.1973,-6.1973,-6.1973,-6.1973,-6.1973,-6.1973,-6.1973,-6.1973,-6.1973,-6.1973,-6.1973,-6.1973,-5.8523,-5.8523,-5.8523,-5.8523,-5.8523,-5.8523,-5.8523,-5.8653,-5.8993,-5.9568,-6.0143,-6.0718,-6.1319,-6.1738,-6.1973,-6.1973,-6.1973,-6.1973,-6.1973,-6.1973,-6.1973,-6.1973,-6.1973,-6.1973,-6.1973,-6.1973,-6.1973,-6.1973,-6.1973,-6.1973,-6.1973,-6.1973,-6.1973,-6.1973,-6.1973,-6.1973,-6.1973,-6.1973,-6.1973,-6.1973,-6.1973,-6.1973,-6.1973,-6.1973,-6.1973,-6.1973,-6.1973,-6.1973,-6.1973,-6.1973,-6.1973,-6.1973,-6.1973,-6.1973,-6.1973,-6.1973,-6.1973,-6.1973,-6.1973,-6.1973,-6.1973,-6.1973,-6.1973,-6.1973,-6.1973,-6.1973,-6.1973,-6.1973,-6.1973,-6.1973,-6.1973,-6.1973,-6.1973,-6.1973,-6.1973,-6.1973,-6.1973,-6.1973,-6.1973,-6.1973,-6.1973,-6.1973,-6.1973,-6.1973,-6.1973,-6.1973,-6.1973,-6.1973,-6.1973,-6.1973,-6.1973,-6.1973,-6.1973,-6.1973,-6.1973,-6.1973,-6.1973,-6.1973,-6.1973,-6.1973,-6.1973,-6.1973,-6.1973,-6.1973,-6.1973,-6.1973,-6.1973,-6.1973,-6.1973,-6.1973,-6.1973,-6.1973,-6.1973,-6.1973,-6.1973,-6.1973,-5.8523,-5.8523,-5.8523,-5.8523,-5.8523,-5.8523,-5.8523,-5.8993,-5.9568,-6.0143,-6.0744,-6.1346,-6.1894,-6.1973,-6.1973,-6.1973,-6.1973,-6.1973,-6.1973,-6.1973,-6.1973,-6.1973,-6.1973,-6.1973,-6.1973,-6.1973,-6.1973,-6.1973,-6.1973,-6.1973,-6.1973,-6.1973,-6.1973,-6.1973,-6.1973,-6.1973,-6.1973,-6.1973,-6.1973,-6.1973,-6.1973,-6.1973,-6.1973,-6.1973,-6.1973,-6.1973,-6.1973,-6.1973,-6.1973,-6.1973,-6.1973,-6.1973,-6.1973,-6.1973,-6.1973,-6.1973,-6.1973,-6.1973,-6.1973,-6.1973,-6.1973,-6.1973,-6.1973,-6.1973,-6.1973,-6.1973,-6.1973,-6.1973,-6.1973,-6.1973,-6.1973,-6.1973,-6.1973,-6.1973,-6.1973,-6.1973,-6.1973,-6.1973,-6.1973,-6.1973,-6.1973,-6.1973,-6.1973,-6.1973,-6.1973,-6.1973,-6.1973,-6.1973,-6.1973,-6.1973,-6.1973,-6.1973,-6.1973,-6.1973,-6.1973,-6.1973,-6.1973,-6.1973,-6.1973,-6.1973,-6.1973,-6.1973,-6.1973,-6.1973,-6.1973,-6.1973,-6.1973,-6.1973,-6.1973,-6.1973,-6.1973,-6.1973,-6.1973,-6.1973,-6.1973,-6.1973,-5.8523,-5.8523,-5.8523,-5.8523,-5.8523,-5.8653,-5.9045,-5.9255,-5.9725,-6.0718,-6.1006,-6.1346,-6.1894,-6.1973,-6.1973,-6.1973,-6.1973,-6.1973,-6.1973,-6.1973,-6.1973,-6.1973,-6.1973,-6.1973,-6.1973,-6.1973,-6.1973,-6.1973,-6.1973,-6.1973,-6.1973,-6.1973,-6.1973,-6.1973,-6.1973,-6.1973,-6.1973,-6.1973,-6.1973,-6.1973,-6.1973,-6.1973,-6.1973,-6.1973,-6.1973,-6.1973,-6.1973,-6.1973,-6.1973,-6.1973,-6.1973,-6.1973,-6.1973,-6.1973,-6.1973,-6.1973,-6.1973,-6.1973,-6.1973,-6.1973,-6.1973,-6.1973,-6.1973,-6.1973,-6.1973,-6.1973,-6.1973,-6.1973,-6.1973,-6.1973,-6.1973,-6.1973,-6.1973,-6.1973,-6.1973,-6.1973,-6.1973,-6.1973,-6.1973,-6.1973,-6.1973,-6.1973,-6.1973,-6.1973,-6.1973,-6.1973,-6.1973,-6.1973,-6.1973,-6.1973,-6.1973,-6.1973,-6.1973,-6.1973,-6.1973,-6.1973,-6.1973,-6.1973,-6.1973,-6.1973,-6.1973,-6.1973,-6.1973,-6.1973,-6.1973,-6.1973,-6.1973,-6.1973,-6.1973,-6.1973,-6.1973,-6.1973,-6.1973,-6.1973,-6.1973,-6.1973,-5.8523,-5.8523,-5.8601,-5.881,-5.8862,-5.9045,-5.962,-5.9908,-6.0326,-6.1032,-6.1319,-6.1581,-6.1921,-6.1973,-6.1973,-6.1973,-6.1973,-6.1973,-6.1973,-6.1973,-6.1973,-6.1973,-6.1973,-6.1973,-6.1973,-6.1973,-6.1973,-6.1973,-6.1973,-6.1973,-6.1973,-6.1973,-6.1973,-6.1973,-6.1973,-6.1973,-6.1973,-6.1973,-6.1973,-6.1973,-6.1973,-6.1973,-6.1973,-6.1973,-6.1973,-6.1973,-6.1973,-6.1973,-6.1973,-6.1973,-6.1973,-6.1973,-6.1973,-6.1973,-6.1973,-6.1973,-6.1973,-6.1973,-6.1973,-6.1973,-6.1973,-6.1973,-6.1973,-6.1973,-6.1973,-6.1973,-6.1973,-6.1973,-6.1973,-6.1973,-6.1973,-6.1973,-6.1973,-6.1973,-6.1973,-6.1973,-6.1973,-6.1973,-6.1973,-6.1973,-6.1973,-6.1973,-6.1973,-6.1973,-6.1973,-6.1973,-6.1973,-6.1973,-6.1973,-6.1973,-6.1973,-6.1973,-6.1973,-6.1973,-6.1973,-6.1973,-6.1973,-6.1973,-6.1973,-6.1973,-6.1973,-6.1973,-6.1973,-6.1973,-6.1973,-6.1973,-6.1973,-6.1973,-6.1973,-6.1973,-6.1973,-6.1973,-6.1973,-6.1973,-6.1973,-6.1973,-5.8523,-5.8549,-5.8758,-5.9281,-5.9411,-5.9647,-6.0222,-6.0771,-6.1136,-6.1189,-6.1659,-6.1973,-6.1973,-6.1973,-6.1973,-6.1973,-6.1973,-6.1973,-6.1973,-6.1973,-6.1973,-6.1973,-6.1973,-6.1973,-6.1973,-6.1973,-6.1973,-6.1973,-6.1973,-6.1973,-6.1973,-6.1973,-6.1973,-6.1973,-6.1973,-6.1973,-6.1973,-6.1973,-6.1973,-6.1973,-6.1973,-6.1973,-6.1973,-6.1973,-6.1973,-6.1973,-6.1973,-6.1973,-6.1973,-6.1973,-6.1973,-6.1973,-6.1973,-6.1973,-6.1973,-6.1973,-6.1973,-6.1973,-6.1973,-6.1973,-6.1973,-6.1973,-6.1973,-6.1973,-6.1973,-6.1973,-6.1973,-6.1973,-6.1973,-6.1973,-6.1973,-6.1973,-6.1973,-6.1973,-6.1973,-6.1973,-6.1973,-6.1973,-6.1973,-6.1973,-6.1973,-6.1973,-6.1973,-6.1973,-6.1973,-6.1973,-6.1973,-6.1973,-6.1973,-6.1973,-6.1973,-6.1973,-6.1973,-6.1973,-6.1973,-6.1973,-6.1973,-6.1973,-6.1973,-6.1973,-6.1973,-6.1973,-6.1973,-6.1973,-6.1973,-6.1973,-6.1973,-6.1973,-6.1973,-6.1973,-6.1973,-6.1973,-6.1973,-6.1973,-6.1973,-6.1973,-5.8523,-5.8862,-5.9228,-5.9333,-5.9725,-6.0248,-6.0823,-6.1032,-6.1293,-6.1738,-6.1894,-6.1973,-6.1973,-6.1973,-6.1973,-6.1973,-6.1973,-6.1973,-6.1973,-6.1973,-6.1973,-6.1973,-6.1973,-6.1973,-6.1973,-6.1973,-6.1973,-6.1973,-6.1973,-6.1973,-6.1973,-6.1973,-6.1973,-6.1973,-6.1973,-6.1973,-6.1973,-6.1973,-6.1973,-6.1973,-6.1973,-6.1973,-6.1973,-6.1973,-6.1973,-6.1973,-6.1973,-6.1973,-6.1973,-6.1973,-6.1973,-6.1973,-6.1973,-6.1973,-6.1973,-6.1973,-6.1973,-6.1973,-6.1973,-6.1973,-6.1973,-6.1973,-6.1973,-6.1973,-6.1973,-6.1973,-6.1973,-6.1973,-6.1973,-6.1973,-6.1973,-6.1973,-6.1973,-6.1973,-6.1973,-6.1973,-6.1973,-6.1973,-6.1973,-6.1973,-6.1973,-6.1973,-6.1973,-6.1973,-6.1973,-6.1973,-6.1973,-6.1973,-6.1973,-6.1973,-6.1973,-6.1973,-6.1973,-6.1973,-6.1973,-6.1973,-6.1973,-6.1973,-6.1973,-6.1973,-6.1973,-6.1973,-6.1973,-6.1973,-6.1973,-6.1973,-6.1973,-6.1973,-6.1973,-6.1973,-6.1973,-6.1973,-6.1973,-6.1973,-6.1973,-6.1973,-5.8915,-5.9385,-5.9856,-6.0143,-6.0457,-6.0849,-6.1424,-6.1529,-6.1633,-6.1921,-6.1973,-6.1973,-6.1973,-6.1973,-6.1973,-6.1973,-6.1973,-6.1973,-6.1973,-6.1973,-6.1973,-6.1973,-6.1973,-6.1973,-6.1973,-6.1973,-6.1973,-6.1973,-6.1973,-6.1973,-6.1973,-6.1973,-6.1973,-6.1973,-6.1973,-6.1973,-6.1973,-6.1973,-6.1973,-6.1973,-6.1973,-6.1973,-6.1973,-6.1973,-6.1973,-6.1973,-6.1973,-6.1973,-6.1973,-6.1973,-6.1973,-6.1973,-6.1973,-6.1973,-6.1973,-6.1973,-6.1973,-6.1973,-6.1973,-6.1973,-6.1973,-6.1973,-6.1973,-6.1973,-6.1973,-6.1973,-6.1973,-6.1973,-6.1973,-6.1973,-6.1973,-6.1973,-6.1973,-6.1973,-6.1973,-6.1973,-6.1973,-6.1973,-6.1973,-6.1973,-6.1973,-6.1973,-6.1973,-6.1973,-6.1973,-6.1973,-6.1973,-6.1973,-6.1973,-6.1973,-6.1973,-6.1973,-6.1973,-6.1973,-6.1973,-6.1973,-6.1973,-6.1973,-6.1973,-6.1973,-6.1973,-6.1973,-6.1973,-6.1973,-6.1973,-6.1973,-6.1973,-6.1973,-6.1973,-6.1973,-6.1973,-6.1973,-6.1973,-6.1973,-6.1973,-6.1973,-5.9516,-5.9986,-6.0535,-6.1032,-6.1215,-6.1424,-6.1894,-6.1973,-6.1973,-6.1973,-6.1973,-6.1973,-6.1973,-6.1973,-6.1973,-6.1973,-6.1973,-6.1973,-6.1973,-6.1973,-6.1973,-6.1973,-6.1973,-6.1973,-6.1973,-6.1973,-6.1973,-6.1973,-6.1973,-6.1973,-6.1973,-6.1973,-6.1973,-6.1973,-6.1973,-6.1973,-6.1973,-6.1973,-6.1973,-6.1973,-6.1973,-6.1973,-6.1973,-6.1973,-6.1973,-6.1973,-6.1973,-6.1973,-6.1973,-6.1973,-6.1973,-6.1973,-6.1973,-6.1973,-6.1973,-6.1973,-6.1973,-6.1973,-6.1973,-6.1894,-6.1842,-6.1842,-6.1738,-6.1685,-6.1685,-6.1738,-6.179,-6.1685,-6.1685,-6.1685,-6.1685,-6.1764,-6.1842,-6.1842,-6.1894,-6.1973,-6.1973,-6.1973,-6.1973,-6.1973,-6.1973,-6.1973,-6.1973,-6.1973,-6.1973,-6.1973,-6.1973,-6.1973,-6.1973,-6.1973,-6.1973,-6.1973,-6.1973,-6.1973,-6.1973,-6.1973,-6.1973,-6.1973,-6.1973,-6.1973,-6.1973,-6.1973,-6.1973,-6.1973,-6.1973,-6.1973,-6.1973,-6.1973,-6.1973,-6.1973,-6.1973,-6.1973,-6.1973,-6.1973,-6.1973,-6.1973,-6.0091,-6.0588,-6.1032,-6.111,-6.1529,-6.1894,-6.1973,-6.1973,-6.1973,-6.1973,-6.1973,-6.1973,-6.1973,-6.1973,-6.1973,-6.1973,-6.1973,-6.1973,-6.1973,-6.1973,-6.1973,-6.1973,-6.1973,-6.1973,-6.1973,-6.1973,-6.1973,-6.1973,-6.1973,-6.1973,-6.1973,-6.1973,-6.1973,-6.1973,-6.1973,-6.1973,-6.1973,-6.1973,-6.1973,-6.1973,-6.1973,-6.1973,-6.1973,-6.1973,-6.1973,-6.1973,-6.1973,-6.1973,-6.1973,-6.1973,-6.1973,-6.1973,-6.1973,-6.1973,-6.1973,-6.1973,-6.1973,-6.1973,-6.1973,-6.1607,-6.1241,-6.1241,-6.0849,-6.0457,-6.0457,-6.0875,-6.1084,-6.0561,-6.0457,-6.0457,-6.0457,-6.0875,-6.1241,-6.1241,-6.1659,-6.1973,-6.1973,-6.1973,-6.1973,-6.1973,-6.1973,-6.1973,-6.1973,-6.1973,-6.1973,-6.1973,-6.1973,-6.1973,-6.1973,-6.1973,-6.1973,-6.1973,-6.1973,-6.1973,-6.1973,-6.1973,-6.1973,-6.1973,-6.1973,-6.1973,-6.1973,-6.1973,-6.1973,-6.1973,-6.1973,-6.1973,-6.1973,-6.1973,-6.1973,-6.1973,-6.1973,-6.1973,-6.1973,-6.1973,-6.1973,-6.1973,-6.0718,-6.1189,-6.1581,-6.1581,-6.179,-6.1973,-6.1973,-6.1973,-6.1973,-6.1973,-6.1973,-6.1973,-6.1973,-6.1973,-6.1973,-6.1973,-6.1973,-6.1973,-6.1973,-6.1973,-6.1973,-6.1973,-6.1973,-6.1973,-6.1973,-6.1973,-6.1973,-6.1973,-6.1973,-6.1973,-6.1973,-6.1973,-6.1973,-6.1973,-6.1973,-6.1973,-6.1973,-6.1973,-6.1973,-6.1973,-6.1973,-6.1973,-6.1973,-6.1973,-6.1973,-6.1973,-6.1973,-6.1973,-6.1973,-6.1973,-6.1973,-6.1973,-6.1973,-6.1973,-6.1973,-6.1973,-6.1973,-6.1973,-6.1973,-6.1555,-6.111,-6.111,-6.0666,-6.0143,-5.9803,-5.996,-6.0169,-6.0195,-6.0222,-6.0222,-6.0222,-6.0431,-6.0718,-6.1058,-6.1319,-6.1607,-6.1921,-6.1973,-6.1973,-6.1973,-6.1973,-6.1973,-6.1973,-6.1973,-6.1973,-6.1973,-6.1973,-6.1973,-6.1973,-6.1973,-6.1973,-6.1973,-6.1973,-6.1973,-6.1973,-6.1973,-6.1973,-6.1973,-6.1973,-6.1973,-6.1973,-6.1973,-6.1973,-6.1973,-6.1973,-6.1973,-6.1973,-6.1973,-6.1973,-6.1973,-6.1973,-6.1973,-6.1973,-6.1973,-6.1973,-6.1973]},{"header":{"parameterUnit":"m.s-1","parameterCategory":1,"la1":30.6,"la2":28.766,"lo1":-90.7593,"lo2":-88.6598,"dy":0.0162,"dx":0.0183,"nx":116,"ny":114,"refTime":"2024-04-05T12:00:00:Z","depth":0,"parameterNumber":3,"parameterNumberName":"V-component_of_WINDS"},"data":[0.0,0.0,0.0,0.0,0.0,0.0,0.0,0.0,0.0,0.0,0.0,0.0,0.0,0.0,0.0,0.0,0.0,0.0,0.0,0.0,0.0,0.0,0.0,0.0,0.0,0.0,0.0,0.0,0.0,0.0,0.0,0.0,0.0,0.0,0.0,0.0,0.0,0.0,0.0,0.0,0.0,0.0,0.0,0.0,0.0,0.0,0.0,0.0,0.0,0.0,0.0,0.0,0.0,0.0,0.0,0.0,0.0,0.0,0.0,0.0,0.0,0.0,0.0,0.0,0.0,0.0,0.0,0.0,0.0,0.0,0.0,0.0,0.0,0.0,0.0,0.0,0.0,0.0,0.0,0.0,0.0,0.0,0.0,0.0,0.0,0.0,0.0,0.0,0.0,0.0,0.0,0.0,0.0,0.0,0.0,0.0,0.0,0.0,0.0,0.0,0.0,0.0,0.0,0.0,0.0,0.0,0.0,0.0,0.0,0.0,0.0,0.0,0.0,0.0,0.0,0.0,0.0,0.0,0.0,0.0,0.0,0.0,0.0,0.0,0.0,0.0,0.0,0.0,0.0,0.0,0.0,0.0,0.0,0.0,0.0,0.0,0.0,0.0,0.0,0.0,0.0,0.0,0.0,0.0,0.0,0.0,0.0,0.0,0.0,0.0,0.0,0.0,0.0,0.0,0.0,0.0,0.0,0.0,0.0,0.0,0.0,0.0,0.0,0.0,0.0,0.0,0.0,0.0,0.0,0.0,0.0,0.0,0.0,0.0,0.0,0.0,0.0,0.0,0.0,0.0,0.0,0.0,0.0,0.0,0.0,0.0,0.0,0.0,0.0,0.0,0.0,0.0,0.0,0.0,0.0,0.0,0.0,0.0,0.0,0.0,0.0,0.0,0.0,0.0,0.0,0.0,0.0,0.0,0.0,0.0,0.0,0.0,0.0,0.0,0.0,0.0,0.0,0.0,0.0,0.0,0.0,0.0,0.0,0.0,0.0,0.0,0.0,0.0,0.0,0.0,0.0,0.0,0.0,0.0,0.0,0.0,0.0,0.0,0.0,0.0,0.0,0.0,0.0,0.0,0.0,0.0,0.0,0.0,0.0,0.0,0.0,0.0,0.0,0.0,0.0,0.0,0.0,0.0,0.0,0.0,0.0,0.0,0.0,0.0,0.0,0.0,0.0,0.0,0.0,0.0,0.0,0.0,0.0,0.0,0.0,0.0,0.0,0.0,0.0,0.0,0.0,0.0,0.0,0.0,0.0,0.0,0.0,0.0,0.0,0.0,0.0,0.0,0.0,0.0,0.0,0.0,0.0,0.0,0.0,0.0,0.0,0.0,0.0,0.0,0.0,0.0,0.0,0.0,0.0,0.0,0.0,0.0,0.0,0.0,0.0,0.0,0.0,0.0,0.0,0.0,0.0,0.0,0.0,0.0,0.0,0.0,0.0,0.0,0.0,0.0,0.0,0.0,0.0,0.0,0.0,0.0,0.0,0.0,0.0,0.0,0.0,0.0,0.0,0.0,0.0,0.0,0.0,0.0,0.0,0.0,0.0,0.0,0.0,0.0,0.0,0.0,0.0,0.0,0.0,0.0,0.0,0.0,0.0,0.0,0.0,0.0,0.0,0.0,0.0,0.0,0.0,0.0,0.0,0.0,0.0,0.0,0.0,0.0,0.0,0.0,0.0,0.0,0.0,0.0,0.0,0.0,0.0,0.0,0.0,0.0,0.0,0.0,0.0,0.0,0.0,0.0,0.0,0.0,0.0,0.0,0.0,0.0,0.0,0.0,0.0,0.0,0.0,0.0,0.0,0.0,0.0,0.0,0.0,0.0,0.0,0.0,0.0,0.0,0.0,0.0,0.0,0.0,0.0,0.0,0.0,0.0,0.0,0.0,0.0,0.0,0.0,0.0,0.0,0.0,0.0,0.0,0.0,0.0,0.0,0.0,0.0,0.0,0.0,0.0,0.0,0.0,0.0,0.0,0.0,0.0,0.0,0.0,0.0,0.0,0.0,0.0,0.0,0.0,0.0,0.0,0.0,0.0,0.0,0.0,0.0,0.0,0.0,0.0,0.0,0.0,0.0,0.0,0.0,0.0,0.0,0.0,0.0,0.0,0.0,0.0,0.0,0.0,0.0,0.0,0.0,0.0,0.0,0.0,0.0,0.0,0.0,0.0,0.0,0.0,0.0,0.0,0.0,0.0,0.0,0.0,0.0,0.0,0.0,0.0,0.0,0.0,0.0,0.0,0.0,0.0,0.0,0.0,0.0,0.0,0.0,0.0,0.0,0.0,0.0,0.0,0.0,0.0,0.0,0.0,0.0,0.0,0.0,0.0,0.0,0.0,0.0,0.0,0.0,0.0,0.0,0.0,0.0,0.0,0.0,0.0,0.0,0.0,0.0,0.0,0.0,0.0,0.0,0.0,0.0,0.0,0.0,0.0,0.0,0.0,0.0,0.0,0.0,0.0,0.0,0.0,0.0,0.0,0.0,0.0,0.0,0.0,0.0,0.0,0.0,0.0,0.0,0.0,0.0,0.0,0.0,0.0,0.0,0.0,0.0,0.0,0.0,0.0,0.0,0.0,0.0,0.0,0.0,0.0,0.0,0.0,0.0,0.0,0.0,0.0,0.0,0.0,0.0,0.0,0.0,0.0,0.0,0.0,0.0,0.0,0.0,0.0,0.0,0.0,0.0,0.0,0.0,0.0,0.0,0.0,0.0,0.0,0.0,0.0,0.0,0.0,0.0,0.0,0.0,0.0,0.0,0.0,0.0,0.0,0.0,0.0,0.0,0.0,0.0,0.0,0.0,0.0,0.0,0.0,0.0,0.0,0.0,0.0,0.0,0.0,0.0,0.0,0.0,0.0,0.0,0.0,0.0,0.0,0.0,0.0,0.0,0.0,0.0,0.0,0.0,0.0,0.0,0.0,0.0,0.0,0.0,0.0,0.0,0.0,0.0,0.0,0.0,0.0,0.0,0.0,0.0,0.0,0.0,0.0,0.0,0.0,0.0,0.0,0.0,0.0,0.0,0.0,0.0,0.0,0.0,0.0,0.0,0.0,0.0,0.0,0.0,0.0,0.0,0.0,0.0,0.0,0.0,0.0,0.0,0.0,0.0,0.0,0.0,0.0,0.0,0.0,0.0,0.0,0.0,0.0,0.0,0.0,0.0,0.0,0.0,0.0,0.0,0.0,0.0,0.0,0.0,0.0,0.0,0.0,0.0,0.0,0.0,0.0,0.0,0.0,0.0,0.0,0.0,0.0,0.0,0.0,0.0,0.0,0.0,0.0,0.0,0.0,0.0,0.0,0.0,0.0,0.0,0.0,0.0,0.0,0.0,0.0,0.0,0.0,0.0,0.0,0.0,0.0,0.0,0.0,0.0,0.0,0.0,0.0,0.0,0.0,0.0,0.0,0.0,0.0,0.0,0.0,0.0,0.0,0.0,0.0,0.0,0.0,0.0,0.0,0.0,0.0,0.0,0.0,0.0,0.0,0.0,0.0,0.0,0.0,0.0,0.0,0.0,0.0,0.0,0.0,0.0,0.0,0.0,0.0,0.0,0.0,0.0,0.0,0.0,0.0,0.0,0.0,0.0,0.0,0.0,0.0,0.0,0.0,0.0,0.0,0.0,0.0,0.0,0.0,0.0,0.0,0.0,0.0,0.0,0.0,0.0,0.0,0.0,0.0,0.0,0.0,0.0,0.0,0.0,0.0,0.0,0.0,0.0,0.0,0.0,0.0,0.0,0.0,0.0,0.0,0.0,0.0,0.0,0.0,0.0,0.0,0.0,0.0,0.0,0.0,0.0,0.0,0.0,0.0,0.0,0.0,0.0,0.0,0.0,0.0,0.0,0.0,0.0,0.0,0.0,0.0,0.0,0.0,0.0,0.0,0.0,0.0,0.0,0.0,0.0,0.0,0.0,0.0,0.0,0.0,0.0,0.0,0.0,0.0,0.0,0.0,0.0,0.0,0.0,0.0,0.0,0.0,0.0,0.0,0.0,0.0,0.0,0.0,0.0,0.0,0.0,0.0,0.0,0.0,0.0,0.0,0.0,0.0,0.0,0.0,0.0,0.0,0.0,0.0,0.0,0.0,0.0,0.0,0.0,0.0,0.0,0.0,0.0,0.0,0.0,0.0,0.0,0.0,0.0,0.0,0.0,0.0,0.0,0.0,0.0,0.0,0.0,0.0,0.0,0.0,0.0,0.0,0.0,0.0,0.0,0.0,0.0,0.0,0.0,0.0,0.0,0.0,0.0,0.0,0.0,0.0,0.0,0.0,0.0,0.0,0.0,0.0,0.0,0.0,0.0,0.0,0.0,0.0,0.0,0.0,0.0,0.0,0.0,0.0,0.0,0.0,0.0,0.0,0.0,0.0,0.0,0.0,0.0,0.0,0.0,0.0,0.0,0.0,0.0,0.0,0.0,0.0,0.0,0.0,0.0,0.0,0.0,0.0,0.0,0.0,0.0,0.0,0.0,0.0,0.0,0.0,0.0,0.0,0.0,0.0,0.0,0.0,0.0,0.0,0.0,0.0,0.0,0.0,0.0,0.0,0.0,0.0,0.0,0.0,0.0,0.0,0.0,0.0,0.0,0.0,0.0,0.0,0.0,0.0,0.0,0.0,0.0,0.0,0.0,0.0,0.0,0.0,0.0,0.0,0.0,0.0,0.0,0.0,0.0,0.0,0.0,0.0,0.0,0.0,0.0,0.0,0.0,0.0,0.0,0.0,0.0,0.0,0.0,0.0,0.0,0.0,0.0,0.0,0.0,0.0,0.0,0.0,0.0,0.0,0.0,0.0,0.0,0.0,0.0,0.0,0.0,0.0,0.0,0.0,0.0,0.0,0.0,0.0,0.0,0.0,0.0,0.0,0.0,0.0,0.0,0.0,0.0,0.0,0.0,0.0,0.0,0.0,0.0,0.0,0.0,0.0,0.0,0.0,0.0,0.0,0.0,0.0,0.0,0.0,0.0,0.0,0.0,0.0,0.0,0.0,0.0,0.0,0.0,0.0,0.0,0.0,0.0,0.0,0.0,0.0,0.0,0.0,0.0,0.0,0.0,0.0,0.0,0.0,0.0,0.0,0.0,0.0,0.0,0.0,0.0,0.0,0.0,0.0,0.0,0.0,0.0,0.0,0.0,0.0,0.0,0.0,0.0,0.0,0.0,0.0,0.0,0.0,0.0,0.0,0.0,0.0,0.0,0.0,0.0,0.0,0.0,0.0,0.0,0.0,0.0,0.0,0.0,0.0,0.0,0.0,0.0,0.0,0.0,0.0,0.0,0.0,0.0,0.0,0.0,0.0,0.0,0.0,0.0,0.0,0.0,0.0,0.0,0.0,0.0,0.0,0.0,0.0,0.0,0.0,0.0,0.0,0.0,0.0,0.0,0.0,0.0,0.0,0.0,0.0,0.0,0.0,0.0,0.0,0.0,0.0,0.0,0.0,0.0,0.0,0.0,0.0,0.0,0.0,0.0,0.0,0.0,0.0,0.0,0.0,0.0,0.0,0.0,0.0,0.0,0.0,0.0,0.0,0.0,0.0,0.0,0.0,0.0,0.0,0.0,0.0,0.0,0.0,0.0,0.0,0.0,0.0,0.0,0.0,0.0,0.0,0.0,0.0,0.0,0.0,0.0,0.0,0.0,0.0,0.0,0.0,0.0,0.0,0.0,0.0,0.0,0.0,0.0,0.0,0.0,0.0,0.0,0.0,0.0,0.0,0.0,0.0,0.0,0.0,0.0,0.0,0.0,0.0,0.0,0.0,0.0,0.0,0.0,0.0,0.0,0.0,0.0,0.0,0.0,0.0,0.0,0.0,0.0,0.0,0.0,0.0,0.0,0.0,0.0,0.0,0.0,0.0,0.0,0.0,0.0,0.0,0.0,0.0,0.0,0.0,0.0,0.0,0.0,0.0,0.0,0.0,0.0,0.0,0.0,0.0,0.0,0.0,0.0,0.0,0.0,0.0,0.0,0.0,0.0,0.0,0.0,0.0,0.0,0.0,0.0,0.0,0.0,0.0,0.0,0.0,0.0,0.0,0.0,0.0,0.0,0.0,0.0,0.0,0.0,0.0,0.0,0.0,0.0,0.0,0.0,0.0,4.5603,0.0,0.0,0.0,0.0,0.0,0.0,0.0,0.0,0.0,0.0,0.0,0.0,0.0,0.0,0.0,0.0,0.0,0.0,0.0,0.0,0.0,0.0,0.0,0.0,4.2521,4.2312,4.2312,4.2312,4.2462,4.2791,4.2821,0.0,0.0,0.0,0.0,4.329,4.303,4.303,4.329,4.3319,4.4018,4.5274,4.4945,4.4975,4.5274,0.0,0.0,0.0,0.0,0.0,0.0,0.0,0.0,0.0,0.0,0.0,0.0,0.0,0.0,0.0,0.0,0.0,0.0,0.0,0.0,0.0,0.0,0.0,0.0,0.0,0.0,0.0,0.0,0.0,0.0,0.0,0.0,0.0,0.0,0.0,0.0,0.0,0.0,0.0,0.0,0.0,0.0,0.0,0.0,0.0,0.0,0.0,0.0,0.0,0.0,0.0,0.0,0.0,0.0,0.0,0.0,0.0,0.0,0.0,0.0,0.0,0.0,0.0,0.0,0.0,0.0,0.0,0.0,0.0,0.0,0.0,4.6142,0.0,0.0,0.0,0.0,0.0,0.0,0.0,0.0,0.0,0.0,0.0,0.0,0.0,0.0,0.0,0.0,0.0,0.0,0.0,0.0,0.0,4.3499,4.4077,4.3618,4.329,4.329,4.329,4.326,4.314,4.323,4.32,4.2961,4.305,4.308,4.2961,4.2581,4.2671,4.329,4.3838,4.4616,4.5633,4.5633,4.5633,4.5603,4.4825,0.0,0.0,0.0,0.0,0.0,0.0,0.0,0.0,0.0,0.0,0.0,0.0,0.0,0.0,0.0,0.0,0.0,0.0,0.0,0.0,0.0,0.0,0.0,0.0,0.0,0.0,0.0,0.0,0.0,0.0,0.0,0.0,0.0,0.0,0.0,0.0,0.0,0.0,0.0,0.0,0.0,0.0,0.0,0.0,0.0,0.0,0.0,0.0,0.0,0.0,0.0,0.0,0.0,0.0,0.0,0.0,0.0,0.0,0.0,0.0,0.0,0.0,0.0,4.5394,4.5514,4.6142,4.5603,4.6202,4.7608,4.7189,4.7429,4.7967,4.5873,0.0,0.0,0.0,0.0,0.0,0.0,0.0,0.0,0.0,0.0,0.0,0.0,0.0,0.0,0.0,0.0,0.0,0.0,0.0,4.3319,4.3409,4.3349,4.329,4.329,4.329,4.309,4.256,4.303,4.2821,4.1683,4.2231,4.2261,4.1654,4.2141,4.2671,4.329,4.5663,4.689,4.704,4.704,4.704,4.698,4.5723,4.5155,4.5125,0.0,0.0,0.0,0.0,0.0,0.0,0.0,0.0,0.0,0.0,0.0,0.0,0.0,0.0,0.0,0.0,0.0,0.0,0.0,0.0,0.0,0.0,0.0,0.0,0.0,0.0,0.0,0.0,0.0,0.0,0.0,0.0,0.0,0.0,0.0,0.0,0.0,0.0,0.0,0.0,0.0,4.683,4.689,0.0,0.0,0.0,0.0,0.0,0.0,0.0,0.0,0.0,0.0,0.0,0.0,0.0,4.5155,4.5424,4.6501,4.7339,4.7908,4.8386,4.8955,4.9538,4.9448,4.9284,4.909,4.9523,0.0,4.7459,4.7668,0.0,0.0,0.0,0.0,0.0,0.0,0.0,0.0,0.0,0.0,0.0,0.0,0.0,0.0,0.0,0.0,0.0,0.0,0.0,0.0,0.0,4.3947,4.4436,4.4436,4.4755,4.4556,4.3509,4.3389,4.2761,4.1482,4.1692,4.1722,4.1384,4.2372,4.3599,4.4964,4.6561,4.7309,4.7309,4.7309,4.7309,4.7279,4.6681,4.5992,4.5274,4.4975,0.0,0.0,0.0,0.0,0.0,0.0,0.0,0.0,0.0,0.0,0.0,0.0,0.0,0.0,0.0,0.0,0.0,0.0,0.0,0.0,0.0,0.0,0.0,0.0,0.0,0.0,0.0,0.0,0.0,0.0,0.0,0.0,0.0,0.0,0.0,0.0,0.0,0.0,0.0,4.5244,4.5633,4.5633,4.5095,4.4586,0.0,0.0,0.0,0.0,0.0,0.0,0.0,0.0,0.0,4.7489,4.716,4.7339,4.8057,4.8297,4.8566,4.888,4.9179,4.9404,4.9673,4.9673,4.9523,4.9329,4.9583,4.9194,4.8386,4.8327,4.7818,4.704,0.0,0.0,0.0,0.0,4.6411,4.6621,0.0,0.0,0.0,0.0,0.0,0.0,0.0,0.0,0.0,0.0,0.0,0.0,4.3798,4.4855,4.5574,4.5574,4.6022,4.5603,4.3928,4.3658,4.2761,4.0965,4.1025,4.1055,4.0876,4.2453,4.4366,4.6561,4.707,4.7309,4.7309,4.7309,4.7309,4.7309,4.7309,4.6741,4.5813,4.5633,4.5274,4.4796,0.0,0.0,0.0,0.0,0.0,0.0,0.0,0.0,0.0,0.0,0.0,0.0,0.0,0.0,0.0,0.0,0.0,0.0,0.0,0.0,0.0,0.0,0.0,0.0,0.0,0.0,0.0,0.0,0.0,0.0,0.0,0.0,0.0,0.0,0.0,0.0,0.0,4.4915,4.5214,4.4855,4.5125,4.5065,0.0,0.0,0.0,0.0,0.0,0.0,4.68,4.683,4.7578,4.9269,4.885,4.9015,4.9972,4.9673,4.9523,4.9523,4.9673,4.9808,4.9808,4.9808,4.9808,4.9808,4.9808,4.9808,4.9703,4.9045,4.8865,4.897,4.8117,4.7608,4.7339,4.7698,4.7818,4.7997,0.0,0.0,0.0,0.0,0.0,0.0,0.0,0.0,0.0,0.0,0.0,4.5185,4.5185,4.5843,4.6262,4.6262,4.6249,4.5214,4.268,4.3599,4.2851,3.9612,4.0127,4.0157,3.9493,4.2004,4.4575,4.7249,4.7279,4.7309,4.7309,4.7309,4.7309,4.7309,4.7309,4.7279,4.716,4.6531,4.6219,4.607,4.4825,0.0,0.0,0.0,0.0,0.0,0.0,0.0,0.0,0.0,0.0,0.0,0.0,0.0,0.0,0.0,0.0,0.0,0.0,0.0,0.0,0.0,0.0,0.0,0.0,0.0,0.0,0.0,0.0,0.0,0.0,0.0,0.0,0.0,0.0,0.0,0.0,0.0,0.0,4.6339,4.7309,0.0,0.0,0.0,0.0,4.716,4.7219,4.7519,4.8147,4.8177,4.8506,4.9299,4.9269,4.9299,4.9359,4.9883,5.0136,5.0136,5.081,5.1109,5.1109,5.1109,5.1109,5.1109,5.1109,5.1109,5.1079,5.0375,4.9434,4.8386,4.9,4.8416,4.7459,4.876,4.9209,4.9389,0.0,0.0,0.0,0.0,0.0,4.329,4.329,4.329,4.314,4.2761,4.4227,4.4975,4.4137,4.6172,4.7429,4.698,4.7339,4.683,4.5035,4.4167,4.3,4.1422,4.0726,4.1294,4.315,4.4975,4.6561,4.7938,4.7938,4.7728,4.7309,4.7309,4.7309,4.7309,4.7309,4.7309,4.7279,4.704,4.6711,4.6249,4.5771,4.5095,0.0,0.0,0.0,0.0,0.0,0.0,0.0,0.0,0.0,0.0,0.0,0.0,0.0,0.0,0.0,0.0,0.0,0.0,0.0,0.0,0.0,0.0,0.0,0.0,0.0,0.0,0.0,0.0,0.0,0.0,0.0,0.0,0.0,0.0,0.0,0.0,0.0,4.6429,4.7489,0.0,4.7369,4.8057,4.8386,4.7967,4.8716,4.9239,4.9523,4.9553,5.0032,5.1109,5.1169,5.1349,5.1845,5.2007,5.2127,5.2127,5.2366,5.2486,5.2486,5.2486,5.2486,5.2456,5.2037,5.1858,5.1798,5.1139,5.0601,5.0212,5.0421,5.0242,4.9883,5.0361,5.0511,5.0601,0.0,0.0,0.0,0.0,4.329,4.329,4.329,4.329,4.3329,4.3399,4.4885,4.5723,4.5065,4.716,4.8356,4.7698,4.8237,4.7668,4.5412,4.4526,4.324,4.1444,4.0965,4.2372,4.5903,4.6411,4.7189,4.8297,4.8057,4.7728,4.7309,4.7309,4.7309,4.7309,4.7309,4.7309,4.7309,4.7309,4.704,4.6651,4.6651,4.5992,4.4975,0.0,0.0,0.0,0.0,0.0,0.0,0.0,0.0,0.0,0.0,0.0,0.0,0.0,0.0,0.0,0.0,0.0,0.0,0.0,0.0,0.0,0.0,0.0,0.0,0.0,0.0,0.0,0.0,0.0,0.0,0.0,0.0,0.0,0.0,4.689,4.7788,4.6429,4.7878,4.8686,4.8027,4.9164,4.9763,4.9314,5.0272,5.0853,5.0853,5.1109,5.1618,5.2516,5.2546,5.2725,5.3174,5.3174,5.3174,5.3174,5.3174,5.3174,5.3174,5.3174,5.3174,5.3144,5.2725,5.2546,5.2486,5.2067,5.1738,5.1528,5.1319,5.1229,5.1229,5.1229,5.1229,5.1229,0.0,0.0,0.0,4.329,4.329,4.329,4.329,4.329,4.3768,4.5095,4.6441,4.7519,4.8147,4.888,4.903,4.8327,4.8865,4.7578,4.3618,4.4556,4.3539,3.9642,4.0846,4.3389,4.7189,4.6052,4.6352,4.8297,4.7638,4.7339,4.7369,4.7369,4.7369,4.7369,4.7369,4.7369,4.7339,4.7339,4.7339,4.7309,4.7309,4.692,4.6219,0.0,0.0,0.0,0.0,0.0,0.0,0.0,0.0,0.0,0.0,0.0,0.0,0.0,0.0,0.0,0.0,0.0,0.0,0.0,0.0,0.0,0.0,0.0,0.0,0.0,0.0,0.0,0.0,0.0,0.0,0.0,0.0,0.0,4.6728,4.7549,4.7878,4.6578,4.8671,5.0002,4.9449,5.0511,5.1259,5.1289,5.1858,5.2217,5.2217,5.2845,5.3204,5.3204,5.3204,5.3234,5.3234,5.3234,5.3234,5.3234,5.3234,5.3234,5.3234,5.3234,5.3234,5.3234,5.3234,5.3204,5.3204,5.3204,5.2815,5.2157,5.1498,5.1229,5.1229,5.1229,5.1229,5.1229,0.0,0.0,4.329,4.329,4.329,4.329,4.329,4.329,4.3589,4.4466,4.5753,4.6681,4.683,4.7878,4.8297,4.7638,4.8177,4.7489,4.4915,4.4646,4.3688,4.1654,4.4646,4.6441,4.6591,4.716,4.7728,4.8297,4.8117,4.8267,4.876,4.876,4.876,4.876,4.876,4.8446,4.8027,4.8027,4.7728,4.7309,4.7309,4.692,4.6309,0.0,0.0,0.0,0.0,0.0,0.0,0.0,0.0,0.0,0.0,0.0,0.0,0.0,0.0,0.0,0.0,0.0,0.0,0.0,0.0,0.0,0.0,0.0,0.0,0.0,0.0,0.0,0.0,0.0,0.0,0.0,4.8745,4.9284,4.8566,4.9164,4.9687,4.9853,5.0046,5.0495,5.1319,5.1708,5.2127,5.2606,5.2815,5.2905,5.2905,5.3084,5.3414,5.3922,5.3922,5.4162,5.464,5.464,5.464,5.464,5.464,5.464,5.464,5.464,5.464,5.461,5.4132,5.3922,5.3892,5.3384,5.3084,5.2845,5.2187,5.1648,5.1229,5.1229,5.1229,5.1229,0.0,4.329,4.329,4.329,4.329,4.329,4.329,4.329,4.3828,4.5364,4.6022,4.6651,4.7459,4.7997,4.8117,4.7758,4.7549,4.6741,4.5005,4.3748,4.3479,4.4407,4.6112,4.707,4.716,4.7908,4.8297,4.8297,4.8566,4.894,4.9299,4.9299,4.9299,4.9299,4.9299,4.909,4.8686,4.8416,4.8057,4.7698,4.7429,4.707,4.677,4.716,4.689,4.6279,4.6441,4.6651,4.677,4.5992,0.0,0.0,0.0,0.0,0.0,0.0,0.0,0.0,0.0,0.0,0.0,0.0,0.0,0.0,0.0,0.0,0.0,0.0,0.0,0.0,0.0,0.0,0.0,0.0,4.9464,5.0092,5.0092,5.0421,5.09,5.1558,5.1289,5.1468,5.2516,5.2606,5.2755,5.3144,5.3443,5.3623,5.3623,5.4132,5.461,5.5029,5.5269,5.5598,5.5987,5.5987,5.5867,5.5598,5.5598,5.5448,5.5179,5.5179,5.5179,5.5179,5.479,5.461,5.4581,5.4192,5.3862,0.0,0.0,0.0,0.0,0.0,5.1618,5.1588,0.0,4.329,4.329,4.329,4.329,4.329,4.329,4.329,4.4246,4.695,4.6741,4.71,4.9164,4.8805,4.8356,4.8297,4.716,4.5843,4.4407,4.288,4.3539,4.692,4.6142,4.6471,4.8237,4.8297,4.8356,4.8506,4.9105,4.9449,4.9539,4.9539,4.9539,4.9539,4.9539,4.9479,4.9389,4.8745,4.8446,4.8327,4.7668,4.7369,4.7309,4.7399,4.704,4.6471,4.5933,4.6142,4.6651,4.6561,0.0,0.0,0.0,0.0,0.0,0.0,0.0,0.0,0.0,0.0,0.0,0.0,0.0,0.0,0.0,0.0,0.0,0.0,0.0,0.0,0.0,0.0,0.0,0.0,5.0361,5.1259,5.1319,5.1319,5.1558,5.2127,5.2187,5.2486,5.3234,5.3294,5.3354,5.3503,5.4072,5.4461,5.4521,5.5658,0.0,0.0,0.0,5.7094,5.7094,5.7094,5.6825,5.6286,5.6286,5.5957,5.5388,5.5329,5.5299,5.5299,5.5209,5.5179,5.5179,5.5179,5.485,5.4251,5.3473,5.3174,5.3114,5.2516,5.2306,5.2217,0.0,4.329,4.329,4.329,4.329,4.329,4.329,4.329,4.4246,4.695,4.6741,4.7236,4.9717,4.9464,4.891,4.8327,4.7578,4.6322,4.4436,4.5484,4.6022,4.5693,4.698,4.7878,4.8267,4.8297,4.8805,4.9807,4.9956,5.0331,5.084,5.084,5.084,5.084,5.084,5.0541,4.9986,4.9867,4.9553,4.906,4.8356,4.7788,4.7369,4.7908,4.8027,4.7967,4.8401,4.864,4.8626,4.8087,4.7997,4.7997,4.7489,4.713,0.0,0.0,0.0,0.0,0.0,0.0,0.0,0.0,0.0,0.0,0.0,0.0,0.0,0.0,0.0,0.0,0.0,0.0,0.0,4.9269,5.0361,5.1409,5.1947,5.2007,5.2067,5.2187,5.2187,5.2665,5.3892,5.4012,5.4461,5.5559,5.5718,5.6017,5.6496,5.6765,5.6915,5.6915,5.7034,5.7094,5.7094,5.7094,5.7034,5.6915,5.6915,0.0,5.6705,5.6196,5.5987,5.6008,5.5418,5.5179,5.5179,5.5179,5.5119,5.488,5.3653,5.3174,5.3174,5.3025,5.2995,5.2965,0.0,4.329,4.329,4.329,4.329,4.329,4.329,4.329,4.4007,4.6052,4.5723,4.604,4.8013,4.7399,4.68,4.68,4.6202,4.5394,4.4377,4.5574,4.6441,4.677,4.7758,4.8297,4.8297,4.8925,4.9583,5.0196,5.0524,5.0853,5.1229,5.1229,5.1229,5.1229,5.1229,5.0973,5.0674,5.0315,5.0016,4.9673,4.8686,4.8087,4.7788,4.7788,4.7788,4.7848,4.8177,4.876,4.9269,4.894,4.9224,4.9703,4.9374,4.8805,4.8027,0.0,0.0,0.0,0.0,0.0,0.0,0.0,0.0,0.0,0.0,0.0,0.0,0.0,0.0,4.7519,4.8177,0.0,4.9629,5.0571,5.1289,5.1947,5.2606,5.2995,5.3204,5.3204,5.3204,5.3593,5.461,5.4999,5.5478,5.6188,5.6466,5.6765,5.7064,5.7423,5.7603,5.7603,5.7932,5.8112,5.8112,5.8112,5.7932,5.7603,5.7603,5.7423,5.7094,5.6765,5.6645,5.6585,5.5957,5.5688,5.5658,5.5329,5.5179,5.5119,5.4461,5.4192,5.4162,5.3803,5.3683,5.3653,0.0,4.329,4.329,4.329,4.329,4.329,4.329,4.329,4.3768,4.5125,4.4825,4.5005,4.6381,4.5424,4.4706,4.4736,4.4706,4.4526,4.4137,4.5214,4.6531,4.8027,4.8207,4.8356,4.8476,4.9643,5.0255,5.0375,5.096,5.1229,5.1229,5.1229,5.1229,5.1229,5.1229,5.1229,5.1169,5.0614,5.0375,5.0255,4.9015,4.8476,4.8386,4.7608,4.7309,4.7309,4.7309,4.8057,4.9149,4.9269,5.0062,5.105,5.1169,5.0511,4.9344,4.7758,4.7309,0.0,0.0,0.0,0.0,0.0,0.0,0.0,0.0,0.0,4.6441,4.7788,4.8057,4.8386,4.9464,4.9808,5.0361,5.1947,5.2306,5.2636,5.3294,5.3862,5.4251,5.4371,5.4401,5.461,5.5149,5.5777,5.6278,5.6346,5.6944,5.7363,5.7483,5.8022,5.8321,5.8321,5.883,5.9099,5.9099,5.9099,5.883,5.8321,5.8321,5.8022,5.7483,5.7363,5.7304,5.7244,5.6615,5.6286,5.6188,5.5598,5.5299,5.5179,5.5179,5.5179,5.5119,5.4581,5.4401,5.4311,0.0,4.329,4.329,4.329,4.329,4.329,4.329,4.329,4.3768,4.5125,4.5214,4.5693,4.704,4.6531,4.5185,4.292,4.4796,4.5293,4.3529,4.6262,4.7788,4.7429,4.7967,4.8566,4.9179,4.9853,5.0465,5.1109,5.1169,5.1229,5.1229,5.1229,5.1229,5.1229,5.1229,5.1229,5.1229,5.1139,5.1109,5.099,4.9673,4.9209,4.906,4.7788,4.7309,4.7309,4.7309,4.7788,4.8476,4.912,4.9733,5.0405,5.0973,5.1109,5.0511,4.8027,4.7309,4.6711,4.4007,4.4407,4.5753,4.683,4.707,4.7698,0.0,0.0,4.9239,5.0511,5.078,5.084,5.096,5.1468,5.1947,5.2157,5.2695,5.3324,5.4012,5.4162,5.4431,5.4999,5.5089,5.5119,5.5179,5.5777,5.6406,5.6944,5.7633,5.8261,5.883,5.8949,5.9009,5.9009,5.9069,5.9099,5.9099,5.9099,5.9069,5.9009,5.9009,5.8949,5.886,5.8291,5.8022,5.7962,5.7304,5.6675,5.6166,5.6107,5.5718,5.5179,5.5179,5.5179,5.5179,5.5119,5.5089,5.5059,0.0,0.0,4.329,4.329,4.329,4.329,4.329,4.329,4.3499,4.4077,4.4167,4.4377,4.4904,4.4077,4.2851,4.1354,4.3299,4.4407,4.3888,4.6292,4.7578,4.7309,4.7938,4.8596,4.9299,4.9912,5.0524,5.1229,5.1229,5.1229,5.1229,5.1229,5.1229,5.1229,5.1229,5.1229,5.1229,5.1229,5.1229,5.1109,4.9793,4.9299,4.9179,4.7818,4.7549,4.7788,4.701,4.692,0.0,4.8356,4.8865,4.9344,5.078,5.0421,4.9224,4.7728,4.704,0.0,4.677,4.6621,4.677,0.0,4.8446,4.8745,4.9823,4.9689,4.9689,5.096,5.1229,5.1349,5.1708,5.2007,5.2456,0.0,5.3593,5.4012,5.47,5.479,5.488,5.5149,5.5179,5.5329,5.5718,5.6346,5.6974,5.7633,5.8321,5.88,5.9099,5.9099,5.9099,5.9099,5.9099,5.9099,5.9099,5.9099,5.9099,5.9099,5.9099,5.9099,5.9099,5.883,5.8501,5.8058,5.7812,5.7334,5.6705,5.6705,5.6346,5.5777,5.5777,5.5538,5.5179,5.5179,5.5179,5.5179,0.0,0.0,0.0,4.329,4.329,4.329,4.329,4.329,4.329,4.329,4.329,4.323,4.309,4.2222,4.1422,4.0726,4.2342,4.3658,4.4257,4.6022,4.713,4.7309,4.7938,4.8506,4.903,4.9643,5.0212,5.069,5.069,5.078,5.0913,5.0913,5.1003,5.1229,5.1229,5.1109,5.0913,5.0913,5.084,5.0571,4.9464,4.903,4.894,4.7938,4.7519,4.7339,4.6381,4.6262,4.6651,4.707,4.7309,4.7698,4.9134,4.8596,4.7339,4.6681,4.5873,4.5633,4.7429,0.0,0.0,4.894,4.9523,4.9793,4.9793,4.9793,5.0062,5.102,5.1379,5.1618,5.2127,5.2516,5.3084,5.4042,5.4371,5.464,5.5119,5.5179,5.5179,5.5179,5.5359,5.5718,5.6346,5.6825,5.7393,5.8082,5.874,5.9099,5.9099,5.9099,5.9099,5.9099,5.9099,5.9099,5.9099,5.9099,5.9099,5.9099,5.9099,5.9099,5.9099,5.9099,5.886,5.8411,5.8411,5.8022,5.7393,5.7393,5.7004,5.6436,5.6436,5.6137,5.5718,5.5718,5.5478,5.5179,0.0,0.0,0.0,0.0,4.329,4.329,4.329,4.329,4.329,4.329,4.329,4.309,4.25,4.2381,4.2111,4.1452,4.2551,4.3589,4.4257,4.5603,4.6651,4.7279,4.7938,4.8297,4.8327,4.9,4.9359,4.9359,4.9359,4.9643,5.0226,5.0226,5.0554,5.1229,5.1229,5.0823,5.0226,5.0226,4.9912,4.9299,4.8596,4.8327,4.8327,4.8267,4.707,4.5394,4.5334,4.6172,4.698,4.5095,4.4855,4.5394,4.5454,4.5424,0.0,4.4586,4.3479,4.28,4.4107,0.0,4.683,4.882,5.0212,5.1169,5.1169,5.1169,5.1169,5.1199,5.1738,5.2187,5.2187,5.3264,5.4162,5.4192,5.476,5.5179,5.5179,5.5179,5.5179,5.5179,5.5748,5.6376,0.0,5.7094,5.7393,5.8082,5.874,5.9099,5.9099,5.9099,5.9099,5.9099,5.9099,5.9099,5.9099,5.9099,5.9099,5.9099,5.9099,5.9099,5.9099,5.9099,5.9099,5.9069,5.9069,5.871,5.8082,5.8082,5.7693,5.7064,5.7064,5.7064,5.7034,5.7034,5.6256,5.5179,0.0,0.0,0.0,0.0,0.0,4.329,4.329,4.329,4.329,4.329,4.329,0.0,0.0,0.0,0.0,0.0,4.2821,4.3559,4.4257,4.5574,4.6369,4.6651,4.7279,4.7848,4.8267,4.8506,4.888,4.9299,4.9299,4.9419,4.9583,4.9583,4.9703,4.9912,4.9912,4.9793,4.9583,4.9583,4.9464,4.9299,4.906,4.8686,4.8177,4.7309,4.6561,4.5693,0.0,4.3,4.3389,4.3599,4.3509,4.3609,4.4885,4.4407,4.3189,4.2043,4.2641,4.3958,4.5274,0.0,4.8656,5.0182,5.09,5.1229,5.1229,5.1229,5.1349,5.1768,5.102,5.078,5.2516,5.2516,5.2665,5.3982,5.476,5.5179,5.5179,5.5568,5.5837,5.5837,5.6406,0.0,0.0,0.0,0.0,5.871,5.8979,5.9099,5.9099,5.9099,5.9099,5.9099,5.9099,5.9099,5.9099,5.9099,5.9099,5.9099,5.9099,5.9099,5.9099,5.9099,5.9099,5.9099,5.9099,5.8979,5.877,5.877,5.8381,5.7782,5.7782,5.7483,5.7094,5.7094,5.6825,5.6406,0.0,0.0,0.0,0.0,0.0,0.0,0.0,0.0,0.0,0.0,0.0,0.0,0.0,0.0,0.0,0.0,0.0,4.3559,4.4257,4.5125,4.5723,4.5933,4.6142,4.6441,4.686,4.6651,4.6711,4.716,4.7652,4.7967,4.8237,4.873,4.909,4.9299,4.9299,4.9179,4.897,4.897,4.855,4.7892,4.7892,4.7309,4.6441,4.5843,4.5155,0.0,4.2402,4.1294,4.0816,4.1654,4.1654,4.1534,4.2791,4.2491,4.1632,4.1205,4.2462,4.4366,4.6471,4.7967,4.9329,5.084,5.1229,5.1229,5.1229,5.1229,5.1349,5.1768,5.084,5.0481,5.2187,5.2187,5.2276,5.3324,5.4251,5.485,5.485,5.5418,5.5897,5.6188,5.6944,5.7633,0.0,0.0,0.0,5.9069,5.9099,5.9099,5.9099,5.9099,5.9099,5.9099,5.9099,5.9099,5.9099,5.9099,5.9099,5.9099,5.9099,5.9099,5.9099,5.9099,5.9099,5.9099,5.9099,5.9099,5.9099,5.9099,5.886,5.8471,5.8471,5.8201,5.7812,5.7812,5.7663,5.7363,0.0,0.0,0.0,0.0,0.0,0.0,0.0,0.0,0.0,0.0,0.0,0.0,0.0,0.0,0.0,0.0,0.0,0.0,4.4227,4.4287,4.4586,4.5214,4.4676,4.4377,4.4377,4.3708,4.3379,4.3379,4.4676,4.5633,4.6249,4.7549,4.852,4.912,4.912,4.876,4.8147,4.8147,4.701,4.5244,4.5274,4.4526,4.3409,4.4007,4.309,4.1542,4.2141,4.1085,3.9433,3.9433,3.9493,3.9582,3.9709,4.0157,4.0905,4.2201,4.303,4.4246,4.7429,4.8386,4.8925,5.081,5.1289,5.1319,5.1289,5.1259,5.1259,5.1229,5.1139,5.1079,0.0,0.0,5.2845,5.2276,5.3354,5.4281,5.4311,5.488,5.5538,0.0,0.0,0.0,0.0,0.0,0.0,5.9099,0.0,5.9099,5.9099,5.9099,5.9099,5.9099,5.9099,5.9099,5.9099,5.9099,5.9099,5.9099,5.9099,5.9099,5.9099,5.9099,5.9099,5.9099,5.9099,5.9099,5.9099,5.9129,5.9129,5.9099,5.9129,5.9129,5.9099,5.9099,5.871,5.8082,0.0,0.0,0.0,0.0,0.0,0.0,0.0,0.0,0.0,0.0,0.0,0.0,0.0,0.0,0.0,0.0,0.0,0.0,4.3529,4.4007,4.4377,4.4556,4.4885,4.5035,4.5035,4.4885,4.4796,4.4796,4.5125,4.5394,4.5574,4.5903,4.6142,4.6292,4.6292,4.6202,4.6052,4.6052,4.5484,4.4616,4.5095,4.4796,4.3977,4.3678,4.297,4.2111,4.1782,4.0995,4.0157,4.0157,0.0,0.0,0.0,4.3898,4.4107,4.4436,4.5723,4.7219,4.8057,4.9703,5.1319,5.1828,5.2306,5.2546,5.2067,5.1947,5.1798,5.1319,5.0062,4.9344,0.0,0.0,0.0,5.2067,5.3743,0.0,5.5598,5.6196,0.0,5.7543,0.0,5.886,5.886,5.9009,0.0,0.0,5.9099,5.9099,5.9099,5.9099,5.9099,5.9099,5.9099,5.9099,5.9099,5.9099,5.9099,5.9099,5.9099,5.9099,5.9099,5.9099,5.9099,5.9099,5.9099,5.9099,5.9129,5.9638,5.9548,5.9159,5.9638,5.9548,5.9099,5.9099,5.9009,5.883,0.0,0.0,0.0,0.0,0.0,0.0,0.0,0.0,0.0,0.0,0.0,0.0,0.0,0.0,0.0,0.0,0.0,0.0,0.0,4.3648,4.3858,4.3858,4.3958,4.4058,4.4058,4.3638,4.3479,4.3479,4.4016,4.4284,4.4314,4.4911,4.518,4.518,4.518,4.518,4.518,4.5263,4.4736,0.0,0.0,4.3868,4.3,4.2611,4.2213,4.1778,4.1504,4.1675,0.0,0.0,0.0,4.4276,4.4941,4.5221,4.5454,4.6224,0.0,4.8536,4.9703,5.1079,5.2276,5.2546,5.2695,5.2516,5.1558,5.1349,5.1079,5.0122,4.9045,0.0,4.9254,5.0046,0.0,0.0,0.0,0.0,5.5658,5.6286,5.7034,0.0,5.871,0.0,5.9099,5.9099,5.9099,0.0,5.9099,5.9099,5.9099,5.9099,5.9099,5.9099,5.9099,5.9099,5.9099,5.9099,5.9099,5.9099,5.9099,5.9099,5.9099,5.9099,5.9099,5.9099,5.9099,5.9279,5.9548,5.9937,6.0057,6.0027,6.0386,6.0116,5.9548,5.9548,5.9338,5.9099,0.0,0.0,0.0,0.0,0.0,0.0,0.0,0.0,0.0,0.0,4.329,0.0,0.0,0.0,0.0,0.0,0.0,0.0,0.0,0.0,4.329,4.329,4.2791,4.253,4.2491,4.176,4.1347,4.1308,4.2406,4.2981,4.301,4.4169,4.4703,4.4733,4.4775,4.4733,4.4733,4.4911,4.4276,4.313,4.3091,4.2443,4.1466,0.0,4.1313,4.119,4.1352,4.2634,0.0,0.0,4.5747,4.5759,4.5671,4.5828,4.6369,4.7837,4.8492,4.9269,5.1541,5.224,5.2509,5.3125,5.2826,5.2001,5.0551,5.0163,4.9715,4.8357,0.0,4.8059,4.8103,4.9628,5.0764,5.0375,0.0,5.4401,5.5329,5.5927,5.6795,5.8112,5.877,5.9099,5.9099,5.9099,5.9099,5.9099,5.9099,5.9099,5.9099,5.9099,5.9099,5.9099,5.9099,5.9099,5.9099,5.9099,5.9099,5.9099,5.9099,5.9099,5.9099,5.9099,5.9099,5.9099,5.9099,5.9488,6.0086,6.0176,6.0565,6.1134,6.1224,6.0835,6.0151,6.0061,5.9673,5.911,0.0,0.0,0.0,0.0,0.0,0.0,0.0,0.0,0.0,0.0,4.329,4.329,0.0,0.0,0.0,0.0,0.0,0.0,0.0,0.0,0.0,4.329,4.32,4.3071,4.2912,4.2753,4.2574,4.2444,4.2651,4.285,4.2981,4.3218,4.3337,4.3337,4.3498,4.3407,4.3123,4.3297,4.2931,4.2218,4.2051,4.1942,4.1891,4.1696,0.0,0.0,4.1647,0.0,0.0,4.6121,4.7259,4.8416,4.9284,4.9842,5.0179,5.007,5.0591,5.1286,5.1762,5.2536,5.3266,5.3635,5.3425,5.2713,5.0851,5.0023,0.0,0.0,4.6889,4.6933,4.7109,4.8328,4.9683,5.0853,5.2366,5.4162,0.0,0.0,5.7423,0.0,0.0,0.0,0.0,5.9099,0.0,0.0,5.9099,5.9099,5.9099,5.9099,5.9099,5.9099,5.9099,5.9099,5.9099,5.9099,5.9099,5.9099,5.9099,5.9099,5.9099,5.9099,5.9099,5.9099,5.9099,0.0,6.0116,6.0715,6.1014,6.1164,6.1702,6.1354,6.0443,5.9964,5.9529,5.9073,0.0,0.0,0.0,0.0,0.0,0.0,0.0,4.2841,4.317,4.288,4.2521,4.2581,4.323,4.329,4.329,0.0,0.0,0.0,0.0,0.0,0.0,0.0,4.329,4.325,4.317,4.297,4.2809,4.2688,0.0,4.2769,4.285,4.285,4.285,4.285,4.285,4.2688,4.2555,4.2769,4.2672,4.2336,4.2256,4.2256,4.2336,0.0,0.0,0.0,0.0,0.0,0.0,0.0,4.6491,4.8273,4.9827,5.0519,5.0757,5.0375,5.0707,5.1283,5.1915,5.2516,5.3027,5.3453,5.3225,5.221,4.9604,0.0,0.0,0.0,4.5607,4.6122,4.6223,4.7584,0.0,4.9723,5.1619,0.0,0.0,0.0,0.0,0.0,0.0,0.0,0.0,5.9099,5.9099,5.9099,5.9099,5.9099,5.9099,5.9099,5.9099,5.9099,5.9099,5.9099,5.9099,5.9099,5.9099,5.9099,5.9099,5.9099,5.9099,5.9099,5.9099,5.9099,5.9099,5.9558,6.0403,6.0731,6.1154,6.1636,6.1933,6.1608,6.0814,6.0546,6.0107,5.961,0.0,0.0,0.0,0.0,0.0,0.0,4.1773,4.2462,4.288,4.2291,4.1752,4.1833,4.3,4.3,4.2991,0.0,0.0,0.0,0.0,0.0,0.0,0.0,0.0,0.0,0.0,0.0,0.0,4.2566,4.2607,0.0,0.0,0.0,0.0,0.0,4.2514,4.2433,4.2351,4.2596,4.2688,0.0,0.0,4.2607,0.0,0.0,0.0,0.0,0.0,0.0,0.0,0.0,4.4822,4.6634,4.8284,4.9468,5.0188,4.956,4.986,5.064,5.1788,5.215,5.2335,5.2935,5.2532,5.1219,4.8122,4.7329,0.0,0.0,4.433,4.5124,4.5475,4.6801,4.8054,0.0,5.0562,5.2704,0.0,0.0,0.0,0.0,0.0,0.0,0.0,5.9099,0.0,5.9099,5.9099,5.9099,5.9099,5.9099,5.9099,5.9099,5.9099,5.9099,5.9099,5.9099,5.9099,5.9099,5.9099,5.9099,5.9099,5.9045,5.8991,5.8991,5.8936,5.9517,6.0511,6.0511,6.1167,6.2116,6.2116,6.1733,6.1204,6.1086,6.0645,6.003,0.0,0.0,0.0,0.0,0.0,0.0,0.0,4.241,4.2261,4.1602,4.1452,4.1692,4.241,4.1961,4.2043,0.0,0.0,0.0,0.0,0.0,0.0,0.0,0.0,0.0,0.0,0.0,0.0,4.2175,4.2351,0.0,0.0,0.0,0.0,0.0,0.0,0.0,4.2133,4.2555,0.0,0.0,0.0,0.0,0.0,0.0,0.0,0.0,0.0,0.0,0.0,0.0,0.0,4.3741,4.4356,4.6868,4.9257,4.7573,0.0,0.0,5.1033,5.1429,5.1744,5.2076,5.1458,5.0173,4.748,0.0,0.0,4.3484,4.3164,4.3642,4.5098,4.5493,4.6285,4.8276,0.0,5.0873,0.0,0.0,0.0,0.0,0.0,0.0,0.0,5.9099,5.9099,5.9099,5.9099,5.9099,5.9099,5.9099,5.9099,5.9099,5.9099,5.9099,5.9099,5.9099,5.9099,5.9099,5.9099,5.9099,5.9099,5.8857,5.8748,5.8748,5.8445,5.9017,0.0,6.0227,6.0995,6.2116,6.2116,6.188,6.1497,6.097,6.0531,6.0091,0.0,0.0,0.0,0.0,0.0,0.0,4.1961,4.2432,4.2581,4.1534,4.1025,4.1025,4.1722,4.1175,4.1474,4.314,0.0,0.0,0.0,0.0,0.0,0.0,0.0,0.0,0.0,0.0,4.2514,4.2474,4.2433,0.0,0.0,0.0,0.0,0.0,0.0,0.0,0.0,4.2269,0.0,0.0,0.0,0.0,0.0,0.0,0.0,0.0,0.0,0.0,0.0,0.0,0.0,0.0,4.1552,4.3672,0.0,0.0,4.7683,4.9047,5.0475,5.0959,5.1112,5.1183,5.0348,4.8943,4.6766,0.0,4.4298,4.276,4.2731,4.3179,4.3788,4.4559,4.5361,4.6238,0.0,0.0,5.1013,0.0,0.0,0.0,0.0,0.0,0.0,0.0,5.8773,5.8555,5.8555,5.8664,5.8828,5.8991,5.9099,5.9099,5.9099,5.9099,5.9099,5.9099,5.8991,5.8828,5.8828,5.8773,5.8555,5.8445,5.839,5.839,5.825,5.8614,0.0,5.9297,5.9945,6.0939,6.0939,6.1114,6.1315,6.1082,6.0935,6.07,0.0,0.0,0.0,0.0,0.0,4.297,4.1833,4.2462,4.2641,4.1534,4.0965,4.0786,4.1055,4.1025,4.1444,4.2641,4.308,0.0,0.0,0.0,0.0,0.0,0.0,0.0,0.0,0.0,4.2433,4.2514,4.2433,4.2433,0.0,0.0,0.0,0.0,0.0,0.0,0.0,0.0,0.0,0.0,0.0,0.0,0.0,0.0,0.0,0.0,0.0,0.0,0.0,0.0,0.0,0.0,0.0,0.0,0.0,0.0,4.6417,4.784,4.9407,5.0104,5.0415,5.0415,4.9407,4.7985,0.0,0.0,4.3631,4.2353,4.244,4.2789,4.2963,4.3718,4.4443,4.4821,0.0,4.7858,4.888,0.0,0.0,0.0,0.0,5.8288,0.0,5.8347,5.8445,5.8195,5.8195,5.8335,5.8555,5.8719,5.8882,5.8991,5.8882,5.8828,5.8828,5.8828,5.8719,5.8555,5.8555,5.8445,5.8195,5.8085,5.8085,5.8085,5.7974,5.8188,0.0,5.8576,5.9102,5.9916,5.9916,6.0206,6.0671,6.0845,6.0903,6.0874,0.0,0.0,0.0,0.0,0.0,0.0,4.25,4.241,4.2171,4.1512,4.1384,4.1115,4.0487,4.1602,4.2141,4.1482,4.2581,0.0,0.0,0.0,0.0,0.0,0.0,0.0,0.0,0.0,4.231,4.2092,4.231,4.231,4.2092,4.231,4.2269,4.2092,0.0,0.0,0.0,0.0,0.0,0.0,0.0,0.0,4.2092,0.0,0.0,0.0,0.0,0.0,0.0,0.0,0.0,0.0,0.0,3.8696,3.9625,4.157,4.4385,4.6923,4.7637,4.874,4.9746,4.9746,4.874,4.7462,0.0,0.0,4.3631,4.2353,4.2092,4.2295,4.2876,4.2992,4.3427,4.4676,4.5459,0.0,4.8449,0.0,0.0,0.0,0.0,5.5653,5.6303,5.7458,5.8195,5.8195,5.8195,0.0,5.8195,5.8195,5.839,5.8694,5.839,5.8195,5.8195,5.8195,5.8195,5.8195,5.8195,5.8195,5.8195,5.7948,5.7781,5.7781,5.7416,5.7681,0.0,5.829,5.8697,5.9306,5.9306,5.9306,5.9393,5.9974,6.0206,6.0293,0.0,0.0,0.0,0.0,0.0,0.0,0.0,4.303,4.2791,4.2171,4.2081,4.1841,4.1145,4.1871,4.2321,4.2111,4.2703,0.0,0.0,0.0,0.0,0.0,0.0,0.0,0.0,4.2298,4.2257,4.2339,4.2257,4.2257,4.231,4.2257,4.2175,4.2092,4.2092,0.0,0.0,0.0,0.0,0.0,0.0,4.2092,4.2034,0.0,0.0,0.0,0.0,0.0,0.0,0.0,0.0,0.0,0.0,0.0,0.0,4.006,4.2063,4.4531,4.6069,4.6795,4.7085,4.7085,4.6127,4.5082,4.4676,0.0,4.2586,4.2179,4.2092,4.215,4.2353,4.2702,4.3282,4.4124,4.4792,0.0,0.0,0.0,0.0,5.2668,5.5265,5.7126,0.0,0.0,5.7836,5.7584,5.7584,5.7696,5.7948,5.7696,5.7807,5.8335,5.825,5.8195,5.8195,5.8195,5.8085,5.7948,5.7948,5.7836,5.7584,5.7472,5.7472,5.7416,5.736,5.7419,5.7623,5.7623,5.8,5.861,5.861,5.89,5.9335,5.951,5.9568,5.9626,0.0,0.0,0.0,0.0,0.0,0.0,0.0,4.329,4.314,4.2791,4.2731,4.2372,4.1512,4.2192,4.2521,4.2081,4.2555,0.0,0.0,0.0,0.0,0.0,0.0,0.0,4.2298,4.2175,4.2058,4.189,4.1535,4.1535,4.189,4.1535,4.1599,4.2092,4.2092,4.2092,0.0,0.0,0.0,0.0,4.2092,4.1947,4.1686,0.0,0.0,0.0,0.0,0.0,0.0,0.0,0.0,0.0,0.0,0.0,0.0,0.0,4.0321,4.1976,4.3921,4.4821,4.5227,4.5459,4.456,4.3689,0.0,0.0,4.2092,4.2092,4.2092,4.2092,4.2092,4.2411,4.2934,4.3834,4.4298,4.5256,0.0,0.0,0.0,5.3152,0.0,0.0,0.0,5.7467,5.7528,5.7303,5.7303,5.736,5.7613,5.7416,5.7472,5.7863,5.7863,5.7863,5.7863,5.7863,5.7751,5.7613,5.7613,5.7472,5.7303,5.7303,5.7303,5.7303,5.7303,5.7303,0.0,5.7303,5.7565,5.7913,5.7913,5.8174,5.8581,5.8842,5.8929,5.8958,0.0,0.0,0.0,0.0,0.0,0.0,0.0,4.329,4.329,4.329,4.329,4.2841,4.1654,4.2611,4.2851,4.1624,4.2288,0.0,0.0,0.0,0.0,0.0,0.0,0.0,4.2092,4.2092,4.1802,4.1163,4.0554,4.0554,4.1163,4.0525,4.0902,4.2092,4.2092,4.2092,4.2092,4.2092,4.2092,4.2092,4.2034,4.1657,0.0,0.0,0.0,0.0,0.0,0.0,0.0,0.0,0.0,0.0,0.0,0.0,0.0,0.0,0.0,0.0,0.0,4.2731,4.3863,4.4472,4.3718,4.3021,4.3689,0.0,0.0,4.2092,4.2092,4.2092,4.2092,4.2121,4.2557,4.3805,4.4066,4.5227,0.0,4.9524,0.0,0.0,5.5184,0.0,5.6345,5.6955,5.7303,5.7303,5.7303,5.7303,5.7303,5.7303,5.7303,5.7303,5.7303,5.7303,5.7303,5.7303,5.7303,5.7303,5.7303,5.7303,5.7303,5.7303,5.7303,0.0,5.7303,5.7303,5.7303,5.7303,5.7303,5.7303,5.7303,5.7303,5.739,5.8,5.8232,5.8319,0.0,0.0,0.0,0.0,0.0,0.0,0.0,0.0,0.0,0.0,4.329,4.317,4.2871,4.311,4.317,0.0,0.0,0.0,0.0,0.0,0.0,0.0,0.0,0.0,4.2092,4.2092,4.2005,4.186,4.1715,4.1715,4.186,4.1686,4.1802,4.2092,4.2092,4.2092,4.2092,4.2092,4.2092,4.2063,4.1541,4.125,0.0,0.0,0.0,0.0,3.8609,3.8347,0.0,0.0,0.0,0.0,0.0,0.0,0.0,0.0,3.8434,3.8522,3.8986,0.0,4.1163,4.1831,4.1773,4.1715,0.0,4.2295,4.2092,4.2092,4.2092,4.2092,4.2092,4.2469,4.305,4.3863,4.4821,4.6388,4.9088,0.0,0.0,5.5823,5.649,5.6723,5.6432,5.6955,5.7303,5.7303,5.7303,5.7303,5.7303,5.7303,5.7303,5.7303,5.7303,5.7303,5.7303,5.7303,5.7303,5.7303,5.7303,5.7303,5.7303,5.7303,5.7303,5.7303,5.7303,5.7303,5.7303,5.7303,5.7303,5.7303,5.7303,5.7303,5.7332,5.7477,5.7536,5.7565,0.0,0.0,0.0,0.0,0.0,0.0,0.0,0.0,0.0,0.0,4.329,4.329,4.329,4.329,4.329,0.0,0.0,0.0,0.0,0.0,0.0,0.0,0.0,4.2092,4.2092,4.2092,4.1947,4.1628,4.1337,4.1337,4.1628,4.1337,4.1512,4.2092,4.2092,4.2092,4.2063,4.1773,4.1628,4.157,4.0902,0.0,0.0,0.0,0.0,0.0,3.8347,3.8202,0.0,3.8202,3.8202,3.8202,0.0,0.0,0.0,0.0,3.8202,3.8202,3.8202,3.8696,3.9392,4.006,4.0437,4.0815,4.1482,4.1889,4.2092,0.0,4.2092,0.0,4.244,4.3253,4.3979,4.4327,4.6214,0.0,0.0,0.0,5.5649,5.6316,5.6694,5.6868,0.0,5.71,5.7303,5.7303,5.7303,5.7303,5.7303,5.7303,5.7303,5.7303,5.7303,5.7303,5.7303,5.7303,5.7303,5.7303,5.7303,5.7303,5.7303,5.7303,5.7303,5.7303,5.7303,5.7303,5.7303,5.7303,5.7303,5.7303,5.7303,5.7303,5.7303,5.7303,5.7303,5.7303,0.0,0.0,0.0,0.0,0.0,0.0,0.0,0.0,0.0,0.0,0.0,0.0,0.0,0.0,0.0,0.0,0.0,0.0,0.0,0.0,0.0,0.0,4.2092,4.2092,4.2092,4.2005,4.1657,4.1105,4.0437,4.0379,4.0931,4.0466,4.0902,4.2092,4.2092,4.2034,4.1918,4.1337,4.1047,4.0873,4.0234,0.0,0.0,0.0,0.0,0.0,0.0,0.0,0.0,3.8202,3.8202,3.8202,3.8202,0.0,0.0,0.0,0.0,0.0,3.8318,3.8492,3.8725,3.9102,3.9654,4.0263,4.0931,4.1628,0.0,0.0,0.0,0.0,0.0,4.4095,0.0,0.0,0.0,0.0,5.3471,5.4894,5.5881,5.6345,5.649,0.0,5.7129,5.7245,5.7303,5.7303,5.7303,5.7303,5.7303,5.7303,5.7303,5.7303,5.7303,5.7303,5.7303,5.7303,5.7303,5.7303,5.7303,5.7303,5.7303,5.7303,5.7303,5.7303,0.0,0.0,5.7303,5.7303,5.7303,5.7303,5.7303,5.7303,5.7303,5.7303,5.7303,5.7303,0.0,0.0,0.0,0.0,0.0,0.0,0.0,0.0,0.0,0.0,0.0,0.0,0.0,0.0,0.0,0.0,0.0,0.0,0.0,0.0,0.0,4.2092,4.2092,4.2092,4.2092,4.1541,4.1192,4.1105,4.0437,4.0147,4.0263,4.0728,4.1366,4.2092,4.2092,4.1773,4.125,4.1134,4.0757,4.0205,3.9596,0.0,0.0,0.0,0.0,0.0,0.0,0.0,0.0,3.8202,3.8202,3.8202,3.8202,0.0,0.0,0.0,0.0,0.0,3.8899,3.9828,4.0408,3.945,3.9654,4.0263,4.0931,4.1628,4.2092,0.0,0.0,0.0,0.0,4.4327,4.4821,0.0,0.0,5.2833,0.0,0.0,5.6868,5.6461,0.0,5.7013,5.6578,5.7013,5.7303,5.7303,5.7303,5.7303,5.7303,5.7303,5.7303,5.7303,5.7303,5.7303,5.7303,5.7303,5.7303,5.7303,5.7303,5.7303,5.7303,5.7303,5.7303,5.7303,0.0,5.7303,5.7303,5.7303,5.7303,5.7303,5.7303,5.7303,5.7303,5.7303,5.7303,5.7303,0.0,0.0,0.0,0.0,0.0,0.0,0.0,0.0,0.0,0.0,0.0,0.0,0.0,0.0,0.0,0.0,0.0,0.0,0.0,0.0,4.2216,4.2092,4.2092,4.2092,4.2092,4.1802,4.1453,4.1105,4.0786,4.0437,4.0118,4.0786,4.125,4.1541,4.1541,4.1192,4.0525,4.0205,3.9886,3.9567,0.0,0.0,0.0,0.0,0.0,0.0,0.0,0.0,0.0,0.0,3.8202,3.8202,3.8202,0.0,0.0,0.0,0.0,0.0,3.858,3.9102,3.9741,4.0554,4.2005,4.3311,4.3602,4.4443,4.4879,4.3834,0.0,0.0,0.0,0.0,4.8275,5.1846,0.0,5.3762,5.5678,5.6142,5.6316,0.0,0.0,5.6839,5.6897,5.7158,5.7303,5.7303,5.7303,5.7303,5.7303,5.7303,5.7303,5.7303,5.7303,5.7303,5.7303,5.7303,5.7303,5.7303,5.7303,5.7303,5.7303,5.7303,5.7303,5.7303,0.0,5.7303,5.7303,5.7303,5.7303,5.7303,5.7303,5.7303,5.7303,5.7303,5.7303,5.7303,0.0,0.0,0.0,0.0,0.0,0.0,0.0,0.0,0.0,0.0,0.0,0.0,0.0,0.0,0.0,0.0,0.0,0.0,0.0,4.2351,4.2133,4.2092,4.2092,4.2092,4.2092,4.1773,4.1366,4.0873,4.0554,4.0321,4.0118,4.0612,4.0931,4.1076,4.0931,4.0495,3.9857,3.9392,3.9102,3.8928,0.0,0.0,0.0,0.0,0.0,0.0,0.0,0.0,0.0,0.0,0.0,0.0,0.0,0.0,0.0,3.8202,3.8202,3.8231,3.8405,3.8667,3.9392,4.157,4.3311,4.4763,4.5663,4.6505,4.6766,4.5576,4.5982,0.0,0.0,4.8808,0.0,5.472,5.4546,5.4575,5.6374,5.6171,5.6055,5.6549,5.6607,5.681,5.7274,5.7303,5.7303,5.7303,5.7303,5.7303,5.7303,5.7303,5.7303,5.7303,5.7303,5.7303,5.7303,5.7303,5.7303,5.7303,5.7303,5.7303,5.7303,5.7303,5.7303,5.7303,5.7303,5.7303,5.7303,5.7303,5.7303,5.7303,5.7303,5.7303,5.7303,5.7303,5.7303,5.7303,0.0,0.0,0.0,0.0,0.0,0.0,0.0,0.0,0.0,0.0,0.0,0.0,0.0,0.0,0.0,0.0,0.0,0.0,0.0,4.2392,4.2298,4.2092,4.2092,4.2092,4.2092,4.0873,4.0205,4.0176,3.8986,3.8986,4.0089,4.0147,4.0495,4.1076,4.0437,3.9828,3.9276,3.9218,3.8841,3.826,3.8231,0.0,0.0,0.0,0.0,0.0,0.0,0.0,0.0,0.0,0.0,0.0,0.0,0.0,3.8202,3.8202,3.8202,3.8347,3.8957,4.0002,4.1076,4.1889,4.1308,4.1453,4.5053,4.5488,4.5401,4.643,4.7619,4.8489,0.0,5.0162,5.1585,5.1904,5.382,5.5736,5.7042,0.0,5.7187,5.7245,5.7245,5.7245,5.7303,5.7303,5.7303,5.7303,5.7303,5.7303,5.7303,5.7303,5.7303,5.7303,5.7303,5.7303,5.7303,5.7303,5.7303,5.7303,5.7303,5.7303,5.7303,5.7303,5.7303,5.7303,5.7303,5.7303,5.7303,5.7303,5.7303,5.7303,5.7303,5.7303,5.7303,5.7303,5.7303,5.7303,0.0,0.0,0.0,0.0,0.0,0.0,0.0,0.0,0.0,0.0,0.0,0.0,0.0,0.0,0.0,0.0,0.0,0.0,0.0,4.2351,4.2175,4.2092,4.2092,4.1889,4.1482,4.0989,4.0321,3.9538,3.9073,3.9247,4.0089,4.0089,4.0234,4.0437,3.9828,3.9421,3.9189,3.8754,3.8667,3.8783,3.8376,3.8202,0.0,0.0,0.0,0.0,0.0,0.0,0.0,0.0,3.8202,3.8289,3.8696,3.8551,3.8347,3.916,3.9131,3.8957,3.9596,4.0728,4.1976,4.3021,4.2905,4.3427,4.6882,4.8391,4.8885,4.8112,4.9988,5.1468,0.0,0.0,5.4778,5.3617,5.5184,5.6752,5.7245,5.7303,5.7303,5.7303,5.7303,5.7303,5.7303,5.7303,5.7303,5.7303,5.7303,5.7303,5.7303,5.7303,5.7303,5.7303,5.7303,5.7303,5.7303,5.7303,5.7303,5.7303,5.7303,5.7303,5.7303,5.7303,5.7303,5.7303,5.7303,5.7303,5.7303,5.7303,5.7303,5.7303,5.7303,5.7303,5.7303,5.7303,5.7303,5.7303,0.0,0.0,0.0,0.0,0.0,0.0,0.0,0.0,0.0,0.0,0.0,0.0,0.0,0.0,0.0,0.0,0.0,0.0,4.2607,4.2392,4.214,4.1802,4.1773,4.1453,4.0786,4.0786,4.0263,3.9189,3.9189,3.9509,4.0089,4.0089,4.0089,4.0089,3.9683,3.9392,3.916,3.8725,3.8667,3.8841,3.8376,3.8202,0.0,0.0,0.0,0.0,0.0,0.0,0.0,0.0,3.8522,3.8551,3.8812,3.858,3.8405,3.9509,3.9973,4.0263,4.0844,4.1686,4.2731,4.4211,4.4414,4.5169,4.8566,5.022,5.0917,5.0627,5.2136,5.3239,5.2368,0.0,0.0,0.0,5.6084,5.7303,5.7303,5.7303,5.7303,5.7303,5.7303,5.7303,5.7303,5.7303,5.7303,5.7303,5.7303,5.7303,5.7303,5.7303,5.7303,5.7303,5.7303,5.7303,5.7303,5.7303,5.7303,5.7303,5.7303,5.7303,5.7303,5.7303,5.7303,5.7303,5.7303,5.7303,5.7303,5.7303,5.7303,5.7303,5.7303,5.7303,5.7303,5.7303,5.7303,5.7303,0.0,0.0,0.0,0.0,0.0,0.0,0.0,0.0,4.329,4.329,0.0,0.0,0.0,0.0,0.0,0.0,0.0,0.0,4.2433,4.2566,4.2192,4.1175,4.1105,4.0786,4.0118,4.0089,3.9799,3.9189,3.9189,3.9509,4.0089,4.0089,4.0089,4.0089,4.0089,3.977,3.9189,3.9189,3.8812,3.8202,3.8202,3.8202,3.8202,0.0,0.0,0.0,0.0,0.0,0.0,0.0,3.9189,3.9073,3.8434,3.8202,3.8347,3.9015,4.0583,4.2208,4.2818,4.2992,4.3485,4.5401,4.543,4.5953,4.9814,5.022,5.0685,5.3878,5.3994,5.35,5.35,5.4081,0.0,5.4517,5.6084,5.7303,5.7303,5.7303,5.7303,5.7303,5.7303,5.7303,5.7303,5.7303,5.7303,5.7303,5.7303,5.7303,5.7303,5.7303,5.7303,5.7303,5.7303,5.7303,5.7303,5.7303,5.7303,5.7303,5.7303,5.7303,5.7303,5.7303,5.7303,5.7303,5.7303,5.7303,5.7303,5.7303,5.7303,5.7303,5.7303,5.7303,5.7303,5.7303,5.7303,5.7303,0.0,0.0,0.0,0.0,0.0,0.0,0.0,0.0,4.329,4.329,4.329,0.0,0.0,0.0,0.0,0.0,0.0,0.0,4.2607,4.2392,4.217,4.1802,4.1337,4.0786,4.0118,3.9218,3.8899,3.9189,3.9189,3.9305,3.9479,3.9886,3.9857,3.9479,3.9479,3.9363,3.916,3.8696,3.8667,3.887,3.8405,3.8202,3.8202,0.0,0.0,0.0,0.0,0.0,0.0,0.0,0.0,0.0,3.8812,3.858,3.8522,4.0089,4.0612,4.0931,4.2063,4.3979,4.5721,4.5866,4.7782,5.0162,5.2194,5.2543,5.3036,5.5358,5.4604,5.35,5.35,5.5126,0.0,5.472,5.6084,5.7303,5.7303,5.7303,5.7303,5.7303,5.7303,5.7303,5.7303,5.7303,5.7303,5.7303,5.7303,5.7303,5.7303,5.7303,5.7303,5.7303,5.7303,5.7303,5.7303,5.7303,5.7303,5.7303,5.7303,5.7303,5.7303,5.7303,5.7303,5.7303,5.7303,5.7303,5.7303,5.7303,5.7303,5.7303,5.7303,5.7303,5.7303,5.7303,5.7303,5.7303,0.0,0.0,0.0,0.0,0.0,0.0,0.0,0.0,4.4067,4.4067,4.4067,4.4067,0.0,0.0,0.0,0.0,0.0,0.0,4.3455,4.3236,4.2869,4.2469,4.1831,4.1047,4.0118,3.9363,3.9044,3.9189,3.8928,3.8957,3.9218,3.9828,3.9915,3.9567,4.0118,4.006,3.9538,3.9131,3.8899,3.8783,3.8376,3.8202,3.8202,0.0,0.0,0.0,0.0,0.0,0.0,0.0,0.0,0.0,3.8754,3.8522,3.8638,4.0844,4.1221,4.1512,4.4356,4.6156,4.755,4.8972,5.0859,5.2775,5.4313,5.4662,5.4923,0.0,5.53,5.4662,5.4662,5.6113,0.0,5.5823,5.6578,5.7303,5.7303,5.7303,5.7303,5.7303,5.7303,5.7303,5.7303,5.7303,5.7303,5.7303,5.7303,5.7303,5.7303,5.7303,5.7303,5.7303,5.7303,5.7303,5.7303,5.7303,5.7303,5.7303,5.7303,5.7303,5.7303,5.7303,5.7303,5.7303,5.7303,5.7303,5.7303,5.7303,5.7303,5.7303,5.7303,5.7303,5.7303,5.7303,5.7303,5.7303,0.0,0.0,4.3469,4.3469,0.0,0.0,0.0,0.0,0.0,0.0,4.5304,4.5304,0.0,0.0,0.0,0.0,0.0,0.0,0.0,4.4562,4.4115,4.315,4.2498,4.1599,4.0321,4.0205,3.9915,3.9363,3.858,3.8522,3.9131,3.9799,4.006,4.006,4.1337,4.125,4.0089,4.0031,3.9392,3.8376,3.8376,3.8347,3.8289,3.8289,0.0,0.0,0.0,0.0,0.0,0.0,0.0,0.0,3.8405,3.8202,3.8667,4.1105,4.2005,4.3195,4.784,4.8624,4.9117,5.3239,5.4052,5.4284,5.5881,5.6316,5.6229,5.5533,0.0,5.6403,5.6403,5.6897,5.7303,5.7303,5.7303,5.7303,5.7303,5.7303,5.7303,5.7303,5.7303,5.7303,5.7303,5.7303,5.7303,5.7303,5.7303,5.7303,5.7303,5.7303,5.7303,5.7303,5.7361,5.739,5.739,5.7448,5.7477,5.7477,5.7477,5.7477,5.7477,5.7361,5.7303,5.7303,5.7303,5.7303,5.7303,5.7303,5.7332,5.739,5.739,5.7448,5.7477,5.7477,5.7477,5.7477,0.0,0.0,4.4885,4.4885,0.0,0.0,0.0,0.0,0.0,0.0,0.0,0.0,0.0,0.0,0.0,0.0,0.0,0.0,0.0,4.4451,4.4093,4.4004,4.3222,4.244,4.1686,4.1163,4.0815,4.0699,3.9015,3.8289,3.8434,3.9567,3.9857,3.9421,4.0176,4.0379,4.006,3.9596,3.9509,3.9683,3.9683,3.9421,3.8986,3.8986,3.8667,0.0,0.0,0.0,0.0,0.0,0.0,0.0,3.826,3.8202,3.8405,3.9509,4.125,4.305,4.4124,4.755,5.1033,5.1991,5.4371,5.62,5.5155,5.5707,5.6229,5.5533,5.5939,5.6403,5.6403,5.6897,5.7303,5.7303,5.7303,5.7303,5.7303,5.7303,5.7303,5.7303,5.7303,5.7303,5.7303,5.7303,5.7303,5.7303,5.7303,5.7303,5.7303,5.7303,5.7303,5.7303,5.7826,5.8087,5.8087,5.861,5.8871,5.8871,5.8871,5.8871,5.8842,5.7768,5.7303,5.7303,5.7303,5.7303,5.7303,5.7303,5.7623,5.8087,5.8087,5.8406,5.8871,5.8871,5.8871,5.8784,0.0,0.0,0.0,0.0,0.0,0.0,0.0,0.0,0.0,0.0,0.0,0.0,0.0,0.0,0.0,0.0,0.0,0.0,0.0,0.0,4.4455,4.3842,4.3293,4.2557,4.1628,4.1279,4.0931,4.0612,3.9596,3.9102,3.9131,4.0118,4.0408,4.0147,4.0757,4.0873,4.0554,4.0234,4.0118,4.0089,4.0089,3.9915,3.9625,3.9625,3.9421,3.9102,3.9102,0.0,0.0,0.0,0.0,0.0,0.0,0.0,3.8463,3.9741,4.0379,4.1424,4.4821,4.7724,5.0452,5.321,0.0,5.6055,5.4807,5.5242,5.5823,5.5474,5.5939,5.649,5.6781,5.71,5.7303,5.7303,5.7303,5.7303,5.7303,5.7303,5.7303,5.7303,5.7303,5.7303,5.7303,5.7303,5.7303,5.7303,5.7303,5.7303,5.7303,5.7594,5.7768,5.7768,5.8435,5.8784,5.8784,5.9132,5.9306,5.9306,5.9306,5.9306,5.9277,5.8581,5.8261,5.8261,5.8261,5.8261,5.8261,5.8261,5.8464,5.8784,5.8784,5.8987,5.9306,5.9306,5.9306,5.9248,0.0,0.0,0.0,0.0,0.0,0.0,0.0,0.0,0.0,0.0,0.0,0.0,0.0,0.0,0.0,0.0,0.0,0.0,0.0,0.0,0.0,4.3478,4.3251,4.2673,4.1628,4.1482,4.1163,4.0583,4.0495,4.0495,4.0612,4.0931,4.1105,4.1105,4.1686,4.1686,4.1279,4.1134,4.0844,4.0437,4.0437,4.0379,4.0263,4.0263,4.0205,4.0089,4.0089,3.977,3.9334,3.9247,0.0,0.0,0.0,0.0,3.8522,4.0118,3.977,4.0147,4.5982,4.7927,4.9553,5.4894,5.5823,0.0,5.4517,5.4981,5.5562,5.5416,5.6026,5.6723,5.7216,5.7303,5.7303,5.7303,5.7303,5.7303,5.7303,5.7303,5.7303,5.7303,5.7303,5.7303,5.7303,5.7303,5.7303,5.7303,5.7419,5.7477,5.7477,5.8116,5.8464,5.8464,5.9103,5.9451,5.9451,5.9568,5.9626,5.9626,5.9626,5.9626,5.9626,5.9626,5.951,5.9306,5.9306,5.9306,5.9306,5.9306,5.9364,5.9451,5.9451,5.9539,5.9626,5.9626,5.9626,5.9626,0.0,0.0,0.0,0.0,0.0,0.0,0.0,0.0,0.0,0.0,4.7309,4.7309,0.0,0.0,0.0,0.0,0.0,0.0,4.5768,0.0,0.0,4.3906,4.3863,4.3776,4.3602,4.3021,4.2702,4.2615,4.2092,4.2092,4.2586,4.157,4.1105,4.1105,4.1192,4.1512,4.1918,4.1337,4.1366,4.1831,4.1831,4.1482,4.096,4.096,4.0612,4.0089,4.0089,4.0031,3.9886,3.9392,3.9131,0.0,0.0,0.0,3.826,3.8522,4.0002,4.1773,4.2731,4.6563,5.112,0.0,5.5474,5.5097,0.0,0.0,5.6113,0.0,5.6345,5.7216,5.7303,5.7303,5.7303,5.7303,5.7303,5.7303,5.7303,5.7303,5.7303,5.7303,5.7303,5.7303,5.7303,5.7303,5.7303,5.7303,5.7826,5.8174,5.8174,5.8813,5.9161,5.9161,5.9771,6.009,6.009,6.0642,6.0932,6.0932,6.0932,6.0932,6.0932,6.0932,6.0351,5.9306,5.9306,5.9306,5.9306,5.9306,5.9597,6.009,6.009,6.0438,6.0932,6.0932,6.0932,6.0874,0.0,0.0,0.0,0.0,0.0,0.0,0.0,0.0,0.0,0.0,0.0,4.7309,0.0,0.0,0.0,4.6599,4.5957,4.5226,4.4363,4.3956,4.3621,4.3282,4.306,4.3018,4.3073,4.2727,4.2498,4.2498,4.2237,4.2411,4.2992,4.2411,4.215,4.215,4.215,4.2121,4.2063,4.1773,4.1831,4.2121,4.2469,4.2847,4.3195,4.2847,4.2731,4.2702,4.1976,4.1279,4.0612,4.035,4.0002,3.9596,3.8957,0.0,0.0,0.0,3.9276,4.125,4.485,4.8449,5.1875,0.0,5.5155,5.4662,5.3733,5.472,5.5765,5.5474,5.6432,5.7303,5.7303,5.7303,5.7303,5.7303,5.7303,5.7303,5.7303,5.7303,5.7303,5.7303,5.7303,5.7303,5.7303,5.7303,5.7448,5.7826,5.8145,5.8464,5.8842,5.9451,5.98,5.98,6.0438,6.0758,6.0758,6.1048,6.1193,6.1193,6.1193,6.1193,6.1193,6.1193,6.0903,6.0351,6.0351,6.0351,6.0351,6.0351,6.0526,6.0758,6.0758,6.0932,6.1193,6.1193,6.1193,6.1164,0.0,0.0,0.0,0.0,0.0,0.0,0.0,0.0,0.0,0.0,0.0,0.0,0.0,0.0,0.0,0.0,4.5441,4.4464,4.3224,4.3052,4.2889,4.2637,4.2298,4.2175,4.231,4.2175,4.2092,4.2092,4.2092,4.2411,4.2992,4.2992,4.2992,4.2992,4.2992,4.2644,4.2092,4.2092,4.2092,4.2179,4.3108,4.4037,4.4879,4.4937,4.5227,4.5459,4.4182,4.3021,4.1976,4.1512,4.0902,4.0234,3.9625,3.9421,0.0,0.0,0.0,4.0612,4.604,0.0,5.0627,5.3675,5.3994,5.353,0.0,0.0,5.5184,0.0,5.62,5.7071,5.7071,5.7216,5.7303,5.7303,5.7303,5.7303,5.7303,5.7303,5.7303,5.7303,5.7303,5.7303,5.7303,5.7448,5.7768,5.8261,5.861,5.9016,5.951,6.0119,6.0438,6.0438,6.0932,6.1193,6.1193,6.1193,6.1193,6.1193,6.1193,6.1193,6.1193,6.1193,6.1193,6.1193,6.1193,6.1193,6.1193,6.1193,6.1193,6.1193,6.1193,6.1193,6.1193,6.1193,6.1193,6.1193,0.0,0.0,0.0,0.0,0.0,0.0,0.0,0.0,0.0,0.0,0.0,0.0,4.7249,4.6172,4.558,4.5994,4.481,4.369,4.2777,4.2368,4.2245,4.2392,4.2216,0.0,4.2133,4.2092,4.2092,4.2092,4.2092,4.2411,4.2992,4.2992,4.2992,4.2992,4.2992,4.2644,4.2092,4.2092,4.2092,4.2266,4.4066,4.4821,4.5082,4.6882,4.7608,4.7462,4.6185,4.5285,4.4414,4.2644,0.0,0.0,0.0,0.0,3.9915,0.0,0.0,0.0,0.0,4.4734,0.0,5.0714,5.1352,5.1323,0.0,0.0,5.4575,5.4575,5.5562,5.6461,5.6461,5.6926,5.7303,5.7303,5.7303,5.7303,5.7303,5.7303,5.7303,5.7303,5.7303,5.7303,5.7303,5.7884,5.8261,5.829,5.9422,6.0119,6.0148,6.0787,6.1135,6.1135,6.1164,6.1193,6.1193,6.1193,6.1193,6.1193,6.1193,6.1193,6.1193,6.1193,6.1193,6.1193,6.1193,6.1193,6.1193,6.1193,6.1193,6.1193,6.1193,6.1193,6.1193,6.1193,6.1193,6.1193,0.0,0.0,0.0,0.0,0.0,0.0,0.0,0.0,0.0,0.0,0.0,0.0,0.0,4.6232,4.5651,4.4971,4.4105,4.3318,4.2758,4.2596,4.2514,4.2566,4.2298,4.2175,4.2298,4.2175,4.2092,4.2092,4.2092,4.2411,4.2992,4.2992,4.2992,4.2992,4.2992,4.2644,4.2092,4.2092,4.2092,4.2295,4.4589,4.6011,4.6766,4.7056,4.8449,4.9901,4.7404,0.0,0.0,0.0,0.0,0.0,0.0,0.0,0.0,0.0,0.0,0.0,0.0,0.0,0.0,4.8943,5.022,5.0946,5.2049,5.3442,5.4633,5.501,5.5794,5.6403,5.6403,5.6897,5.7303,5.7303,5.7303,5.7303,5.7303,5.7303,5.7303,5.7303,5.7303,5.7477,5.7913,5.8174,5.8639,5.9451,5.9945,6.038,6.0816,6.1077,6.1193,6.1193,6.1193,6.1193,6.1193,6.1193,6.1193,6.1193,6.1193,6.1193,6.1193,6.1193,6.1193,6.1193,6.1193,6.1193,6.1193,6.1193,6.1193,6.1193,6.1193,6.1193,6.1193,6.1193,6.1193,6.1193,0.0,0.0,0.0,4.7764,0.0,4.7624,4.7352,4.7309,4.7309,4.7309,0.0,0.0,0.0,0.0,4.4904,4.3926,4.3449,4.305,4.2729,4.2648,4.2607,4.2607,4.2269,4.2175,4.2298,4.1942,4.1976,4.2382,4.1976,4.2179,4.2992,4.2789,4.2702,4.2702,4.2702,4.2469,4.2092,4.2092,4.2092,4.2382,4.5547,4.6824,4.6969,4.8508,4.9727,5.0452,0.0,0.0,0.0,0.0,0.0,0.0,0.0,0.0,0.0,0.0,0.0,0.0,4.3689,0.0,0.0,0.0,4.8246,4.9524,5.1236,0.0,5.3849,5.4894,5.5474,5.5823,5.6026,5.6578,5.7071,5.7274,5.7303,5.7303,5.7303,5.7303,5.7303,5.7303,5.7507,5.7826,5.8261,5.8697,5.9277,6.0148,6.0409,0.0,6.1164,6.1193,6.1193,6.1193,6.1193,6.1193,6.1193,6.1193,6.1193,6.1193,6.1193,6.1193,6.1193,6.1193,6.1193,6.1193,6.1193,6.1193,6.1193,6.1193,6.1193,6.1193,6.1193,6.1193,6.1193,6.1193,6.1193,6.1193,4.8584,4.9166,4.9487,4.8697,4.8573,4.8282,4.7409,4.7279,4.7279,4.7279,0.0,0.0,0.0,0.0,0.0,4.3021,4.301,4.296,4.2758,4.2544,4.245,4.2421,4.2245,4.2121,4.2092,4.1453,4.1744,4.2992,4.1744,4.1773,4.2992,4.2382,4.2121,4.2092,4.2092,4.2092,4.2092,4.2092,4.2121,4.2498,4.694,4.723,4.5663,5.1323,5.1585,0.0,5.1033,5.0859,0.0,4.9785,0.0,0.0,0.0,0.0,0.0,0.0,0.0,0.0,0.0,0.0,0.0,0.0,0.0,0.0,5.0627,0.0,5.2165,5.4052,5.4517,5.472,5.5271,5.5939,5.6578,5.7187,5.7303,5.7303,5.7303,5.7303,5.7303,5.7303,5.7884,5.8319,5.8319,5.9451,6.0206,6.0235,6.0816,6.1193,6.1193,6.1193,6.1193,6.1193,6.1193,6.1193,6.1193,6.1193,6.1193,6.1193,6.1193,6.1193,6.1193,6.1193,6.1193,6.1193,6.1193,6.1193,6.1193,6.1193,6.1193,6.1193,6.1193,6.1193,6.1193,6.1193,6.1193,6.1193,4.7825,4.7935,4.7934,4.7709,4.7666,4.7581,4.7352,4.689,4.6591,0.0,0.0,0.0,4.4915,4.3917,4.329,4.321,4.3537,4.3682,4.3642,4.3713,4.3646,4.3372,4.2969,4.2611,4.2339,4.2,4.2208,4.2992,4.2644,4.2644,4.2992,4.2818,4.2498,4.2092,4.2092,4.2092,4.2092,4.2092,4.2353,4.3108,4.7114,4.8566,4.8682,5.1701,0.0,0.0,0.0,5.2484,5.1846,0.0,4.9669,4.5837,0.0,0.0,0.0,0.0,0.0,0.0,4.1831,0.0,0.0,0.0,0.0,0.0,4.7695,4.9959,5.1904,5.2891,5.4197,5.5068,5.4807,5.5271,5.591,5.6549,5.7013,5.7303,5.7303,5.7303,5.7303,5.7303,5.7884,5.8493,5.8987,5.9742,6.0409,0.0,6.1106,6.1193,6.1193,6.1193,6.1193,6.1193,6.1193,6.1193,6.1193,6.1193,6.1193,6.1193,6.1193,6.1193,6.1193,6.1193,6.1193,6.1193,6.1193,6.1193,6.1193,6.1193,6.1193,6.1193,6.1193,6.1193,6.1193,6.1193,6.1193,6.1193,4.8035,4.8034,4.7914,4.7507,4.7711,4.7627,4.6629,4.6689,4.6592,0.0,0.0,0.0,4.3988,4.3768,4.3589,4.3319,4.3807,4.4032,4.3897,4.4322,4.4242,4.3429,4.3244,4.2869,4.2298,4.1913,4.2121,4.2992,4.2469,4.2469,4.2992,4.2731,4.244,4.2092,4.2092,4.2237,4.2469,4.2469,4.2673,4.3369,4.7782,4.9117,4.8885,5.2397,5.3849,0.0,0.0,0.0,5.353,5.4429,5.1236,0.0,0.0,0.0,0.0,0.0,0.0,0.0,0.0,0.0,0.0,0.0,0.0,0.0,4.7491,4.9698,5.1788,0.0,5.4836,5.53,5.4952,5.5184,5.5533,5.5939,5.6287,5.6694,5.7216,5.7303,5.7303,5.7303,5.8145,5.8871,5.9277,6.009,6.0787,6.1164,6.1193,6.1193,6.1193,6.1193,6.1193,6.1193,6.1193,6.1193,6.1193,6.1193,6.1193,6.1193,6.1193,6.1193,6.1222,6.1454,6.1571,6.16,6.1861,6.1977,6.1977,6.1977,6.1687,6.1193,6.1193,6.1193,6.1193,6.1193,6.1193,6.1193,0.0,4.8796,4.8574,4.7719,4.8166,4.791,4.5733,4.6518,4.6875,0.0,4.4825,4.4197,4.3589,4.4018,4.4077,4.3439,4.4007,4.4232,4.3808,4.4625,4.4545,4.3222,4.3361,4.304,4.2133,4.1512,4.1802,4.2992,4.186,4.1889,4.2992,4.244,4.2208,4.2208,4.2208,4.2528,4.3108,4.3166,4.334,4.3921,4.8595,4.9204,4.7909,0.0,5.3733,5.1788,5.4604,5.5184,5.4749,5.5591,5.3297,0.0,0.0,0.0,0.0,0.0,4.2469,0.0,0.0,0.0,0.0,0.0,0.0,0.0,4.8159,4.9553,5.112,5.4633,5.5039,5.4778,5.4778,5.472,5.472,5.4865,5.4952,5.5503,5.6984,5.7216,5.7216,5.7303,5.8493,5.9306,5.9306,6.0438,6.1193,6.1193,6.1193,6.1193,6.1193,6.1193,6.1193,6.1193,6.1193,6.1193,6.1193,6.1193,6.1222,6.1309,6.1309,6.1338,6.1425,6.1948,6.2209,6.2238,6.2848,6.308,6.308,6.308,6.2412,6.1396,6.1396,6.1396,6.1396,6.1396,6.1367,6.1309,4.7984,4.7933,4.7643,4.6865,4.7296,4.7364,4.6269,4.592,4.5842,4.6052,4.5514,4.5065,4.4915,4.4556,4.4257,4.4137,4.4571,4.4751,4.4428,4.5418,4.5405,4.4105,4.3947,4.338,4.238,4.2029,4.2266,4.2992,4.2731,4.276,4.2992,4.2876,4.2818,4.2818,4.2818,4.3195,4.3834,4.4298,4.543,4.6969,4.8508,4.9727,5.1033,5.4197,5.5649,5.6084,5.6723,5.62,5.4952,5.3152,5.2659,5.2136,0.0,0.0,0.0,4.456,0.0,0.0,0.0,0.0,0.0,0.0,0.0,0.0,4.4008,4.5605,4.7172,0.0,4.9814,5.0801,5.0801,5.0365,5.0365,5.1439,5.202,5.3355,5.62,5.6578,5.6781,5.7245,5.8493,5.9306,5.9306,6.0438,6.1193,6.1193,6.1193,6.1193,6.1193,6.1193,6.1193,6.1193,6.1193,6.1193,6.1193,6.1193,6.1425,6.1919,6.1919,6.2209,6.2732,6.2848,6.2906,6.2906,6.3022,6.308,6.308,6.308,6.2935,6.2732,6.2732,6.2732,6.2732,6.2732,6.2383,6.1919,4.7171,4.6929,4.6522,4.6178,4.6663,4.6764,4.5586,4.5445,4.5536,4.586,4.5823,4.5813,4.5813,4.5514,4.5143,4.4691,4.5173,4.5306,4.4934,4.5845,4.5874,4.4647,4.4297,4.3685,4.2723,4.232,4.2237,4.2557,4.2557,4.2702,4.2992,4.2992,4.3689,4.485,4.3921,4.4385,4.5837,4.5169,4.5634,4.7027,4.9262,5.1497,5.3762,5.5997,5.7448,5.829,5.829,5.7884,5.7158,5.5881,5.4371,0.0,0.0,4.9785,4.8304,0.0,4.6024,4.633,0.0,0.0,0.0,4.3108,0.0,0.0,0.0,4.6388,4.7666,4.8943,4.9727,5.0124,0.0,0.0,4.8827,4.9175,5.0307,5.1497,5.2455,5.4807,5.652,5.6839,5.829,5.9306,5.9306,6.0438,6.1193,6.1193,6.1193,6.1193,6.1193,6.1193,6.1193,6.1193,6.1193,6.1193,6.1193,6.1483,6.1803,6.2093,6.2441,6.2761,6.3109,6.3428,6.3574,6.3574,6.3893,6.4038,6.4038,6.4038,6.4038,6.398,6.3341,6.308,6.308,6.308,6.2877,6.2587,4.6756,4.655,4.6092,4.5949,4.6375,4.6328,4.4901,4.5194,4.5577,4.562,4.6429,4.6983,4.6983,4.7179,4.6959,4.6251,4.6725,4.6653,4.58,4.6608,4.6577,4.5533,4.4792,4.418,4.3747,4.2905,4.2382,4.2266,4.2382,4.2644,4.2992,4.3137,4.4356,4.6372,4.5227,4.5721,4.7346,4.6272,4.633,4.7462,5.0685,5.292,5.4546,5.6752,5.8058,5.8784,5.9161,5.9306,5.9248,5.8871,5.6316,5.3355,5.353,5.1672,0.0,0.0,0.0,0.0,0.0,0.0,0.0,0.0,0.0,4.5111,0.0,0.0,0.0,0.0,0.0,0.0,0.0,0.0,0.0,0.0,0.0,0.0,0.0,0.0,0.0,5.5271,5.7448,5.8871,5.8755,5.9887,6.0787,6.1164,6.0845,6.0816,6.1164,6.1193,6.1193,6.1193,6.1193,6.1251,6.1367,6.1861,6.2209,6.247,6.3022,6.3341,6.3457,6.398,6.4212,6.4241,6.4764,6.4996,6.4996,6.4996,6.4996,6.488,6.3864,6.3457,6.3457,6.3457,6.337,6.3283,4.7801,4.7803,4.7538,4.6793,4.6702,4.641,4.5519,4.5384,4.556,4.6119,4.8089,4.938,4.938,5.02,5.0707,5.06,5.0659,4.9886,4.7904,4.8448,4.8413,4.7538,4.5795,4.533,4.6314,4.4676,4.3485,4.2905,4.3485,4.3515,4.2992,4.3602,4.4327,4.5169,4.6679,4.6882,4.6243,4.8304,5.0191,5.1904,5.2891,5.2107,0.0,5.3791,5.5707,5.6955,5.8697,5.9306,5.9045,0.0,5.6403,5.53,0.0,5.263,5.4197,0.0,0.0,0.0,0.0,0.0,0.0,0.0,4.4037,0.0,0.0,0.0,4.4734,4.5488,0.0,0.0,0.0,0.0,0.0,0.0,0.0,0.0,0.0,0.0,0.0,5.1178,5.4981,5.7332,5.6781,5.7884,5.9335,6.1077,5.9597,5.9393,6.1106,6.1193,6.1193,6.1193,6.1193,6.1454,6.1977,6.2064,6.2674,6.3772,6.383,6.4241,6.4764,6.4851,6.488,6.488,6.4967,6.4996,6.4996,6.4996,6.4996,6.4967,6.4822,6.4764,6.4764,6.4764,6.4415,6.3859,4.7529,4.73,4.702,4.6192,4.5722,4.5597,4.6153,4.7004,4.7435,4.6916,4.7822,4.8755,4.9461,4.9271,0.0,0.0,0.0,4.9969,0.0,0.0,4.8225,4.6737,4.5518,4.514,4.5692,4.4589,4.3863,4.3573,4.3863,4.4037,4.4095,4.4385,4.543,4.7143,4.7956,4.8856,4.9843,5.0917,5.141,5.1664,0.0,5.3007,0.0,5.6171,5.861,5.9858,6.1077,6.1483,6.1367,0.0,5.8552,0.0,0.0,0.0,0.0,0.0,0.0,0.0,0.0,0.0,0.0,0.0,0.0,0.0,4.5343,0.0,4.5169,0.0,0.0,0.0,0.0,0.0,0.0,0.0,4.5053,0.0,0.0,0.0,0.0,0.0,0.0,0.0,5.6723,5.8435,5.9916,6.1106,6.009,5.9916,6.1135,6.1193,6.1193,6.1193,6.1193,6.1483,6.2093,6.247,6.3138,6.3975,6.4415,6.4735,6.4996,6.4996,6.4996,6.4996,6.4996,6.4996,6.4996,6.4996,6.4996,6.4996,6.4996,6.4996,6.4996,6.4996,6.4822,6.459,4.7673,4.7198,4.6961,4.6559,4.5515,4.521,4.6461,4.787,4.8337,4.7336,4.7644,4.826,4.9175,4.9321,0.0,0.0,5.1871,5.1554,0.0,0.0,4.9146,0.0,0.0,0.0,0.0,4.5256,4.4414,4.424,4.4414,4.4647,4.4879,4.5082,4.6156,4.7985,4.8682,5.0046,5.1897,0.0,5.2862,5.2688,5.4923,5.5678,5.5794,5.8987,6.1106,6.2441,6.2906,6.308,6.3022,6.247,6.0148,0.0,5.9364,0.0,0.0,0.0,0.0,0.0,4.8682,0.0,0.0,0.0,0.0,0.0,0.0,0.0,0.0,0.0,0.0,0.0,0.0,0.0,0.0,0.0,0.0,4.5169,0.0,0.0,0.0,0.0,0.0,0.0,0.0,5.771,5.9132,6.0322,5.9771,5.9916,6.1135,6.1193,6.1193,6.1193,6.1367,6.1745,6.2354,6.3022,6.3661,6.4299,6.4764,6.4996,6.4996,6.4996,6.4996,6.4996,6.4996,6.4996,6.4996,6.4996,6.4996,6.4996,6.4996,6.4996,6.4996,6.4996,6.4996,6.4996,4.9004,4.8311,4.8104,4.8858,4.7039,4.5642,4.6221,4.686,4.7186,4.6943,4.8168,4.9062,0.0,0.0,0.0,0.0,0.0,5.6287,5.4458,0.0,5.2339,0.0,0.0,4.7608,0.0,0.0,4.5518,4.485,4.5518,4.5518,4.4908,4.5547,4.5895,4.6098,4.8595,4.9727,5.0037,5.3123,5.5474,5.7216,5.8581,6.0584,6.2558,0.0,6.1396,6.3051,6.308,0.0,0.0,6.0932,6.0206,0.0,0.0,0.0,0.0,0.0,0.0,0.0,0.0,0.0,0.0,4.8188,0.0,0.0,0.0,0.0,4.5895,0.0,0.0,0.0,0.0,0.0,0.0,0.0,0.0,0.0,0.0,0.0,0.0,0.0,0.0,0.0,0.0,5.4284,5.5736,5.8203,5.7768,5.8523,6.1048,6.1193,6.1193,6.1193,6.1774,6.2383,6.3051,6.369,6.4328,6.4967,6.4967,6.4996,6.4996,6.4996,6.4996,6.4996,6.4996,6.4996,6.4996,6.4996,6.4996,6.4996,6.4996,6.4996,6.4996,6.4996,6.4996,6.4996,4.9809,4.9127,4.8541,4.8216,4.6686,4.5672,4.6239,4.728,4.8257,4.8759,4.9186,5.0262,0.0,5.3325,5.4599,0.0,0.0,5.6868,5.5852,5.3965,0.0,0.0,0.0,4.7521,0.0,0.0,0.0,0.0,4.5779,4.5779,4.5576,4.6214,4.6505,4.6621,4.9204,5.1294,0.0,0.0,0.0,0.0,0.0,6.1309,6.2441,0.0,6.3138,6.3777,6.4183,6.4357,0.0,6.3574,6.2499,6.1454,6.1454,6.0613,5.9393,5.829,5.7971,5.7448,0.0,0.0,5.4952,5.1759,0.0,0.0,0.0,0.0,0.0,0.0,0.0,0.0,0.0,0.0,0.0,0.0,0.0,0.0,0.0,0.0,0.0,0.0,0.0,0.0,0.0,0.0,0.0,5.7536,5.861,5.98,6.1135,6.1193,6.1193,6.1193,6.1774,6.2412,6.308,6.3719,6.4357,6.4996,6.4996,6.4996,6.4996,6.4996,6.4996,6.4996,6.4996,6.4996,6.4996,6.4996,6.4996,6.4996,6.4996,6.4996,6.4996,6.4996,6.4996,6.4996,5.0416,4.9695,4.8788,4.8206,4.7296,4.6603,4.6514,4.7692,4.8923,4.9787,4.9979,0.0,5.3737,0.0,5.5267,0.0,5.7736,5.7565,5.649,5.5242,0.0,5.3965,5.0888,0.0,0.0,0.0,0.0,0.0,0.0,4.6563,4.6563,4.6969,4.7172,4.7259,4.9146,5.1788,5.4923,5.6374,5.8406,0.0,0.0,6.2587,0.0,0.0,6.4096,6.3806,0.0,6.4996,6.4996,6.4996,6.4154,6.3254,6.4125,6.2964,6.1338,6.1338,6.07,5.9713,5.8203,5.8377,0.0,5.5039,5.4546,0.0,5.0307,0.0,0.0,0.0,0.0,0.0,0.0,0.0,0.0,0.0,0.0,0.0,0.0,4.5895,0.0,0.0,0.0,0.0,0.0,0.0,5.5039,5.7477,5.8406,5.9539,0.0,6.1193,6.1309,6.1513,6.2122,6.2761,6.3428,6.4067,6.459,6.4996,6.4996,6.4996,6.4996,6.4996,6.4996,6.4996,6.4996,6.4996,6.4996,6.4996,6.4996,6.4996,6.4996,6.4996,6.4996,6.4996,6.4996,6.4996,5.0707,4.988,4.8816,4.8812,4.8726,4.8258,4.7103,4.8009,4.9179,5.0143,5.0708,5.1701,5.3617,5.5503,5.6607,5.6636,5.8348,5.861,5.6781,5.6549,0.0,0.0,5.4662,5.4458,5.6374,0.0,0.0,0.0,0.0,4.7782,4.7782,4.7811,4.7811,4.784,4.8508,0.0,5.5503,5.6171,5.9045,6.3196,6.3835,6.4415,6.4909,6.4967,6.4183,6.3254,6.4532,6.4996,6.4996,6.4996,6.4996,6.4996,6.4996,6.4996,6.4996,6.4996,6.4996,6.459,6.2732,6.1367,5.9974,5.8029,5.6607,0.0,0.0,0.0,5.2798,0.0,0.0,0.0,0.0,0.0,0.0,0.0,0.0,0.0,0.0,0.0,0.0,0.0,0.0,0.0,0.0,5.0124,5.2107,5.7652,5.7042,5.7797,0.0,6.1077,6.1338,6.2064,6.2732,6.3399,6.3975,6.4677,6.4996,6.4996,6.4996,6.4996,6.4996,6.4996,6.4996,6.4996,6.4996,6.4996,6.4996,6.4996,6.4996,6.4996,6.4996,6.4996,6.4996,6.4996,6.4996,6.4996,4.8578,4.8026,4.7685,4.8018,4.803,4.7855,4.7422,4.858,5.03,5.2632,5.4095,5.5852,5.8232,5.8929,5.9422,5.9916,6.0409,0.0,0.0,0.0,0.0,5.919,5.6026,5.4923,5.6374,5.263,0.0,5.0734,0.0,0.0,4.7782,4.8275,4.8478,4.8537,0.0,5.2397,5.62,5.681,5.9684,6.3864,6.4473,6.427,6.369,0.0,6.4183,6.3254,6.4532,6.4996,6.4996,6.4996,6.4996,6.4996,6.4996,6.4996,6.4996,6.4996,6.4996,6.488,6.4386,6.4009,6.3283,6.1338,6.0293,5.9074,0.0,0.0,0.0,0.0,0.0,0.0,0.0,0.0,0.0,0.0,0.0,0.0,0.0,0.0,0.0,4.5895,0.0,0.0,4.7172,5.0037,5.263,5.4604,5.5765,5.7797,6.1019,0.0,5.948,6.2006,6.2732,6.3399,6.3975,6.4677,6.4996,6.4996,6.4996,6.4996,6.4996,6.4996,6.4996,6.4996,6.4996,6.4996,6.4996,6.4996,6.4996,6.4996,6.4996,6.4996,6.4996,6.4996,6.4996,6.4996,4.8418,4.813,4.7789,4.7578,4.8462,4.9086,4.8681,4.9103,5.0572,5.3768,5.518,0.0,5.9539,6.0526,6.1309,6.1977,6.2035,0.0,6.0816,0.0,0.0,5.9829,5.8523,5.8029,5.8493,5.5562,0.0,5.2746,0.0,0.0,4.8624,4.8972,4.9146,4.9175,0.0,5.2223,5.5765,5.8319,6.1048,6.3719,6.4619,6.4561,0.0,6.5025,6.4967,6.4473,6.546,6.5635,6.5431,6.5722,6.5809,6.5809,6.5809,6.5809,6.5809,6.5809,6.5809,6.5751,6.5489,6.5402,6.5083,6.369,6.3109,6.2238,5.9916,5.9132,5.8784,0.0,5.7448,5.6781,0.0,0.0,0.0,0.0,0.0,0.0,0.0,0.0,0.0,0.0,4.6824,0.0,4.5576,4.9524,5.2543,5.3442,5.4517,5.6055,0.0,0.0,5.9132,6.1193,6.2732,6.3806,6.4444,6.4793,6.4996,6.4996,6.4996,6.4996,6.4996,6.4996,6.4996,6.4996,6.4996,6.4996,6.4996,6.4996,6.4996,6.4996,6.4996,6.4996,6.4996,6.4996,6.4996,6.4996,4.9004,4.8875,4.8325,4.7561,4.9435,5.0982,5.0827,5.0447,5.14,5.4691,0.0,5.7187,5.9539,6.1251,6.247,6.3051,0.0,6.2383,6.07,6.2151,6.2122,5.9887,6.1367,6.1977,6.1454,5.948,0.0,0.0,0.0,5.1635,4.9717,4.9717,4.9717,0.0,0.0,0.0,0.0,6.0206,6.2645,6.3457,6.4648,6.5112,6.517,6.5809,6.6041,6.6128,6.6767,6.6593,6.6128,6.668,6.6883,6.6883,6.6883,6.6883,6.6883,6.6883,6.6883,6.6767,6.6215,6.6041,6.5925,6.5373,6.517,6.4677,6.2964,6.2529,6.247,6.247,6.07,5.9945,0.0,0.0,0.0,0.0,0.0,0.0,0.0,0.0,0.0,0.0,0.0,0.0,4.4995,4.874,5.1701,5.2804,5.2891,0.0,0.0,0.0,5.9248,6.0526,6.2819,6.4328,6.4967,6.4996,6.4996,6.4996,6.4996,6.4996,6.4996,6.4996,6.4996,6.4996,6.4996,6.4996,6.4996,6.4996,6.4996,6.4996,6.4996,6.4996,6.4996,6.4996,6.4996,6.4996,4.7629,4.7554,4.7695,4.8312,5.0124,5.2158,5.4163,5.5267,5.6488,5.8232,5.9887,6.1309,6.2325,6.2732,6.2964,6.308,6.308,0.0,0.0,0.0,0.0,6.2441,6.2732,6.2877,6.2761,6.038,5.8174,0.0,5.3762,5.1635,4.9717,4.9717,0.0,0.0,0.0,0.0,5.8668,6.1658,0.0,6.4706,6.546,6.5751,6.5838,6.6476,6.6709,6.6796,6.7463,6.7289,6.6738,6.6854,6.6883,6.6883,6.6883,6.6883,6.6883,6.6883,6.6883,6.6854,6.6738,6.6709,6.668,6.6564,6.6157,6.5664,6.5344,6.4851,6.4473,6.4473,6.4125,6.3486,6.247,0.0,0.0,0.0,0.0,0.0,0.0,0.0,0.0,0.0,0.0,0.0,0.0,4.7521,4.9272,0.0,0.0,0.0,0.0,0.0,5.7565,0.0,6.3545,6.4328,0.0,0.0,6.4996,6.4996,6.4996,6.4996,6.4996,6.4996,6.4996,6.4996,6.4996,6.4996,6.4996,6.4996,6.4996,6.4996,6.4996,6.4996,6.4996,6.4996,6.4996,6.4996,4.816,0.0,0.0,0.0,5.2601,5.4865,5.71,5.8784,5.9684,5.9335,6.0351,6.1367,6.2035,6.2993,6.3719,6.4038,6.4067,6.4067,6.4067,6.4067,6.3922,6.3603,6.3574,0.0,6.3109,6.189,6.0003,5.739,5.5794,5.3704,5.1228,5.083,0.0,5.0772,0.0,5.5649,0.0,0.0,0.0,6.4561,6.5548,6.6128,6.6506,6.7144,6.7405,6.7492,6.8131,6.816,6.7899,6.7899,6.7899,6.7899,6.7899,6.7899,6.7899,6.7899,6.7899,6.7812,6.7492,6.7405,6.7318,6.697,6.6651,6.6418,6.6418,6.6186,6.5867,6.5548,6.5489,6.4677,6.2122,5.9539,0.0,0.0,0.0,0.0,0.0,0.0,0.0,0.0,0.0,0.0,0.0,0.0,0.0,0.0,0.0,0.0,0.0,0.0,5.7855,0.0,0.0,0.0,6.4996,0.0,6.4996,6.4996,6.4996,6.4996,6.4996,6.4996,6.4996,6.4996,6.4996,6.4996,6.4996,6.4996,6.4996,6.4996,6.4996,6.4996,6.4996,6.4996,6.4996,6.4996,4.9668,5.0106,0.0,0.0,5.5416,5.7594,5.9248,6.1222,6.1977,6.0496,6.0729,6.1251,6.1919,6.3341,6.4444,6.4938,6.4996,6.4996,6.4996,6.4996,6.4764,6.427,6.4241,6.4009,6.3516,6.337,6.1861,0.0,5.7971,5.5968,5.2978,0.0,0.0,0.0,0.0,0.0,0.0,0.0,6.3748,6.4497,6.5838,6.6651,6.7173,6.7841,6.8073,6.8131,6.8654,6.8828,6.8828,6.8828,6.8828,6.8828,6.8828,6.8828,6.8828,6.8828,6.8828,6.8712,6.8218,6.8073,6.7957,6.7434,6.7202,6.7086,6.7086,6.697,6.6738,6.6244,6.6012,6.5054,6.2122,6.0584,0.0,0.0,0.0,0.0,0.0,0.0,0.0,0.0,0.0,0.0,0.0,0.0,0.0,0.0,0.0,0.0,5.4371,0.0,0.0,0.0,0.0,6.4299,6.4183,0.0,6.4996,6.4996,6.4996,6.4996,6.4996,6.4996,6.4996,6.4996,6.4996,6.4996,6.4996,6.5141,6.5112,6.4996,6.4996,6.5083,6.5199,6.5199,6.5257,6.5373,0.0,0.0,5.3094,0.0,0.0,5.9277,6.0003,6.2238,6.3743,6.354,6.3569,6.3922,6.4561,6.4793,6.4909,6.4967,6.4996,6.4996,6.4996,6.4996,6.4967,6.4909,6.4909,6.488,6.4822,6.4241,6.2964,0.0,5.9103,5.6868,0.0,0.0,0.0,0.0,0.0,0.0,0.0,6.3545,6.4584,6.5867,6.7173,6.7725,6.7841,6.8509,6.8741,6.8741,6.8799,6.8828,6.8828,6.8828,6.8828,6.8828,6.8828,6.8828,6.8828,6.8828,6.8828,6.8828,6.8741,6.8741,6.8712,6.8654,6.8218,6.7783,6.7783,6.7318,6.6854,6.6796,6.6331,6.5315,6.3283,6.3719,6.3748,0.0,0.0,0.0,0.0,0.0,0.0,0.0,0.0,0.0,0.0,5.1817,0.0,0.0,4.9465,0.0,0.0,0.0,0.0,6.0206,6.1629,6.2093,6.1542,6.3835,6.4996,6.4996,6.4996,6.4996,6.4996,6.4996,6.4996,6.4996,6.4996,6.4996,6.5025,6.5606,6.5489,6.4996,6.4996,6.5344,6.5838,6.5838,6.6215,6.6622,0.0,5.4865,5.5678,5.8232,5.9335,6.0438,6.2238,6.337,6.412,6.4561,6.4619,6.4706,6.4967,6.4996,6.4996,6.4996,6.4996,6.4996,6.4996,6.4996,6.4996,6.4996,6.4996,6.4996,6.4996,6.4735,6.3864,0.0,0.0,0.0,0.0,0.0,0.0,0.0,0.0,6.2093,6.3748,6.5141,6.6273,6.7144,6.7667,6.8102,6.8479,6.8741,6.8828,6.8828,6.8828,6.8828,6.8828,6.8828,6.8828,6.8828,6.8828,6.8828,6.8828,6.8828,6.8828,6.8828,6.8828,6.8828,6.8828,6.8828,6.8625,6.845,6.845,6.8247,6.7957,6.7551,6.697,6.6273,6.5519,6.4532,6.3951,6.4328,0.0,0.0,0.0,0.0,0.0,0.0,0.0,0.0,0.0,0.0,0.0,0.0,0.0,0.0,0.0,0.0,0.0,6.0729,0.0,6.3516,6.2906,6.4299,6.4996,6.4996,6.4996,6.4996,6.4996,6.5373,6.5751,6.6128,6.6128,6.6128,6.6157,6.6389,6.6128,6.5548,6.5548,6.5489,6.5373,6.5373,6.5751,6.6215,5.71,5.739,5.8203,6.038,6.1077,6.1948,6.3714,6.4183,6.4473,6.4938,6.4996,6.4996,6.4996,6.4996,6.4996,6.4996,6.4996,6.4996,6.4996,6.4996,6.4996,6.4996,6.4996,0.0,6.4996,6.4996,6.4561,6.3661,6.189,0.0,0.0,0.0,0.0,0.0,6.3254,6.4212,6.5257,6.6593,6.7463,6.7899,6.8073,6.8421,6.8828,6.8828,6.8828,6.8828,6.8828,6.8828,6.8828,6.8828,6.8828,6.8828,6.8828,6.8828,6.8828,6.8828,6.8828,6.8828,6.8828,6.8828,6.8828,6.8828,6.8828,6.8828,6.8828,6.8828,6.8712,6.8247,6.7638,6.7173,6.7173,6.5548,6.4648,6.5983,0.0,0.0,0.0,0.0,0.0,0.0,6.1164,5.9393,5.89,5.5474,0.0,0.0,0.0,0.0,0.0,0.0,0.0,0.0,0.0,0.0,6.3196,6.4386,6.4996,6.4996,6.517,6.5257,6.5286,6.5925,6.6447,6.6883,6.7086,6.7057,6.6912,6.7086,6.6796,6.6215,6.6215,6.6041,6.5809,6.5606,6.5954,6.6389,5.9016,5.9742,6.0555,6.1832,6.3138,6.3946,6.3975,6.4561,6.4967,6.4996,6.4996,6.4996,6.4996,6.4996,6.4996,6.4996,6.4996,6.4996,6.4996,6.4996,6.4996,0.0,0.0,6.4996,6.4996,6.4996,6.4967,6.4967,0.0,0.0,6.2035,0.0,6.2499,6.4938,6.4967,6.6041,6.7841,6.787,6.787,6.7928,6.8567,6.8828,6.8828,6.8828,6.8828,6.8828,6.8828,6.8828,6.8828,6.8828,6.8828,6.8828,6.8828,6.8828,6.8828,6.8828,6.8828,6.8828,6.8828,6.8828,6.8828,6.8828,6.8828,6.8828,6.8828,6.8828,6.8828,6.8828,6.8305,6.787,6.787,6.7289,6.6854,6.6854,0.0,0.0,0.0,0.0,0.0,0.0,6.099,6.0177,6.0177,5.8406,0.0,0.0,0.0,0.0,0.0,0.0,0.0,6.1164,6.1803,0.0,6.1251,6.3719,6.4996,6.4996,6.5606,6.5925,6.5954,6.6593,6.6883,6.6912,6.758,6.7492,6.6941,6.758,6.7463,6.6883,6.6883,6.726,6.7754,6.7115,6.7289,6.7667,6.1135,6.1716,6.2441,6.3283,6.3748,6.4183,6.4619,6.4851,6.4996,6.4996,6.4996,6.4996,6.4996,6.4996,6.4996,0.0,6.4996,6.4996,0.0,6.4996,6.4996,6.4996,6.4996,6.4996,6.4996,6.4996,6.4996,6.4996,0.0,0.0,0.0,6.3428,6.4502,6.6941,6.6476,6.6883,6.787,6.787,6.8131,6.8538,6.8741,6.8828,6.8828,6.8828,6.8828,6.8828,6.8828,6.8828,6.8828,6.8828,6.8828,6.8828,6.8828,6.8828,6.8828,6.8828,6.8828,6.8828,6.8828,6.8828,6.8828,6.8828,6.8828,6.8828,6.8828,6.8828,6.8828,6.8828,6.8683,6.8509,6.8509,6.7986,6.7551,6.7551,6.6999,0.0,0.0,0.0,0.0,0.0,6.3719,6.2935,6.16,6.0932,0.0,0.0,0.0,0.0,0.0,0.0,0.0,0.0,6.3051,0.0,6.3138,6.4793,6.5635,6.5635,6.6273,6.6825,6.726,6.7463,6.7812,6.8218,6.8421,6.8392,6.8218,6.845,6.816,6.7551,6.7551,6.7405,6.7173,6.697,6.7289,6.7754,6.247,6.2993,6.3574,6.3888,6.4241,6.4532,6.4938,6.4996,6.4996,6.4996,6.4996,6.4996,6.4996,6.4996,0.0,6.4996,6.4996,6.4996,6.4996,6.4996,6.5083,6.5344,6.5344,6.546,6.5693,6.5693,0.0,6.5693,6.4909,6.4909,6.5693,6.5286,6.6099,6.787,6.7434,6.7609,6.8247,6.8247,6.8479,6.8828,6.8828,6.8828,6.8828,6.8828,6.8828,6.8828,6.8828,6.8828,6.8828,6.8828,6.8828,6.8828,6.8828,6.8828,6.8828,6.8828,6.8828,6.8828,6.8828,6.8828,6.8828,6.8828,6.8828,6.8828,6.8828,6.8828,6.8828,6.8828,6.8828,6.8828,6.8828,6.8509,6.8247,6.8247,6.7696,6.726,6.726,0.0,0.0,0.0,0.0,0.0,0.0,6.247,6.218,0.0,0.0,0.0,0.0,0.0,6.218,6.2616,6.4386,6.5141,6.47,6.578,6.6302,6.6302,6.6941,6.7609,6.8247,6.8247,6.845,6.8828,6.8828,6.8828,6.8828,6.8828,6.8596,6.8247,6.8247,6.7986,6.758,6.7347,6.7522,6.7783,6.3167,6.3661,6.4033,6.4033,6.459,6.4996,6.4996,6.4996,6.4996,6.4996,6.4996,6.4996,6.4996,6.4996,6.4996,6.5054,0.0,0.0,6.5054,6.5054,6.5344,6.5954,6.6012,6.6273,6.6883,6.6883,6.6883,6.6883,6.6883,6.6912,6.6941,6.6941,6.7289,6.7957,6.7957,6.8276,6.8828,6.8828,6.8828,6.8828,6.8828,6.8828,6.8828,6.8828,6.8828,6.8828,6.8828,6.8828,6.8828,6.8828,6.8828,6.8828,6.8828,6.8828,6.8828,6.8828,6.8828,6.8828,6.8828,6.8828,6.8828,6.8828,6.8828,6.8828,6.8828,6.8828,6.8828,6.8828,6.8828,6.8828,6.8828,6.8828,6.8828,6.8828,6.8334,6.7957,6.7957,0.0,0.0,0.0,0.0,0.0,6.3283,6.3312,6.3777,0.0,0.0,0.0,0.0,0.0,6.189,6.5025,6.5693,6.6012,6.6012,6.6622,6.697,6.7028,6.7638,6.8247,6.8828,6.8828,6.8828,6.8828,6.8828,6.8828,6.8828,6.8828,6.8828,6.8828,6.8828,6.8828,6.8741,6.816,6.7957,6.7841,6.3806,6.4328,6.4764,6.4764,6.488,6.4996,6.4996,6.4996,6.4996,6.4996,6.4996,6.4996,6.4996,6.4996,6.5199,6.5664,6.5257,6.5199,6.5693,6.5722,6.5983,6.6622,6.6651,6.6738,6.6883,6.6883,6.6883,6.6883,6.6883,6.7144,6.7638,6.7638,6.7986,6.8596,6.8596,6.8683,6.8828,6.8828,6.8828,6.8828,6.8828,6.8828,6.8828,6.8828,6.8828,6.8828,6.8828,6.8828,6.8828,6.8828,6.8828,6.8828,6.8828,6.8828,6.8828,6.8828,6.8828,6.8828,6.8828,6.8828,6.8828,6.8828,6.8828,6.8828,6.8828,6.8828,6.8828,6.8828,6.8828,6.8828,6.8828,6.8828,6.8828,6.8828,6.8712,6.8596,6.8596,6.845,0.0,0.0,6.6651,6.6331,6.4706,6.5402,6.5315,0.0,0.0,6.441,6.441,6.3569,6.4154,6.636,6.6593,6.6651,6.6651,6.7318,6.7899,6.8363,6.8538,6.8683,6.8828,6.8828,6.8828,6.8828,6.8828,6.8828,6.8828,6.8828,6.8828,6.8828,6.8828,6.8828,6.8799,6.8654,6.8596,6.8567,6.4473,6.4764,6.4996,6.4996,6.4996,6.4996,6.4996,6.4996,6.4996,6.4996,6.4996,6.4996,6.4996,6.5257,6.5548,6.5896,6.5606,6.5693,6.6331,6.636,6.6651,6.7318,6.7347,6.7463,6.7754,6.7783,6.7783,6.7783,6.7783,6.7957,6.8305,6.8305,6.8509,6.8828,6.8828,6.8828,6.8828,6.8828,6.8828,6.8828,6.8828,6.8828,6.8828,6.8828,6.8828,6.8828,6.8828,6.8828,6.8828,6.8828,6.8828,6.8828,6.8828,6.8828,6.8828,6.8828,6.8828,6.8828,6.8828,6.8828,6.8828,6.8828,6.8828,6.8828,6.8828,6.8828,6.8828,6.8828,6.8828,6.8828,6.8828,6.8828,6.8828,6.8828,6.8334,6.8131,6.8741,6.8305,6.7899,6.7783,6.8102,6.7899,6.6854,6.7376,6.7086,6.5402,6.5867,0.0,6.5809,6.607,6.6418,6.6883,6.7173,6.7347,6.7347,6.7986,6.8479,6.8828,6.8828,6.8828,6.8828,6.8828,6.8828,6.8828,6.8828,6.8828,6.8828,6.8828,6.8828,6.8828,6.8828,6.8828,6.8828,6.8828,6.8828,6.8828,6.4996,6.4996,6.4996,6.4996,6.4996,6.4996,6.4996,6.4996,6.4996,6.4996,6.4996,6.5025,6.5112,6.5606,6.6012,6.6215,6.6215,6.6447,6.6999,6.7028,6.7347,6.7986,6.8015,6.8276,6.8828,6.8828,6.8828,6.8828,6.8828,6.8828,6.8828,6.8828,6.8828,6.8828,6.8828,6.8828,6.8828,6.8828,6.8828,6.8828,6.8828,6.8828,6.8828,6.8828,6.8828,6.8828,6.8828,6.8828,6.8828,6.8828,6.8828,6.8828,6.8828,6.8828,6.8828,6.8828,6.8828,6.8828,6.8828,6.8828,6.8828,6.8828,6.8828,6.8828,6.8828,6.8828,6.8828,6.8828,6.8828,6.8828,6.8828,6.8828,6.877,6.8567,6.7783,6.7492,6.8392,0.0,6.758,6.8683,6.8828,6.8828,6.8828,6.8828,6.8596,6.8073,6.8509,6.8596,6.8044,6.8538,6.8305,6.7202,6.7725,6.8015,6.8015,6.8567,6.8828,6.8828,6.8828,6.8828,6.8828,6.8828,6.8828,6.8828,6.8828,6.8828,6.8828,6.8828,6.8828,6.8828,6.8828,6.8828,6.8828,6.8828,6.8828,6.8828,6.4996,6.4996,6.4996,6.4996,6.4996,6.4996,6.4996,6.4996,6.4996,6.4996,6.4996,6.5199,6.5722,6.5867,6.6389,6.7492,6.758,6.7609,6.7725,6.7725,6.8015,6.8654,6.8683,6.8712,6.8828,6.8828,6.8828,6.8828,6.8828,6.8828,6.8828,6.8828,6.8828,6.8828,6.8828,6.8828,6.8828,6.8828,6.8828,6.8828,6.8828,6.8828,6.8828,6.8828,6.8828,6.8828,6.8828,6.8828,6.8828,6.8828,6.8828,6.8828,6.8828,6.8828,6.8828,6.8828,6.8828,6.8828,6.8828,6.8828,6.8828,6.8828,6.8828,6.8828,6.8828,6.8828,6.8828,6.8828,6.8828,6.8828,6.8828,6.8828,6.8479,6.7376,6.7928,6.8218,6.7318,0.0,6.8596,6.8799,6.8828,6.8828,6.8828,6.8828,6.877,6.8683,6.877,6.877,6.8683,6.877,6.8741,6.8538,6.8625,6.8683,6.8683,6.877,6.8828,6.8828,6.8828,6.8828,6.8828,6.8828,6.8828,6.8828,6.8828,6.8828,6.8828,6.8828,6.8828,6.8828,6.8828,6.8828,6.8828,6.8828,6.8828,6.8828,6.4996,6.4996,6.4996,6.4996,6.4996,6.4996,6.4996,6.4996,6.4996,6.4996,6.5286,6.5606,6.5896,6.6564,6.7231,6.7841,6.8189,6.8392,6.8392,6.8392,6.8509,6.8828,6.8828,6.8828,6.8828,6.8828,6.8828,6.8828,6.8828,6.8828,6.8828,6.8828,6.8828,6.8828,6.8828,6.8828,6.8828,6.8828,6.8828,6.8828,6.8828,6.8828,6.8828,6.8828,6.8828,6.8828,6.8828,6.8828,6.8828,6.8828,6.8828,6.8828,6.8828,6.8828,6.8828,6.8828,6.8828,6.8828,6.8828,6.8828,6.8828,6.8828,6.8828,6.8828,6.8828,6.8828,6.8828,6.8828,6.8828,6.8828,6.8828,6.8828,6.8625,6.8015,6.7841,6.7812,6.7928,6.7841,6.8044,6.8741,6.8828,6.8828,6.8828,6.8828,6.8828,6.8828,6.8828,6.8828,6.8828,6.8828,6.8828,6.8828,6.8828,6.8828,6.8828,6.8828,6.8828,6.8828,6.8828,6.8828,6.8828,6.8828,6.8828,6.8828,6.8828,6.8828,6.8828,6.8828,6.8828,6.8828,6.8828,6.8828,6.8828,6.8828,6.8828,6.8828,6.4996,6.4996,6.4996,6.4996,6.4996,6.4996,6.4996,6.4996,6.5025,6.5199,6.5635,6.6041,6.636,6.7289,6.7957,6.8102,6.8538,6.8828,6.8828,6.8828,6.8828,6.8828,6.8828,6.8828,6.8828,6.8828,6.8828,6.8828,6.8828,6.8828,6.8828,6.8828,6.8828,6.8828,6.8828,6.8828,6.8828,6.8828,6.8828,6.8828,6.8828,6.8828,6.8828,6.8828,6.8828,6.8828,6.8828,6.8828,6.8828,6.8828,6.8828,6.8828,6.8828,6.8828,6.8828,6.8828,6.8828,6.8828,6.8828,6.8828,6.8828,6.8828,6.8828,6.8828,6.8828,6.8828,6.8828,6.8828,6.8828,6.8828,6.8828,6.8828,6.8712,6.8421,0.0,6.758,6.8276,6.7783,6.7696,6.8712,6.8828,6.8828,6.8828,6.8828,6.8828,6.8828,6.8828,6.8828,6.8828,6.8828,6.8828,6.8828,6.8828,6.8828,6.8828,6.8828,6.8828,6.8828,6.8828,6.8828,6.8828,6.8828,6.8828,6.8828,6.8828,6.8828,6.8828,6.8828,6.8828,6.8828,6.8828,6.8828,6.8828,6.8828,6.8828,6.8828,6.4996,6.4996,6.4996,6.4996,6.4996,6.4996,6.4996,6.4996,6.5199,6.578,6.5896,6.6389,6.7609,6.7812,6.8131,6.8712,6.8799,6.8828,6.8828,6.8828,6.8828,6.8828,6.8828,6.8828,6.8828,6.8828,6.8828,6.8828,6.8828,6.8828,6.8828,6.8828,6.8828,6.8828,6.8828,6.8828,6.8828,6.8828,6.8828,6.8828,6.8828,6.8828,6.8828,6.8828,6.8828,6.8828,6.8828,6.8828,6.8828,6.8828,6.8828,6.8828,6.8828,6.8828,6.8828,6.8828,6.8828,6.8828,6.8828,6.8828,6.8828,6.8828,6.8828,6.8828,6.8828,6.8828,6.8828,6.8828,6.8828,6.8828,6.8828,6.8828,6.8421,6.7231,0.0,0.0,6.7173,6.7986,6.8712,6.8828,6.8828,6.8828,6.8828,6.8828,6.8828,6.8828,6.8828,6.8828,6.8828,6.8828,6.8828,6.8828,6.8828,6.8828,6.8828,6.8828,6.8828,6.8828,6.8828,6.8828,6.8828,6.8828,6.8828,6.8828,6.8828,6.8828,6.8828,6.8828,6.8828,6.8828,6.8828,6.8828,6.8828,6.8828,6.8828,6.8828,6.4996,6.4996,6.4996,6.4996,6.4996,6.4996,6.4996,6.4996,6.5228,6.5838,6.6273,6.6854,6.7783,6.8218,6.8567,6.8799,6.8828,6.8828,6.8828,6.8828,6.8828,6.8828,6.8828,6.8828,6.8828,6.8828,6.8828,6.8828,6.8828,6.8828,6.8828,6.8828,6.8828,6.8828,6.8828,6.8828,6.8828,6.8828,6.8828,6.8828,6.8828,6.8828,6.8828,6.8828,6.8828,6.8828,6.8828,6.8828,6.8828,6.8828,6.8828,6.8828,6.8828,6.8828,6.8828,6.8828,6.8828,6.8828,6.8828,6.8828,6.8828,6.8828,6.8828,6.8828,6.8828,6.8828,6.8828,6.8828,6.8828,6.8828,6.8828,6.8828,6.8654,6.816,0.0,6.8654,6.816,6.8509,6.8828,6.8828,6.8828,6.8828,6.8828,6.8828,6.8828,6.8828,6.8828,6.8828,6.8828,6.8828,6.8828,6.8828,6.8828,6.8828,6.8828,6.8828,6.8828,6.8828,6.8828,6.8828,6.8828,6.8828,6.8828,6.8828,6.8828,6.8828,6.8828,6.8828,6.8828,6.8828,6.8828,6.8828,6.8828,6.8828,6.8828,6.8828,6.4996,6.4996,6.4996,6.4996,6.4996,6.4996,6.4996,6.5141,6.5519,6.6157,6.6796,6.7434,6.8102,6.8567,6.8828,6.8828,6.8828,6.8828,6.8828,6.8828,6.8828,6.8828,6.8828,6.8828,6.8828,6.8828,6.8828,6.8828,6.8828,6.8828,6.8828,6.8828,6.8828,6.8828,6.8828,6.8828,6.8828,6.8828,6.8828,6.8828,6.8828,6.8828,6.8828,6.8828,6.8828,6.8828,6.8828,6.8828,6.8828,6.8828,6.8828,6.8828,6.8828,6.8828,6.8828,6.8828,6.8828,6.8828,6.8828,6.8828,6.8828,6.8828,6.8828,6.8828,6.8828,6.8828,6.8828,6.8828,6.8828,6.8828,6.8828,6.8828,6.8828,6.8828,6.8828,6.8828,6.8828,6.8828,6.8828,6.8828,6.8828,6.8828,6.8828,6.8828,6.8828,6.8828,6.8828,6.8828,6.8828,6.8828,6.8828,6.8828,6.8828,6.8828,6.8828,6.8828,6.8828,6.8828,6.8828,6.8828,6.8828,6.8828,6.8828,6.8828,6.8828,6.8828,6.8828,6.8828,6.8828,6.8828,6.8828,6.8828,6.8828,6.8828,6.8828,6.8828,6.4996,6.4996,6.4996,6.4996,6.4996,6.4996,6.4996,6.5519,6.6157,6.6796,6.7463,6.8131,6.8741,6.8828,6.8828,6.8828,6.8828,6.8828,6.8828,6.8828,6.8828,6.8828,6.8828,6.8828,6.8828,6.8828,6.8828,6.8828,6.8828,6.8828,6.8828,6.8828,6.8828,6.8828,6.8828,6.8828,6.8828,6.8828,6.8828,6.8828,6.8828,6.8828,6.8828,6.8828,6.8828,6.8828,6.8828,6.8828,6.8828,6.8828,6.8828,6.8828,6.8828,6.8828,6.8828,6.8828,6.8828,6.8828,6.8828,6.8828,6.8828,6.8828,6.8828,6.8828,6.8828,6.8828,6.8828,6.8828,6.8828,6.8828,6.8828,6.8828,6.8828,6.8828,6.8828,6.8828,6.8828,6.8828,6.8828,6.8828,6.8828,6.8828,6.8828,6.8828,6.8828,6.8828,6.8828,6.8828,6.8828,6.8828,6.8828,6.8828,6.8828,6.8828,6.8828,6.8828,6.8828,6.8828,6.8828,6.8828,6.8828,6.8828,6.8828,6.8828,6.8828,6.8828,6.8828,6.8828,6.8828,6.8828,6.8828,6.8828,6.8828,6.8828,6.8828,6.8828,6.4996,6.4996,6.4996,6.4996,6.4996,6.5141,6.5577,6.5809,6.6331,6.7434,6.7754,6.8131,6.8741,6.8828,6.8828,6.8828,6.8828,6.8828,6.8828,6.8828,6.8828,6.8828,6.8828,6.8828,6.8828,6.8828,6.8828,6.8828,6.8828,6.8828,6.8828,6.8828,6.8828,6.8828,6.8828,6.8828,6.8828,6.8828,6.8828,6.8828,6.8828,6.8828,6.8828,6.8828,6.8828,6.8828,6.8828,6.8828,6.8828,6.8828,6.8828,6.8828,6.8828,6.8828,6.8828,6.8828,6.8828,6.8828,6.8828,6.8828,6.8828,6.8828,6.8828,6.8828,6.8828,6.8828,6.8828,6.8828,6.8828,6.8828,6.8828,6.8828,6.8828,6.8828,6.8828,6.8828,6.8828,6.8828,6.8828,6.8828,6.8828,6.8828,6.8828,6.8828,6.8828,6.8828,6.8828,6.8828,6.8828,6.8828,6.8828,6.8828,6.8828,6.8828,6.8828,6.8828,6.8828,6.8828,6.8828,6.8828,6.8828,6.8828,6.8828,6.8828,6.8828,6.8828,6.8828,6.8828,6.8828,6.8828,6.8828,6.8828,6.8828,6.8828,6.8828,6.8828,6.4996,6.4996,6.5083,6.5315,6.5373,6.5577,6.6215,6.6535,6.6999,6.7783,6.8102,6.8392,6.877,6.8828,6.8828,6.8828,6.8828,6.8828,6.8828,6.8828,6.8828,6.8828,6.8828,6.8828,6.8828,6.8828,6.8828,6.8828,6.8828,6.8828,6.8828,6.8828,6.8828,6.8828,6.8828,6.8828,6.8828,6.8828,6.8828,6.8828,6.8828,6.8828,6.8828,6.8828,6.8828,6.8828,6.8828,6.8828,6.8828,6.8828,6.8828,6.8828,6.8828,6.8828,6.8828,6.8828,6.8828,6.8828,6.8828,6.8828,6.8828,6.8828,6.8828,6.8828,6.8828,6.8828,6.8828,6.8828,6.8828,6.8828,6.8828,6.8828,6.8828,6.8828,6.8828,6.8828,6.8828,6.8828,6.8828,6.8828,6.8828,6.8828,6.8828,6.8828,6.8828,6.8828,6.8828,6.8828,6.8828,6.8828,6.8828,6.8828,6.8828,6.8828,6.8828,6.8828,6.8828,6.8828,6.8828,6.8828,6.8828,6.8828,6.8828,6.8828,6.8828,6.8828,6.8828,6.8828,6.8828,6.8828,6.8828,6.8828,6.8828,6.8828,6.8828,6.8828,6.4996,6.5025,6.5257,6.5838,6.5983,6.6244,6.6883,6.7492,6.7899,6.7957,6.8479,6.8828,6.8828,6.8828,6.8828,6.8828,6.8828,6.8828,6.8828,6.8828,6.8828,6.8828,6.8828,6.8828,6.8828,6.8828,6.8828,6.8828,6.8828,6.8828,6.8828,6.8828,6.8828,6.8828,6.8828,6.8828,6.8828,6.8828,6.8828,6.8828,6.8828,6.8828,6.8828,6.8828,6.8828,6.8828,6.8828,6.8828,6.8828,6.8828,6.8828,6.8828,6.8828,6.8828,6.8828,6.8828,6.8828,6.8828,6.8828,6.8828,6.8828,6.8828,6.8828,6.8828,6.8828,6.8828,6.8828,6.8828,6.8828,6.8828,6.8828,6.8828,6.8828,6.8828,6.8828,6.8828,6.8828,6.8828,6.8828,6.8828,6.8828,6.8828,6.8828,6.8828,6.8828,6.8828,6.8828,6.8828,6.8828,6.8828,6.8828,6.8828,6.8828,6.8828,6.8828,6.8828,6.8828,6.8828,6.8828,6.8828,6.8828,6.8828,6.8828,6.8828,6.8828,6.8828,6.8828,6.8828,6.8828,6.8828,6.8828,6.8828,6.8828,6.8828,6.8828,6.8828,6.4996,6.5373,6.578,6.5896,6.6331,6.6912,6.7551,6.7783,6.8073,6.8567,6.8741,6.8828,6.8828,6.8828,6.8828,6.8828,6.8828,6.8828,6.8828,6.8828,6.8828,6.8828,6.8828,6.8828,6.8828,6.8828,6.8828,6.8828,6.8828,6.8828,6.8828,6.8828,6.8828,6.8828,6.8828,6.8828,6.8828,6.8828,6.8828,6.8828,6.8828,6.8828,6.8828,6.8828,6.8828,6.8828,6.8828,6.8828,6.8828,6.8828,6.8828,6.8828,6.8828,6.8828,6.8828,6.8828,6.8828,6.8828,6.8828,6.8828,6.8828,6.8828,6.8828,6.8828,6.8828,6.8828,6.8828,6.8828,6.8828,6.8828,6.8828,6.8828,6.8828,6.8828,6.8828,6.8828,6.8828,6.8828,6.8828,6.8828,6.8828,6.8828,6.8828,6.8828,6.8828,6.8828,6.8828,6.8828,6.8828,6.8828,6.8828,6.8828,6.8828,6.8828,6.8828,6.8828,6.8828,6.8828,6.8828,6.8828,6.8828,6.8828,6.8828,6.8828,6.8828,6.8828,6.8828,6.8828,6.8828,6.8828,6.8828,6.8828,6.8828,6.8828,6.8828,6.8828,6.5431,6.5954,6.6476,6.6796,6.7144,6.758,6.8218,6.8334,6.845,6.877,6.8828,6.8828,6.8828,6.8828,6.8828,6.8828,6.8828,6.8828,6.8828,6.8828,6.8828,6.8828,6.8828,6.8828,6.8828,6.8828,6.8828,6.8828,6.8828,6.8828,6.8828,6.8828,6.8828,6.8828,6.8828,6.8828,6.8828,6.8828,6.8828,6.8828,6.8828,6.8828,6.8828,6.8828,6.8828,6.8828,6.8828,6.8828,6.8828,6.8828,6.8828,6.8828,6.8828,6.8828,6.8828,6.8828,6.8828,6.8828,6.8828,6.8828,6.8828,6.8828,6.8828,6.8828,6.8828,6.8828,6.8828,6.8828,6.8828,6.8828,6.8828,6.8828,6.8828,6.8828,6.8828,6.8828,6.8828,6.8828,6.8828,6.8828,6.8828,6.8828,6.8828,6.8828,6.8828,6.8828,6.8828,6.8828,6.8828,6.8828,6.8828,6.8828,6.8828,6.8828,6.8828,6.8828,6.8828,6.8828,6.8828,6.8828,6.8828,6.8828,6.8828,6.8828,6.8828,6.8828,6.8828,6.8828,6.8828,6.8828,6.8828,6.8828,6.8828,6.8828,6.8828,6.8828,6.6099,6.6622,6.7231,6.7783,6.7986,6.8218,6.8741,6.8828,6.8828,6.8828,6.8828,6.8828,6.8828,6.8828,6.8828,6.8828,6.8828,6.8828,6.8828,6.8828,6.8828,6.8828,6.8828,6.8828,6.8828,6.8828,6.8828,6.8828,6.8828,6.8828,6.8828,6.8828,6.8828,6.8828,6.8828,6.8828,6.8828,6.8828,6.8828,6.8828,6.8828,6.8828,6.8828,6.8828,6.8828,6.8828,6.8828,6.8828,6.8828,6.8828,6.8828,6.8828,6.8828,6.8828,6.8828,6.8828,6.8828,6.8828,6.8828,6.8741,6.8683,6.8683,6.8567,6.8509,6.8509,6.8567,6.8625,6.8509,6.8509,6.8509,6.8509,6.8596,6.8683,6.8683,6.8741,6.8828,6.8828,6.8828,6.8828,6.8828,6.8828,6.8828,6.8828,6.8828,6.8828,6.8828,6.8828,6.8828,6.8828,6.8828,6.8828,6.8828,6.8828,6.8828,6.8828,6.8828,6.8828,6.8828,6.8828,6.8828,6.8828,6.8828,6.8828,6.8828,6.8828,6.8828,6.8828,6.8828,6.8828,6.8828,6.8828,6.8828,6.8828,6.8828,6.8828,6.8828,6.6738,6.7289,6.7783,6.787,6.8334,6.8741,6.8828,6.8828,6.8828,6.8828,6.8828,6.8828,6.8828,6.8828,6.8828,6.8828,6.8828,6.8828,6.8828,6.8828,6.8828,6.8828,6.8828,6.8828,6.8828,6.8828,6.8828,6.8828,6.8828,6.8828,6.8828,6.8828,6.8828,6.8828,6.8828,6.8828,6.8828,6.8828,6.8828,6.8828,6.8828,6.8828,6.8828,6.8828,6.8828,6.8828,6.8828,6.8828,6.8828,6.8828,6.8828,6.8828,6.8828,6.8828,6.8828,6.8828,6.8828,6.8828,6.8828,6.8421,6.8015,6.8015,6.758,6.7144,6.7144,6.7609,6.7841,6.726,6.7144,6.7144,6.7144,6.7609,6.8015,6.8015,6.8479,6.8828,6.8828,6.8828,6.8828,6.8828,6.8828,6.8828,6.8828,6.8828,6.8828,6.8828,6.8828,6.8828,6.8828,6.8828,6.8828,6.8828,6.8828,6.8828,6.8828,6.8828,6.8828,6.8828,6.8828,6.8828,6.8828,6.8828,6.8828,6.8828,6.8828,6.8828,6.8828,6.8828,6.8828,6.8828,6.8828,6.8828,6.8828,6.8828,6.8828,6.8828,6.7434,6.7957,6.8392,6.8392,6.8625,6.8828,6.8828,6.8828,6.8828,6.8828,6.8828,6.8828,6.8828,6.8828,6.8828,6.8828,6.8828,6.8828,6.8828,6.8828,6.8828,6.8828,6.8828,6.8828,6.8828,6.8828,6.8828,6.8828,6.8828,6.8828,6.8828,6.8828,6.8828,6.8828,6.8828,6.8828,6.8828,6.8828,6.8828,6.8828,6.8828,6.8828,6.8828,6.8828,6.8828,6.8828,6.8828,6.8828,6.8828,6.8828,6.8828,6.8828,6.8828,6.8828,6.8828,6.8828,6.8828,6.8828,6.8828,6.8363,6.787,6.787,6.7376,6.6796,6.6418,6.6593,6.6825,6.6854,6.6883,6.6883,6.6883,6.7115,6.7434,6.7812,6.8102,6.8421,6.877,6.8828,6.8828,6.8828,6.8828,6.8828,6.8828,6.8828,6.8828,6.8828,6.8828,6.8828,6.8828,6.8828,6.8828,6.8828,6.8828,6.8828,6.8828,6.8828,6.8828,6.8828,6.8828,6.8828,6.8828,6.8828,6.8828,6.8828,6.8828,6.8828,6.8828,6.8828,6.8828,6.8828,6.8828,6.8828,6.8828,6.8828,6.8828,6.8828]}]]